<?xml version="1.0" encoding="UTF-8" standalone="no" ?>
<gpx xmlns="http://www.topografix.com/GPX/1/1" xmlns:xsi="http://www.w3.org/2001/XMLSchema-instance" xsi:schemaLocation="http://www.topografix.com/GPX/1/1 http://www.topografix.com/GPX/1/1/gpx.xsd" version="1.1" creator="VisuGPX - https://www.visugpx.com">
  <metadata>
    <name>La Sauve - Viera</name>
    <desc><![CDATA[Randonnée VTT]]></desc>
  </metadata>
  <trk>
    <name><![CDATA[La sauve Viera OVS]]></name>
    <trkseg>
      <trkpt lat="44.75524" lon="-0.31271">
        <ele>102</ele>
        <time>2012-06-30T12:11:33Z</time>
      </trkpt>
      <trkpt lat="44.75527" lon="-0.31255">
        <ele>102</ele>
        <time>2012-06-30T12:11:33Z</time>
      </trkpt>
      <trkpt lat="44.75521" lon="-0.31242">
        <ele>101</ele>
        <time>2012-06-30T12:11:36Z</time>
      </trkpt>
      <trkpt lat="44.75523" lon="-0.31255">
        <ele>102</ele>
        <time>2012-06-30T12:13:06Z</time>
      </trkpt>
      <trkpt lat="44.75516" lon="-0.31246">
        <ele>101</ele>
        <time>2012-06-30T12:18:36Z</time>
      </trkpt>
      <trkpt lat="44.75522" lon="-0.31258">
        <ele>102</ele>
        <time>2012-06-30T12:23:00Z</time>
      </trkpt>
      <trkpt lat="44.75526" lon="-0.3127">
        <ele>102</ele>
        <time>2012-06-30T12:23:07Z</time>
      </trkpt>
      <trkpt lat="44.75523" lon="-0.31257">
        <ele>102</ele>
        <time>2012-06-30T12:23:31Z</time>
      </trkpt>
      <trkpt lat="44.7552" lon="-0.31244">
        <ele>101</ele>
        <time>2012-06-30T12:27:55Z</time>
      </trkpt>
      <trkpt lat="44.7553" lon="-0.31241">
        <ele>102</ele>
        <time>2012-06-30T12:29:09Z</time>
      </trkpt>
      <trkpt lat="44.75543" lon="-0.31243">
        <ele>102</ele>
        <time>2012-06-30T12:29:14Z</time>
      </trkpt>
      <trkpt lat="44.75553" lon="-0.31245">
        <ele>103</ele>
        <time>2012-06-30T12:29:18Z</time>
      </trkpt>
      <trkpt lat="44.75557" lon="-0.31258">
        <ele>103</ele>
        <time>2012-06-30T12:29:22Z</time>
      </trkpt>
      <trkpt lat="44.75564" lon="-0.31269">
        <ele>102</ele>
        <time>2012-06-30T12:29:26Z</time>
      </trkpt>
      <trkpt lat="44.75574" lon="-0.3127">
        <ele>103</ele>
        <time>2012-06-30T12:29:31Z</time>
      </trkpt>
      <trkpt lat="44.75584" lon="-0.31271">
        <ele>103</ele>
        <time>2012-06-30T12:29:34Z</time>
      </trkpt>
      <trkpt lat="44.75595" lon="-0.31277">
        <ele>102</ele>
        <time>2012-06-30T12:29:38Z</time>
      </trkpt>
      <trkpt lat="44.75607" lon="-0.31282">
        <ele>102</ele>
        <time>2012-06-30T12:29:41Z</time>
      </trkpt>
      <trkpt lat="44.75617" lon="-0.31287">
        <ele>102</ele>
        <time>2012-06-30T12:29:43Z</time>
      </trkpt>
      <trkpt lat="44.75628" lon="-0.31293">
        <ele>102</ele>
        <time>2012-06-30T12:29:45Z</time>
      </trkpt>
      <trkpt lat="44.7564" lon="-0.31298">
        <ele>102</ele>
        <time>2012-06-30T12:29:47Z</time>
      </trkpt>
      <trkpt lat="44.7565" lon="-0.31306">
        <ele>102</ele>
        <time>2012-06-30T12:29:50Z</time>
      </trkpt>
      <trkpt lat="44.75662" lon="-0.31312">
        <ele>102</ele>
        <time>2012-06-30T12:29:53Z</time>
      </trkpt>
      <trkpt lat="44.75672" lon="-0.31313">
        <ele>103</ele>
        <time>2012-06-30T12:29:56Z</time>
      </trkpt>
      <trkpt lat="44.75683" lon="-0.31311">
        <ele>103</ele>
        <time>2012-06-30T12:29:59Z</time>
      </trkpt>
      <trkpt lat="44.75694" lon="-0.31313">
        <ele>104</ele>
        <time>2012-06-30T12:30:03Z</time>
      </trkpt>
      <trkpt lat="44.75707" lon="-0.31314">
        <ele>104</ele>
        <time>2012-06-30T12:30:07Z</time>
      </trkpt>
      <trkpt lat="44.75718" lon="-0.31314">
        <ele>104</ele>
        <time>2012-06-30T12:30:10Z</time>
      </trkpt>
      <trkpt lat="44.75729" lon="-0.31315">
        <ele>105</ele>
        <time>2012-06-30T12:30:13Z</time>
      </trkpt>
      <trkpt lat="44.75738" lon="-0.31317">
        <ele>105</ele>
        <time>2012-06-30T12:30:16Z</time>
      </trkpt>
      <trkpt lat="44.7575" lon="-0.3132">
        <ele>105</ele>
        <time>2012-06-30T12:30:19Z</time>
      </trkpt>
      <trkpt lat="44.75761" lon="-0.31322">
        <ele>106</ele>
        <time>2012-06-30T12:30:22Z</time>
      </trkpt>
      <trkpt lat="44.75774" lon="-0.31324">
        <ele>106</ele>
        <time>2012-06-30T12:30:26Z</time>
      </trkpt>
      <trkpt lat="44.75786" lon="-0.31327">
        <ele>107</ele>
        <time>2012-06-30T12:30:30Z</time>
      </trkpt>
      <trkpt lat="44.75797" lon="-0.3133">
        <ele>107</ele>
        <time>2012-06-30T12:30:33Z</time>
      </trkpt>
      <trkpt lat="44.75808" lon="-0.31332">
        <ele>108</ele>
        <time>2012-06-30T12:30:36Z</time>
      </trkpt>
      <trkpt lat="44.75818" lon="-0.31334">
        <ele>108</ele>
        <time>2012-06-30T12:30:39Z</time>
      </trkpt>
      <trkpt lat="44.75829" lon="-0.31337">
        <ele>109</ele>
        <time>2012-06-30T12:30:42Z</time>
      </trkpt>
      <trkpt lat="44.75838" lon="-0.31339">
        <ele>109</ele>
        <time>2012-06-30T12:30:45Z</time>
      </trkpt>
      <trkpt lat="44.7585" lon="-0.3134">
        <ele>109</ele>
        <time>2012-06-30T12:30:48Z</time>
      </trkpt>
      <trkpt lat="44.75859" lon="-0.31342">
        <ele>110</ele>
        <time>2012-06-30T12:30:51Z</time>
      </trkpt>
      <trkpt lat="44.75869" lon="-0.31343">
        <ele>110</ele>
        <time>2012-06-30T12:30:54Z</time>
      </trkpt>
      <trkpt lat="44.75879" lon="-0.31345">
        <ele>110</ele>
        <time>2012-06-30T12:30:57Z</time>
      </trkpt>
      <trkpt lat="44.75889" lon="-0.31348">
        <ele>110</ele>
        <time>2012-06-30T12:31:00Z</time>
      </trkpt>
      <trkpt lat="44.759" lon="-0.31349">
        <ele>110</ele>
        <time>2012-06-30T12:31:03Z</time>
      </trkpt>
      <trkpt lat="44.75911" lon="-0.31351">
        <ele>110</ele>
        <time>2012-06-30T12:31:06Z</time>
      </trkpt>
      <trkpt lat="44.75921" lon="-0.31353">
        <ele>110</ele>
        <time>2012-06-30T12:31:09Z</time>
      </trkpt>
      <trkpt lat="44.7593" lon="-0.31355">
        <ele>110</ele>
        <time>2012-06-30T12:31:12Z</time>
      </trkpt>
      <trkpt lat="44.7594" lon="-0.31357">
        <ele>110</ele>
        <time>2012-06-30T12:31:15Z</time>
      </trkpt>
      <trkpt lat="44.75951" lon="-0.31359">
        <ele>110</ele>
        <time>2012-06-30T12:31:18Z</time>
      </trkpt>
      <trkpt lat="44.75962" lon="-0.31361">
        <ele>110</ele>
        <time>2012-06-30T12:31:21Z</time>
      </trkpt>
      <trkpt lat="44.75975" lon="-0.31363">
        <ele>110</ele>
        <time>2012-06-30T12:31:24Z</time>
      </trkpt>
      <trkpt lat="44.75986" lon="-0.31364">
        <ele>110</ele>
        <time>2012-06-30T12:31:27Z</time>
      </trkpt>
      <trkpt lat="44.75996" lon="-0.31366">
        <ele>110</ele>
        <time>2012-06-30T12:31:30Z</time>
      </trkpt>
      <trkpt lat="44.76007" lon="-0.31367">
        <ele>110</ele>
        <time>2012-06-30T12:31:33Z</time>
      </trkpt>
      <trkpt lat="44.7602" lon="-0.3137">
        <ele>110</ele>
        <time>2012-06-30T12:31:37Z</time>
      </trkpt>
      <trkpt lat="44.76025" lon="-0.31382">
        <ele>109</ele>
        <time>2012-06-30T12:31:40Z</time>
      </trkpt>
      <trkpt lat="44.76024" lon="-0.31398">
        <ele>109</ele>
        <time>2012-06-30T12:31:43Z</time>
      </trkpt>
      <trkpt lat="44.76021" lon="-0.31415">
        <ele>108</ele>
        <time>2012-06-30T12:31:46Z</time>
      </trkpt>
      <trkpt lat="44.76017" lon="-0.31432">
        <ele>108</ele>
        <time>2012-06-30T12:31:49Z</time>
      </trkpt>
      <trkpt lat="44.76015" lon="-0.31449">
        <ele>108</ele>
        <time>2012-06-30T12:31:52Z</time>
      </trkpt>
      <trkpt lat="44.76013" lon="-0.31468">
        <ele>107</ele>
        <time>2012-06-30T12:31:55Z</time>
      </trkpt>
      <trkpt lat="44.76012" lon="-0.31482">
        <ele>107</ele>
        <time>2012-06-30T12:31:57Z</time>
      </trkpt>
      <trkpt lat="44.7601" lon="-0.315">
        <ele>107</ele>
        <time>2012-06-30T12:32:00Z</time>
      </trkpt>
      <trkpt lat="44.76008" lon="-0.3152">
        <ele>107</ele>
        <time>2012-06-30T12:32:03Z</time>
      </trkpt>
      <trkpt lat="44.76006" lon="-0.31539">
        <ele>107</ele>
        <time>2012-06-30T12:32:06Z</time>
      </trkpt>
      <trkpt lat="44.76003" lon="-0.31559">
        <ele>107</ele>
        <time>2012-06-30T12:32:09Z</time>
      </trkpt>
      <trkpt lat="44.76001" lon="-0.31578">
        <ele>108</ele>
        <time>2012-06-30T12:32:12Z</time>
      </trkpt>
      <trkpt lat="44.76" lon="-0.31596">
        <ele>108</ele>
        <time>2012-06-30T12:32:15Z</time>
      </trkpt>
      <trkpt lat="44.75997" lon="-0.31615">
        <ele>108</ele>
        <time>2012-06-30T12:32:18Z</time>
      </trkpt>
      <trkpt lat="44.75994" lon="-0.31635">
        <ele>108</ele>
        <time>2012-06-30T12:32:21Z</time>
      </trkpt>
      <trkpt lat="44.75988" lon="-0.31653">
        <ele>108</ele>
        <time>2012-06-30T12:32:24Z</time>
      </trkpt>
      <trkpt lat="44.7598" lon="-0.31669">
        <ele>108</ele>
        <time>2012-06-30T12:32:27Z</time>
      </trkpt>
      <trkpt lat="44.75974" lon="-0.31679">
        <ele>109</ele>
        <time>2012-06-30T12:32:29Z</time>
      </trkpt>
      <trkpt lat="44.75964" lon="-0.31694">
        <ele>109</ele>
        <time>2012-06-30T12:32:32Z</time>
      </trkpt>
      <trkpt lat="44.75959" lon="-0.31705">
        <ele>109</ele>
        <time>2012-06-30T12:32:34Z</time>
      </trkpt>
      <trkpt lat="44.75953" lon="-0.31717">
        <ele>109</ele>
        <time>2012-06-30T12:32:36Z</time>
      </trkpt>
      <trkpt lat="44.7595" lon="-0.31729">
        <ele>109</ele>
        <time>2012-06-30T12:32:38Z</time>
      </trkpt>
      <trkpt lat="44.75946" lon="-0.31742">
        <ele>109</ele>
        <time>2012-06-30T12:32:40Z</time>
      </trkpt>
      <trkpt lat="44.75943" lon="-0.31755">
        <ele>108</ele>
        <time>2012-06-30T12:32:42Z</time>
      </trkpt>
      <trkpt lat="44.7594" lon="-0.31768">
        <ele>108</ele>
        <time>2012-06-30T12:32:44Z</time>
      </trkpt>
      <trkpt lat="44.75937" lon="-0.31782">
        <ele>108</ele>
        <time>2012-06-30T12:32:46Z</time>
      </trkpt>
      <trkpt lat="44.75935" lon="-0.31796">
        <ele>108</ele>
        <time>2012-06-30T12:32:48Z</time>
      </trkpt>
      <trkpt lat="44.75933" lon="-0.31809">
        <ele>107</ele>
        <time>2012-06-30T12:32:50Z</time>
      </trkpt>
      <trkpt lat="44.75931" lon="-0.31824">
        <ele>107</ele>
        <time>2012-06-30T12:32:52Z</time>
      </trkpt>
      <trkpt lat="44.7593" lon="-0.31838">
        <ele>107</ele>
        <time>2012-06-30T12:32:54Z</time>
      </trkpt>
      <trkpt lat="44.75929" lon="-0.31852">
        <ele>107</ele>
        <time>2012-06-30T12:32:56Z</time>
      </trkpt>
      <trkpt lat="44.75929" lon="-0.31865">
        <ele>107</ele>
        <time>2012-06-30T12:32:58Z</time>
      </trkpt>
      <trkpt lat="44.75929" lon="-0.31879">
        <ele>107</ele>
        <time>2012-06-30T12:33:00Z</time>
      </trkpt>
      <trkpt lat="44.7593" lon="-0.31892">
        <ele>107</ele>
        <time>2012-06-30T12:33:02Z</time>
      </trkpt>
      <trkpt lat="44.75931" lon="-0.31906">
        <ele>107</ele>
        <time>2012-06-30T12:33:04Z</time>
      </trkpt>
      <trkpt lat="44.75932" lon="-0.31925">
        <ele>107</ele>
        <time>2012-06-30T12:33:07Z</time>
      </trkpt>
      <trkpt lat="44.75933" lon="-0.31944">
        <ele>108</ele>
        <time>2012-06-30T12:33:10Z</time>
      </trkpt>
      <trkpt lat="44.75933" lon="-0.31958">
        <ele>108</ele>
        <time>2012-06-30T12:33:12Z</time>
      </trkpt>
      <trkpt lat="44.75934" lon="-0.31976">
        <ele>108</ele>
        <time>2012-06-30T12:33:15Z</time>
      </trkpt>
      <trkpt lat="44.75934" lon="-0.31996">
        <ele>108</ele>
        <time>2012-06-30T12:33:18Z</time>
      </trkpt>
      <trkpt lat="44.75933" lon="-0.32015">
        <ele>107</ele>
        <time>2012-06-30T12:33:21Z</time>
      </trkpt>
      <trkpt lat="44.75932" lon="-0.32029">
        <ele>107</ele>
        <time>2012-06-30T12:33:23Z</time>
      </trkpt>
      <trkpt lat="44.7593" lon="-0.32047">
        <ele>107</ele>
        <time>2012-06-30T12:33:26Z</time>
      </trkpt>
      <trkpt lat="44.7593" lon="-0.32061">
        <ele>107</ele>
        <time>2012-06-30T12:33:28Z</time>
      </trkpt>
      <trkpt lat="44.75929" lon="-0.32081">
        <ele>107</ele>
        <time>2012-06-30T12:33:31Z</time>
      </trkpt>
      <trkpt lat="44.75927" lon="-0.32094">
        <ele>107</ele>
        <time>2012-06-30T12:33:33Z</time>
      </trkpt>
      <trkpt lat="44.75926" lon="-0.32114">
        <ele>107</ele>
        <time>2012-06-30T12:33:36Z</time>
      </trkpt>
      <trkpt lat="44.75925" lon="-0.32127">
        <ele>107</ele>
        <time>2012-06-30T12:33:38Z</time>
      </trkpt>
      <trkpt lat="44.75923" lon="-0.32141">
        <ele>107</ele>
        <time>2012-06-30T12:33:40Z</time>
      </trkpt>
      <trkpt lat="44.75922" lon="-0.32154">
        <ele>107</ele>
        <time>2012-06-30T12:33:42Z</time>
      </trkpt>
      <trkpt lat="44.7592" lon="-0.32173">
        <ele>107</ele>
        <time>2012-06-30T12:33:45Z</time>
      </trkpt>
      <trkpt lat="44.75918" lon="-0.32187">
        <ele>107</ele>
        <time>2012-06-30T12:33:47Z</time>
      </trkpt>
      <trkpt lat="44.75915" lon="-0.32199">
        <ele>107</ele>
        <time>2012-06-30T12:33:49Z</time>
      </trkpt>
      <trkpt lat="44.75912" lon="-0.32212">
        <ele>107</ele>
        <time>2012-06-30T12:33:51Z</time>
      </trkpt>
      <trkpt lat="44.75907" lon="-0.32224">
        <ele>107</ele>
        <time>2012-06-30T12:33:53Z</time>
      </trkpt>
      <trkpt lat="44.75902" lon="-0.32237">
        <ele>107</ele>
        <time>2012-06-30T12:33:55Z</time>
      </trkpt>
      <trkpt lat="44.75898" lon="-0.3225">
        <ele>107</ele>
        <time>2012-06-30T12:33:57Z</time>
      </trkpt>
      <trkpt lat="44.75893" lon="-0.32261">
        <ele>107</ele>
        <time>2012-06-30T12:33:59Z</time>
      </trkpt>
      <trkpt lat="44.75888" lon="-0.32275">
        <ele>107</ele>
        <time>2012-06-30T12:34:01Z</time>
      </trkpt>
      <trkpt lat="44.75883" lon="-0.32287">
        <ele>106</ele>
        <time>2012-06-30T12:34:03Z</time>
      </trkpt>
      <trkpt lat="44.75879" lon="-0.32301">
        <ele>106</ele>
        <time>2012-06-30T12:34:05Z</time>
      </trkpt>
      <trkpt lat="44.75875" lon="-0.32315">
        <ele>106</ele>
        <time>2012-06-30T12:34:07Z</time>
      </trkpt>
      <trkpt lat="44.75873" lon="-0.32329">
        <ele>106</ele>
        <time>2012-06-30T12:34:09Z</time>
      </trkpt>
      <trkpt lat="44.7587" lon="-0.32343">
        <ele>105</ele>
        <time>2012-06-30T12:34:11Z</time>
      </trkpt>
      <trkpt lat="44.75867" lon="-0.32358">
        <ele>105</ele>
        <time>2012-06-30T12:34:13Z</time>
      </trkpt>
      <trkpt lat="44.75864" lon="-0.32373">
        <ele>104</ele>
        <time>2012-06-30T12:34:15Z</time>
      </trkpt>
      <trkpt lat="44.75861" lon="-0.32387">
        <ele>105</ele>
        <time>2012-06-30T12:34:17Z</time>
      </trkpt>
      <trkpt lat="44.75859" lon="-0.324">
        <ele>105</ele>
        <time>2012-06-30T12:34:19Z</time>
      </trkpt>
      <trkpt lat="44.75857" lon="-0.32415">
        <ele>105</ele>
        <time>2012-06-30T12:34:21Z</time>
      </trkpt>
      <trkpt lat="44.75854" lon="-0.32429">
        <ele>105</ele>
        <time>2012-06-30T12:34:23Z</time>
      </trkpt>
      <trkpt lat="44.75851" lon="-0.32444">
        <ele>105</ele>
        <time>2012-06-30T12:34:25Z</time>
      </trkpt>
      <trkpt lat="44.75848" lon="-0.32459">
        <ele>105</ele>
        <time>2012-06-30T12:34:27Z</time>
      </trkpt>
      <trkpt lat="44.75845" lon="-0.32473">
        <ele>105</ele>
        <time>2012-06-30T12:34:29Z</time>
      </trkpt>
      <trkpt lat="44.75841" lon="-0.32488">
        <ele>105</ele>
        <time>2012-06-30T12:34:31Z</time>
      </trkpt>
      <trkpt lat="44.75838" lon="-0.32501">
        <ele>104</ele>
        <time>2012-06-30T12:34:33Z</time>
      </trkpt>
      <trkpt lat="44.75834" lon="-0.32515">
        <ele>104</ele>
        <time>2012-06-30T12:34:35Z</time>
      </trkpt>
      <trkpt lat="44.7583" lon="-0.32529">
        <ele>104</ele>
        <time>2012-06-30T12:34:37Z</time>
      </trkpt>
      <trkpt lat="44.75825" lon="-0.32542">
        <ele>104</ele>
        <time>2012-06-30T12:34:39Z</time>
      </trkpt>
      <trkpt lat="44.7582" lon="-0.32557">
        <ele>104</ele>
        <time>2012-06-30T12:34:41Z</time>
      </trkpt>
      <trkpt lat="44.75816" lon="-0.3257">
        <ele>103</ele>
        <time>2012-06-30T12:34:43Z</time>
      </trkpt>
      <trkpt lat="44.75811" lon="-0.32584">
        <ele>103</ele>
        <time>2012-06-30T12:34:45Z</time>
      </trkpt>
      <trkpt lat="44.75806" lon="-0.32597">
        <ele>103</ele>
        <time>2012-06-30T12:34:47Z</time>
      </trkpt>
      <trkpt lat="44.75802" lon="-0.3261">
        <ele>102</ele>
        <time>2012-06-30T12:34:49Z</time>
      </trkpt>
      <trkpt lat="44.75797" lon="-0.32623">
        <ele>102</ele>
        <time>2012-06-30T12:34:51Z</time>
      </trkpt>
      <trkpt lat="44.75793" lon="-0.32637">
        <ele>101</ele>
        <time>2012-06-30T12:34:53Z</time>
      </trkpt>
      <trkpt lat="44.75788" lon="-0.3265">
        <ele>101</ele>
        <time>2012-06-30T12:34:55Z</time>
      </trkpt>
      <trkpt lat="44.75784" lon="-0.32663">
        <ele>101</ele>
        <time>2012-06-30T12:34:57Z</time>
      </trkpt>
      <trkpt lat="44.75779" lon="-0.32675">
        <ele>101</ele>
        <time>2012-06-30T12:34:59Z</time>
      </trkpt>
      <trkpt lat="44.75774" lon="-0.32693">
        <ele>101</ele>
        <time>2012-06-30T12:35:02Z</time>
      </trkpt>
      <trkpt lat="44.75769" lon="-0.32706">
        <ele>101</ele>
        <time>2012-06-30T12:35:04Z</time>
      </trkpt>
      <trkpt lat="44.75765" lon="-0.32718">
        <ele>102</ele>
        <time>2012-06-30T12:35:06Z</time>
      </trkpt>
      <trkpt lat="44.75758" lon="-0.32736">
        <ele>102</ele>
        <time>2012-06-30T12:35:09Z</time>
      </trkpt>
      <trkpt lat="44.75754" lon="-0.32748">
        <ele>102</ele>
        <time>2012-06-30T12:35:11Z</time>
      </trkpt>
      <trkpt lat="44.75745" lon="-0.32764">
        <ele>103</ele>
        <time>2012-06-30T12:35:14Z</time>
      </trkpt>
      <trkpt lat="44.75736" lon="-0.32779">
        <ele>104</ele>
        <time>2012-06-30T12:35:17Z</time>
      </trkpt>
      <trkpt lat="44.75726" lon="-0.32791">
        <ele>104</ele>
        <time>2012-06-30T12:35:20Z</time>
      </trkpt>
      <trkpt lat="44.75717" lon="-0.32798">
        <ele>105</ele>
        <time>2012-06-30T12:35:22Z</time>
      </trkpt>
      <trkpt lat="44.75705" lon="-0.32808">
        <ele>105</ele>
        <time>2012-06-30T12:35:25Z</time>
      </trkpt>
      <trkpt lat="44.75693" lon="-0.32817">
        <ele>106</ele>
        <time>2012-06-30T12:35:28Z</time>
      </trkpt>
      <trkpt lat="44.75682" lon="-0.32826">
        <ele>106</ele>
        <time>2012-06-30T12:35:31Z</time>
      </trkpt>
      <trkpt lat="44.75671" lon="-0.32828">
        <ele>107</ele>
        <time>2012-06-30T12:35:34Z</time>
      </trkpt>
      <trkpt lat="44.75661" lon="-0.32819">
        <ele>107</ele>
        <time>2012-06-30T12:35:37Z</time>
      </trkpt>
      <trkpt lat="44.75653" lon="-0.32808">
        <ele>107</ele>
        <time>2012-06-30T12:35:40Z</time>
      </trkpt>
      <trkpt lat="44.75642" lon="-0.32798">
        <ele>107</ele>
        <time>2012-06-30T12:35:44Z</time>
      </trkpt>
      <trkpt lat="44.75634" lon="-0.32789">
        <ele>107</ele>
        <time>2012-06-30T12:35:47Z</time>
      </trkpt>
      <trkpt lat="44.75625" lon="-0.32779">
        <ele>107</ele>
        <time>2012-06-30T12:35:50Z</time>
      </trkpt>
      <trkpt lat="44.75616" lon="-0.32769">
        <ele>107</ele>
        <time>2012-06-30T12:35:53Z</time>
      </trkpt>
      <trkpt lat="44.75606" lon="-0.32759">
        <ele>107</ele>
        <time>2012-06-30T12:35:56Z</time>
      </trkpt>
      <trkpt lat="44.75596" lon="-0.3275">
        <ele>107</ele>
        <time>2012-06-30T12:35:59Z</time>
      </trkpt>
      <trkpt lat="44.75587" lon="-0.32741">
        <ele>107</ele>
        <time>2012-06-30T12:36:02Z</time>
      </trkpt>
      <trkpt lat="44.75577" lon="-0.32731">
        <ele>107</ele>
        <time>2012-06-30T12:36:05Z</time>
      </trkpt>
      <trkpt lat="44.75566" lon="-0.32722">
        <ele>107</ele>
        <time>2012-06-30T12:36:08Z</time>
      </trkpt>
      <trkpt lat="44.75554" lon="-0.32711">
        <ele>107</ele>
        <time>2012-06-30T12:36:11Z</time>
      </trkpt>
      <trkpt lat="44.75546" lon="-0.32703">
        <ele>106</ele>
        <time>2012-06-30T12:36:13Z</time>
      </trkpt>
      <trkpt lat="44.75538" lon="-0.32696">
        <ele>106</ele>
        <time>2012-06-30T12:36:15Z</time>
      </trkpt>
      <trkpt lat="44.75528" lon="-0.32688">
        <ele>106</ele>
        <time>2012-06-30T12:36:17Z</time>
      </trkpt>
      <trkpt lat="44.75518" lon="-0.32681">
        <ele>106</ele>
        <time>2012-06-30T12:36:19Z</time>
      </trkpt>
      <trkpt lat="44.75508" lon="-0.32671">
        <ele>105</ele>
        <time>2012-06-30T12:36:21Z</time>
      </trkpt>
      <trkpt lat="44.75498" lon="-0.32663">
        <ele>105</ele>
        <time>2012-06-30T12:36:23Z</time>
      </trkpt>
      <trkpt lat="44.75489" lon="-0.32654">
        <ele>104</ele>
        <time>2012-06-30T12:36:25Z</time>
      </trkpt>
      <trkpt lat="44.75481" lon="-0.32647">
        <ele>104</ele>
        <time>2012-06-30T12:36:27Z</time>
      </trkpt>
      <trkpt lat="44.75473" lon="-0.32639">
        <ele>103</ele>
        <time>2012-06-30T12:36:29Z</time>
      </trkpt>
      <trkpt lat="44.75464" lon="-0.32631">
        <ele>103</ele>
        <time>2012-06-30T12:36:31Z</time>
      </trkpt>
      <trkpt lat="44.75455" lon="-0.32624">
        <ele>102</ele>
        <time>2012-06-30T12:36:33Z</time>
      </trkpt>
      <trkpt lat="44.75444" lon="-0.32616">
        <ele>102</ele>
        <time>2012-06-30T12:36:35Z</time>
      </trkpt>
      <trkpt lat="44.75435" lon="-0.3261">
        <ele>102</ele>
        <time>2012-06-30T12:36:37Z</time>
      </trkpt>
      <trkpt lat="44.75423" lon="-0.32599">
        <ele>102</ele>
        <time>2012-06-30T12:36:40Z</time>
      </trkpt>
      <trkpt lat="44.75416" lon="-0.3259">
        <ele>102</ele>
        <time>2012-06-30T12:36:43Z</time>
      </trkpt>
      <trkpt lat="44.75407" lon="-0.32581">
        <ele>102</ele>
        <time>2012-06-30T12:36:46Z</time>
      </trkpt>
      <trkpt lat="44.75399" lon="-0.32574">
        <ele>102</ele>
        <time>2012-06-30T12:36:48Z</time>
      </trkpt>
      <trkpt lat="44.7539" lon="-0.32561">
        <ele>102</ele>
        <time>2012-06-30T12:36:51Z</time>
      </trkpt>
      <trkpt lat="44.75381" lon="-0.32552">
        <ele>103</ele>
        <time>2012-06-30T12:36:53Z</time>
      </trkpt>
      <trkpt lat="44.7537" lon="-0.32541">
        <ele>103</ele>
        <time>2012-06-30T12:36:56Z</time>
      </trkpt>
      <trkpt lat="44.7536" lon="-0.32531">
        <ele>103</ele>
        <time>2012-06-30T12:36:59Z</time>
      </trkpt>
      <trkpt lat="44.75351" lon="-0.3252">
        <ele>104</ele>
        <time>2012-06-30T12:37:02Z</time>
      </trkpt>
      <trkpt lat="44.75339" lon="-0.3251">
        <ele>104</ele>
        <time>2012-06-30T12:37:05Z</time>
      </trkpt>
      <trkpt lat="44.75331" lon="-0.32502">
        <ele>104</ele>
        <time>2012-06-30T12:37:07Z</time>
      </trkpt>
      <trkpt lat="44.75319" lon="-0.32493">
        <ele>105</ele>
        <time>2012-06-30T12:37:10Z</time>
      </trkpt>
      <trkpt lat="44.75308" lon="-0.32483">
        <ele>105</ele>
        <time>2012-06-30T12:37:13Z</time>
      </trkpt>
      <trkpt lat="44.75297" lon="-0.32473">
        <ele>105</ele>
        <time>2012-06-30T12:37:16Z</time>
      </trkpt>
      <trkpt lat="44.75288" lon="-0.32468">
        <ele>105</ele>
        <time>2012-06-30T12:37:18Z</time>
      </trkpt>
      <trkpt lat="44.75276" lon="-0.32458">
        <ele>105</ele>
        <time>2012-06-30T12:37:21Z</time>
      </trkpt>
      <trkpt lat="44.75264" lon="-0.32447">
        <ele>105</ele>
        <time>2012-06-30T12:37:24Z</time>
      </trkpt>
      <trkpt lat="44.75256" lon="-0.3244">
        <ele>105</ele>
        <time>2012-06-30T12:37:26Z</time>
      </trkpt>
      <trkpt lat="44.75247" lon="-0.32432">
        <ele>105</ele>
        <time>2012-06-30T12:37:28Z</time>
      </trkpt>
      <trkpt lat="44.75239" lon="-0.32423">
        <ele>105</ele>
        <time>2012-06-30T12:37:30Z</time>
      </trkpt>
      <trkpt lat="44.7523" lon="-0.32416">
        <ele>105</ele>
        <time>2012-06-30T12:37:32Z</time>
      </trkpt>
      <trkpt lat="44.7522" lon="-0.32409">
        <ele>105</ele>
        <time>2012-06-30T12:37:34Z</time>
      </trkpt>
      <trkpt lat="44.7521" lon="-0.32403">
        <ele>105</ele>
        <time>2012-06-30T12:37:36Z</time>
      </trkpt>
      <trkpt lat="44.752" lon="-0.32396">
        <ele>105</ele>
        <time>2012-06-30T12:37:38Z</time>
      </trkpt>
      <trkpt lat="44.7519" lon="-0.32389">
        <ele>104</ele>
        <time>2012-06-30T12:37:40Z</time>
      </trkpt>
      <trkpt lat="44.7518" lon="-0.32381">
        <ele>104</ele>
        <time>2012-06-30T12:37:42Z</time>
      </trkpt>
      <trkpt lat="44.75171" lon="-0.32374">
        <ele>104</ele>
        <time>2012-06-30T12:37:44Z</time>
      </trkpt>
      <trkpt lat="44.75161" lon="-0.32366">
        <ele>104</ele>
        <time>2012-06-30T12:37:46Z</time>
      </trkpt>
      <trkpt lat="44.75151" lon="-0.32359">
        <ele>103</ele>
        <time>2012-06-30T12:37:48Z</time>
      </trkpt>
      <trkpt lat="44.75142" lon="-0.32352">
        <ele>103</ele>
        <time>2012-06-30T12:37:50Z</time>
      </trkpt>
      <trkpt lat="44.75132" lon="-0.32346">
        <ele>103</ele>
        <time>2012-06-30T12:37:52Z</time>
      </trkpt>
      <trkpt lat="44.75123" lon="-0.32339">
        <ele>103</ele>
        <time>2012-06-30T12:37:54Z</time>
      </trkpt>
      <trkpt lat="44.75114" lon="-0.32332">
        <ele>103</ele>
        <time>2012-06-30T12:37:56Z</time>
      </trkpt>
      <trkpt lat="44.75105" lon="-0.32326">
        <ele>103</ele>
        <time>2012-06-30T12:37:58Z</time>
      </trkpt>
      <trkpt lat="44.75097" lon="-0.32319">
        <ele>102</ele>
        <time>2012-06-30T12:38:00Z</time>
      </trkpt>
      <trkpt lat="44.75089" lon="-0.32312">
        <ele>102</ele>
        <time>2012-06-30T12:38:02Z</time>
      </trkpt>
      <trkpt lat="44.75077" lon="-0.32302">
        <ele>102</ele>
        <time>2012-06-30T12:38:05Z</time>
      </trkpt>
      <trkpt lat="44.75068" lon="-0.32294">
        <ele>101</ele>
        <time>2012-06-30T12:38:07Z</time>
      </trkpt>
      <trkpt lat="44.75059" lon="-0.32288">
        <ele>101</ele>
        <time>2012-06-30T12:38:09Z</time>
      </trkpt>
      <trkpt lat="44.7505" lon="-0.32281">
        <ele>101</ele>
        <time>2012-06-30T12:38:11Z</time>
      </trkpt>
      <trkpt lat="44.75041" lon="-0.32274">
        <ele>101</ele>
        <time>2012-06-30T12:38:13Z</time>
      </trkpt>
      <trkpt lat="44.7503" lon="-0.32267">
        <ele>101</ele>
        <time>2012-06-30T12:38:15Z</time>
      </trkpt>
      <trkpt lat="44.7502" lon="-0.32259">
        <ele>101</ele>
        <time>2012-06-30T12:38:17Z</time>
      </trkpt>
      <trkpt lat="44.75009" lon="-0.3225">
        <ele>100</ele>
        <time>2012-06-30T12:38:20Z</time>
      </trkpt>
      <trkpt lat="44.75" lon="-0.32242">
        <ele>100</ele>
        <time>2012-06-30T12:38:22Z</time>
      </trkpt>
      <trkpt lat="44.74991" lon="-0.32234">
        <ele>100</ele>
        <time>2012-06-30T12:38:24Z</time>
      </trkpt>
      <trkpt lat="44.74981" lon="-0.32226">
        <ele>99</ele>
        <time>2012-06-30T12:38:26Z</time>
      </trkpt>
      <trkpt lat="44.74971" lon="-0.32218">
        <ele>99</ele>
        <time>2012-06-30T12:38:28Z</time>
      </trkpt>
      <trkpt lat="44.74962" lon="-0.32211">
        <ele>99</ele>
        <time>2012-06-30T12:38:30Z</time>
      </trkpt>
      <trkpt lat="44.74953" lon="-0.32205">
        <ele>99</ele>
        <time>2012-06-30T12:38:32Z</time>
      </trkpt>
      <trkpt lat="44.74945" lon="-0.32198">
        <ele>98</ele>
        <time>2012-06-30T12:38:34Z</time>
      </trkpt>
      <trkpt lat="44.74936" lon="-0.32192">
        <ele>98</ele>
        <time>2012-06-30T12:38:36Z</time>
      </trkpt>
      <trkpt lat="44.74927" lon="-0.32184">
        <ele>97</ele>
        <time>2012-06-30T12:38:38Z</time>
      </trkpt>
      <trkpt lat="44.74919" lon="-0.32176">
        <ele>97</ele>
        <time>2012-06-30T12:38:40Z</time>
      </trkpt>
      <trkpt lat="44.74909" lon="-0.32168">
        <ele>96</ele>
        <time>2012-06-30T12:38:42Z</time>
      </trkpt>
      <trkpt lat="44.74899" lon="-0.3216">
        <ele>96</ele>
        <time>2012-06-30T12:38:44Z</time>
      </trkpt>
      <trkpt lat="44.74888" lon="-0.32152">
        <ele>95</ele>
        <time>2012-06-30T12:38:46Z</time>
      </trkpt>
      <trkpt lat="44.74879" lon="-0.32144">
        <ele>95</ele>
        <time>2012-06-30T12:38:48Z</time>
      </trkpt>
      <trkpt lat="44.74869" lon="-0.32136">
        <ele>95</ele>
        <time>2012-06-30T12:38:50Z</time>
      </trkpt>
      <trkpt lat="44.7486" lon="-0.32129">
        <ele>94</ele>
        <time>2012-06-30T12:38:52Z</time>
      </trkpt>
      <trkpt lat="44.74851" lon="-0.32123">
        <ele>92</ele>
        <time>2012-06-30T12:38:54Z</time>
      </trkpt>
      <trkpt lat="44.7484" lon="-0.32115">
        <ele>91</ele>
        <time>2012-06-30T12:38:57Z</time>
      </trkpt>
      <trkpt lat="44.74828" lon="-0.32105">
        <ele>89</ele>
        <time>2012-06-30T12:39:00Z</time>
      </trkpt>
      <trkpt lat="44.74817" lon="-0.32096">
        <ele>88</ele>
        <time>2012-06-30T12:39:02Z</time>
      </trkpt>
      <trkpt lat="44.74808" lon="-0.32091">
        <ele>86</ele>
        <time>2012-06-30T12:39:04Z</time>
      </trkpt>
      <trkpt lat="44.74799" lon="-0.32078">
        <ele>84</ele>
        <time>2012-06-30T12:39:06Z</time>
      </trkpt>
      <trkpt lat="44.74788" lon="-0.32062">
        <ele>82</ele>
        <time>2012-06-30T12:39:08Z</time>
      </trkpt>
      <trkpt lat="44.74779" lon="-0.32047">
        <ele>80</ele>
        <time>2012-06-30T12:39:10Z</time>
      </trkpt>
      <trkpt lat="44.74769" lon="-0.32031">
        <ele>77</ele>
        <time>2012-06-30T12:39:12Z</time>
      </trkpt>
      <trkpt lat="44.74762" lon="-0.3202">
        <ele>76</ele>
        <time>2012-06-30T12:39:14Z</time>
      </trkpt>
      <trkpt lat="44.74754" lon="-0.32011">
        <ele>74</ele>
        <time>2012-06-30T12:39:16Z</time>
      </trkpt>
      <trkpt lat="44.74745" lon="-0.32003">
        <ele>73</ele>
        <time>2012-06-30T12:39:18Z</time>
      </trkpt>
      <trkpt lat="44.74734" lon="-0.31994">
        <ele>71</ele>
        <time>2012-06-30T12:39:20Z</time>
      </trkpt>
      <trkpt lat="44.74725" lon="-0.31988">
        <ele>70</ele>
        <time>2012-06-30T12:39:22Z</time>
      </trkpt>
      <trkpt lat="44.74713" lon="-0.31985">
        <ele>68</ele>
        <time>2012-06-30T12:39:24Z</time>
      </trkpt>
      <trkpt lat="44.74701" lon="-0.31984">
        <ele>67</ele>
        <time>2012-06-30T12:39:26Z</time>
      </trkpt>
      <trkpt lat="44.74687" lon="-0.31984">
        <ele>66</ele>
        <time>2012-06-30T12:39:28Z</time>
      </trkpt>
      <trkpt lat="44.74676" lon="-0.31983">
        <ele>66</ele>
        <time>2012-06-30T12:39:30Z</time>
      </trkpt>
      <trkpt lat="44.74664" lon="-0.31982">
        <ele>66</ele>
        <time>2012-06-30T12:39:32Z</time>
      </trkpt>
      <trkpt lat="44.74649" lon="-0.31982">
        <ele>66</ele>
        <time>2012-06-30T12:39:34Z</time>
      </trkpt>
      <trkpt lat="44.74636" lon="-0.31982">
        <ele>66</ele>
        <time>2012-06-30T12:39:36Z</time>
      </trkpt>
      <trkpt lat="44.74627" lon="-0.31982">
        <ele>66</ele>
        <time>2012-06-30T12:39:38Z</time>
      </trkpt>
      <trkpt lat="44.74618" lon="-0.31985">
        <ele>66</ele>
        <time>2012-06-30T12:39:45Z</time>
      </trkpt>
      <trkpt lat="44.74608" lon="-0.31982">
        <ele>67</ele>
        <time>2012-06-30T12:39:55Z</time>
      </trkpt>
      <trkpt lat="44.74597" lon="-0.31988">
        <ele>67</ele>
        <time>2012-06-30T12:40:19Z</time>
      </trkpt>
      <trkpt lat="44.7459" lon="-0.31999">
        <ele>67</ele>
        <time>2012-06-30T12:40:22Z</time>
      </trkpt>
      <trkpt lat="44.74584" lon="-0.32009">
        <ele>68</ele>
        <time>2012-06-30T12:40:24Z</time>
      </trkpt>
      <trkpt lat="44.74578" lon="-0.32022">
        <ele>67</ele>
        <time>2012-06-30T12:40:26Z</time>
      </trkpt>
      <trkpt lat="44.74573" lon="-0.32038">
        <ele>67</ele>
        <time>2012-06-30T12:40:28Z</time>
      </trkpt>
      <trkpt lat="44.74569" lon="-0.32055">
        <ele>66</ele>
        <time>2012-06-30T12:40:30Z</time>
      </trkpt>
      <trkpt lat="44.74568" lon="-0.32071">
        <ele>66</ele>
        <time>2012-06-30T12:40:32Z</time>
      </trkpt>
      <trkpt lat="44.74571" lon="-0.32087">
        <ele>65</ele>
        <time>2012-06-30T12:40:34Z</time>
      </trkpt>
      <trkpt lat="44.74575" lon="-0.32102">
        <ele>64</ele>
        <time>2012-06-30T12:40:36Z</time>
      </trkpt>
      <trkpt lat="44.7458" lon="-0.32117">
        <ele>64</ele>
        <time>2012-06-30T12:40:38Z</time>
      </trkpt>
      <trkpt lat="44.74584" lon="-0.3213">
        <ele>64</ele>
        <time>2012-06-30T12:40:40Z</time>
      </trkpt>
      <trkpt lat="44.74591" lon="-0.32144">
        <ele>65</ele>
        <time>2012-06-30T12:40:43Z</time>
      </trkpt>
      <trkpt lat="44.74582" lon="-0.32135">
        <ele>64</ele>
        <time>2012-06-30T12:40:50Z</time>
      </trkpt>
      <trkpt lat="44.74578" lon="-0.32123">
        <ele>64</ele>
        <time>2012-06-30T12:40:54Z</time>
      </trkpt>
      <trkpt lat="44.74575" lon="-0.32109">
        <ele>64</ele>
        <time>2012-06-30T12:40:58Z</time>
      </trkpt>
      <trkpt lat="44.74571" lon="-0.32096">
        <ele>64</ele>
        <time>2012-06-30T12:41:01Z</time>
      </trkpt>
      <trkpt lat="44.74568" lon="-0.32082">
        <ele>65</ele>
        <time>2012-06-30T12:41:04Z</time>
      </trkpt>
      <trkpt lat="44.74557" lon="-0.32089">
        <ele>65</ele>
        <time>2012-06-30T12:41:14Z</time>
      </trkpt>
      <trkpt lat="44.74552" lon="-0.32101">
        <ele>64</ele>
        <time>2012-06-30T12:41:17Z</time>
      </trkpt>
      <trkpt lat="44.74543" lon="-0.32112">
        <ele>64</ele>
        <time>2012-06-30T12:41:20Z</time>
      </trkpt>
      <trkpt lat="44.74534" lon="-0.32122">
        <ele>64</ele>
        <time>2012-06-30T12:41:23Z</time>
      </trkpt>
      <trkpt lat="44.74524" lon="-0.3213">
        <ele>64</ele>
        <time>2012-06-30T12:41:27Z</time>
      </trkpt>
      <trkpt lat="44.74516" lon="-0.32138">
        <ele>64</ele>
        <time>2012-06-30T12:41:30Z</time>
      </trkpt>
      <trkpt lat="44.74509" lon="-0.32149">
        <ele>63</ele>
        <time>2012-06-30T12:41:33Z</time>
      </trkpt>
      <trkpt lat="44.74502" lon="-0.32158">
        <ele>63</ele>
        <time>2012-06-30T12:41:36Z</time>
      </trkpt>
      <trkpt lat="44.74493" lon="-0.32163">
        <ele>63</ele>
        <time>2012-06-30T12:41:40Z</time>
      </trkpt>
      <trkpt lat="44.74482" lon="-0.32166">
        <ele>63</ele>
        <time>2012-06-30T12:41:43Z</time>
      </trkpt>
      <trkpt lat="44.74471" lon="-0.32167">
        <ele>64</ele>
        <time>2012-06-30T12:41:46Z</time>
      </trkpt>
      <trkpt lat="44.74459" lon="-0.32169">
        <ele>64</ele>
        <time>2012-06-30T12:41:51Z</time>
      </trkpt>
      <trkpt lat="44.74447" lon="-0.32168">
        <ele>65</ele>
        <time>2012-06-30T12:41:55Z</time>
      </trkpt>
      <trkpt lat="44.74436" lon="-0.32165">
        <ele>66</ele>
        <time>2012-06-30T12:41:58Z</time>
      </trkpt>
      <trkpt lat="44.74427" lon="-0.32158">
        <ele>66</ele>
        <time>2012-06-30T12:42:01Z</time>
      </trkpt>
      <trkpt lat="44.74421" lon="-0.32147">
        <ele>66</ele>
        <time>2012-06-30T12:42:05Z</time>
      </trkpt>
      <trkpt lat="44.74421" lon="-0.32134">
        <ele>67</ele>
        <time>2012-06-30T12:42:09Z</time>
      </trkpt>
      <trkpt lat="44.74418" lon="-0.3212">
        <ele>67</ele>
        <time>2012-06-30T12:42:12Z</time>
      </trkpt>
      <trkpt lat="44.74417" lon="-0.32103">
        <ele>67</ele>
        <time>2012-06-30T12:42:16Z</time>
      </trkpt>
      <trkpt lat="44.74415" lon="-0.32088">
        <ele>68</ele>
        <time>2012-06-30T12:42:20Z</time>
      </trkpt>
      <trkpt lat="44.74406" lon="-0.32077">
        <ele>69</ele>
        <time>2012-06-30T12:42:24Z</time>
      </trkpt>
      <trkpt lat="44.74396" lon="-0.32082">
        <ele>69</ele>
        <time>2012-06-30T12:42:28Z</time>
      </trkpt>
      <trkpt lat="44.74386" lon="-0.32091">
        <ele>69</ele>
        <time>2012-06-30T12:42:32Z</time>
      </trkpt>
      <trkpt lat="44.74379" lon="-0.321">
        <ele>68</ele>
        <time>2012-06-30T12:42:36Z</time>
      </trkpt>
      <trkpt lat="44.7437" lon="-0.32111">
        <ele>68</ele>
        <time>2012-06-30T12:42:41Z</time>
      </trkpt>
      <trkpt lat="44.7436" lon="-0.32118">
        <ele>68</ele>
        <time>2012-06-30T12:42:46Z</time>
      </trkpt>
      <trkpt lat="44.74351" lon="-0.32123">
        <ele>68</ele>
        <time>2012-06-30T12:42:49Z</time>
      </trkpt>
      <trkpt lat="44.74338" lon="-0.3213">
        <ele>68</ele>
        <time>2012-06-30T12:42:52Z</time>
      </trkpt>
      <trkpt lat="44.74329" lon="-0.32137">
        <ele>67</ele>
        <time>2012-06-30T12:42:54Z</time>
      </trkpt>
      <trkpt lat="44.74319" lon="-0.32144">
        <ele>67</ele>
        <time>2012-06-30T12:42:57Z</time>
      </trkpt>
      <trkpt lat="44.7431" lon="-0.32142">
        <ele>67</ele>
        <time>2012-06-30T12:43:03Z</time>
      </trkpt>
      <trkpt lat="44.74307" lon="-0.32126">
        <ele>69</ele>
        <time>2012-06-30T12:43:09Z</time>
      </trkpt>
      <trkpt lat="44.74301" lon="-0.32113">
        <ele>70</ele>
        <time>2012-06-30T12:43:15Z</time>
      </trkpt>
      <trkpt lat="44.74297" lon="-0.321">
        <ele>71</ele>
        <time>2012-06-30T12:43:20Z</time>
      </trkpt>
      <trkpt lat="44.74293" lon="-0.32089">
        <ele>73</ele>
        <time>2012-06-30T12:43:25Z</time>
      </trkpt>
      <trkpt lat="44.74289" lon="-0.32074">
        <ele>74</ele>
        <time>2012-06-30T12:43:31Z</time>
      </trkpt>
      <trkpt lat="44.74283" lon="-0.32063">
        <ele>76</ele>
        <time>2012-06-30T12:43:37Z</time>
      </trkpt>
      <trkpt lat="44.74278" lon="-0.32049">
        <ele>78</ele>
        <time>2012-06-30T12:43:44Z</time>
      </trkpt>
      <trkpt lat="44.74274" lon="-0.32036">
        <ele>79</ele>
        <time>2012-06-30T12:43:52Z</time>
      </trkpt>
      <trkpt lat="44.74271" lon="-0.32022">
        <ele>81</ele>
        <time>2012-06-30T12:43:59Z</time>
      </trkpt>
      <trkpt lat="44.74267" lon="-0.32011">
        <ele>83</ele>
        <time>2012-06-30T12:44:06Z</time>
      </trkpt>
      <trkpt lat="44.74262" lon="-0.31998">
        <ele>85</ele>
        <time>2012-06-30T12:44:15Z</time>
      </trkpt>
      <trkpt lat="44.74256" lon="-0.31986">
        <ele>87</ele>
        <time>2012-06-30T12:44:24Z</time>
      </trkpt>
      <trkpt lat="44.74251" lon="-0.31975">
        <ele>89</ele>
        <time>2012-06-30T12:44:37Z</time>
      </trkpt>
      <trkpt lat="44.74246" lon="-0.31963">
        <ele>90</ele>
        <time>2012-06-30T12:44:53Z</time>
      </trkpt>
      <trkpt lat="44.74242" lon="-0.3195">
        <ele>92</ele>
        <time>2012-06-30T12:45:06Z</time>
      </trkpt>
      <trkpt lat="44.74237" lon="-0.31938">
        <ele>93</ele>
        <time>2012-06-30T12:45:26Z</time>
      </trkpt>
      <trkpt lat="44.74233" lon="-0.31925">
        <ele>94</ele>
        <time>2012-06-30T12:45:34Z</time>
      </trkpt>
      <trkpt lat="44.74228" lon="-0.31914">
        <ele>95</ele>
        <time>2012-06-30T12:45:42Z</time>
      </trkpt>
      <trkpt lat="44.74224" lon="-0.31901">
        <ele>95</ele>
        <time>2012-06-30T12:45:51Z</time>
      </trkpt>
      <trkpt lat="44.7422" lon="-0.31888">
        <ele>95</ele>
        <time>2012-06-30T12:46:01Z</time>
      </trkpt>
      <trkpt lat="44.74217" lon="-0.31876">
        <ele>95</ele>
        <time>2012-06-30T12:46:09Z</time>
      </trkpt>
      <trkpt lat="44.74214" lon="-0.31862">
        <ele>96</ele>
        <time>2012-06-30T12:46:15Z</time>
      </trkpt>
      <trkpt lat="44.74213" lon="-0.31848">
        <ele>96</ele>
        <time>2012-06-30T12:46:21Z</time>
      </trkpt>
      <trkpt lat="44.7421" lon="-0.31835">
        <ele>96</ele>
        <time>2012-06-30T12:46:26Z</time>
      </trkpt>
      <trkpt lat="44.74208" lon="-0.31821">
        <ele>97</ele>
        <time>2012-06-30T12:46:31Z</time>
      </trkpt>
      <trkpt lat="44.74205" lon="-0.31806">
        <ele>97</ele>
        <time>2012-06-30T12:46:36Z</time>
      </trkpt>
      <trkpt lat="44.74203" lon="-0.31791">
        <ele>98</ele>
        <time>2012-06-30T12:46:41Z</time>
      </trkpt>
      <trkpt lat="44.742" lon="-0.31778">
        <ele>98</ele>
        <time>2012-06-30T12:46:45Z</time>
      </trkpt>
      <trkpt lat="44.74198" lon="-0.31762">
        <ele>98</ele>
        <time>2012-06-30T12:46:50Z</time>
      </trkpt>
      <trkpt lat="44.74195" lon="-0.31746">
        <ele>99</ele>
        <time>2012-06-30T12:46:55Z</time>
      </trkpt>
      <trkpt lat="44.74192" lon="-0.31732">
        <ele>99</ele>
        <time>2012-06-30T12:47:00Z</time>
      </trkpt>
      <trkpt lat="44.74191" lon="-0.31717">
        <ele>100</ele>
        <time>2012-06-30T12:47:09Z</time>
      </trkpt>
      <trkpt lat="44.74193" lon="-0.31704">
        <ele>101</ele>
        <time>2012-06-30T12:47:13Z</time>
      </trkpt>
      <trkpt lat="44.74196" lon="-0.31691">
        <ele>102</ele>
        <time>2012-06-30T12:47:18Z</time>
      </trkpt>
      <trkpt lat="44.74194" lon="-0.31675">
        <ele>103</ele>
        <time>2012-06-30T12:47:23Z</time>
      </trkpt>
      <trkpt lat="44.74192" lon="-0.31659">
        <ele>103</ele>
        <time>2012-06-30T12:47:28Z</time>
      </trkpt>
      <trkpt lat="44.74191" lon="-0.31646">
        <ele>104</ele>
        <time>2012-06-30T12:47:32Z</time>
      </trkpt>
      <trkpt lat="44.74189" lon="-0.31632">
        <ele>104</ele>
        <time>2012-06-30T12:47:36Z</time>
      </trkpt>
      <trkpt lat="44.74187" lon="-0.31619">
        <ele>105</ele>
        <time>2012-06-30T12:47:40Z</time>
      </trkpt>
      <trkpt lat="44.74187" lon="-0.31603">
        <ele>105</ele>
        <time>2012-06-30T12:47:45Z</time>
      </trkpt>
      <trkpt lat="44.74185" lon="-0.31587">
        <ele>106</ele>
        <time>2012-06-30T12:47:50Z</time>
      </trkpt>
      <trkpt lat="44.74184" lon="-0.31572">
        <ele>106</ele>
        <time>2012-06-30T12:47:55Z</time>
      </trkpt>
      <trkpt lat="44.74173" lon="-0.31567">
        <ele>106</ele>
        <time>2012-06-30T12:48:02Z</time>
      </trkpt>
      <trkpt lat="44.74162" lon="-0.3157">
        <ele>105</ele>
        <time>2012-06-30T12:48:06Z</time>
      </trkpt>
      <trkpt lat="44.74151" lon="-0.31572">
        <ele>105</ele>
        <time>2012-06-30T12:48:09Z</time>
      </trkpt>
      <trkpt lat="44.74141" lon="-0.31574">
        <ele>105</ele>
        <time>2012-06-30T12:48:12Z</time>
      </trkpt>
      <trkpt lat="44.74128" lon="-0.31576">
        <ele>105</ele>
        <time>2012-06-30T12:48:15Z</time>
      </trkpt>
      <trkpt lat="44.74116" lon="-0.31579">
        <ele>105</ele>
        <time>2012-06-30T12:48:18Z</time>
      </trkpt>
      <trkpt lat="44.74103" lon="-0.3158">
        <ele>105</ele>
        <time>2012-06-30T12:48:21Z</time>
      </trkpt>
      <trkpt lat="44.74091" lon="-0.31581">
        <ele>106</ele>
        <time>2012-06-30T12:48:24Z</time>
      </trkpt>
      <trkpt lat="44.74079" lon="-0.31583">
        <ele>106</ele>
        <time>2012-06-30T12:48:27Z</time>
      </trkpt>
      <trkpt lat="44.74066" lon="-0.31585">
        <ele>106</ele>
        <time>2012-06-30T12:48:30Z</time>
      </trkpt>
      <trkpt lat="44.74053" lon="-0.31587">
        <ele>106</ele>
        <time>2012-06-30T12:48:33Z</time>
      </trkpt>
      <trkpt lat="44.7404" lon="-0.31588">
        <ele>107</ele>
        <time>2012-06-30T12:48:36Z</time>
      </trkpt>
      <trkpt lat="44.74027" lon="-0.3159">
        <ele>107</ele>
        <time>2012-06-30T12:48:39Z</time>
      </trkpt>
      <trkpt lat="44.74016" lon="-0.31592">
        <ele>107</ele>
        <time>2012-06-30T12:48:42Z</time>
      </trkpt>
      <trkpt lat="44.74004" lon="-0.31594">
        <ele>107</ele>
        <time>2012-06-30T12:48:45Z</time>
      </trkpt>
      <trkpt lat="44.73993" lon="-0.31596">
        <ele>107</ele>
        <time>2012-06-30T12:48:48Z</time>
      </trkpt>
      <trkpt lat="44.73982" lon="-0.31599">
        <ele>107</ele>
        <time>2012-06-30T12:48:51Z</time>
      </trkpt>
      <trkpt lat="44.73971" lon="-0.31604">
        <ele>106</ele>
        <time>2012-06-30T12:48:54Z</time>
      </trkpt>
      <trkpt lat="44.73959" lon="-0.31612">
        <ele>106</ele>
        <time>2012-06-30T12:48:57Z</time>
      </trkpt>
      <trkpt lat="44.73949" lon="-0.31619">
        <ele>105</ele>
        <time>2012-06-30T12:49:00Z</time>
      </trkpt>
      <trkpt lat="44.73939" lon="-0.31625">
        <ele>105</ele>
        <time>2012-06-30T12:49:02Z</time>
      </trkpt>
      <trkpt lat="44.73929" lon="-0.31631">
        <ele>104</ele>
        <time>2012-06-30T12:49:04Z</time>
      </trkpt>
      <trkpt lat="44.7392" lon="-0.31636">
        <ele>103</ele>
        <time>2012-06-30T12:49:06Z</time>
      </trkpt>
      <trkpt lat="44.73909" lon="-0.31642">
        <ele>102</ele>
        <time>2012-06-30T12:49:08Z</time>
      </trkpt>
      <trkpt lat="44.73898" lon="-0.31649">
        <ele>100</ele>
        <time>2012-06-30T12:49:10Z</time>
      </trkpt>
      <trkpt lat="44.73888" lon="-0.31655">
        <ele>99</ele>
        <time>2012-06-30T12:49:12Z</time>
      </trkpt>
      <trkpt lat="44.73877" lon="-0.31659">
        <ele>99</ele>
        <time>2012-06-30T12:49:14Z</time>
      </trkpt>
      <trkpt lat="44.73868" lon="-0.31658">
        <ele>98</ele>
        <time>2012-06-30T12:49:16Z</time>
      </trkpt>
      <trkpt lat="44.73859" lon="-0.31652">
        <ele>99</ele>
        <time>2012-06-30T12:49:18Z</time>
      </trkpt>
      <trkpt lat="44.73851" lon="-0.31644">
        <ele>99</ele>
        <time>2012-06-30T12:49:20Z</time>
      </trkpt>
      <trkpt lat="44.73843" lon="-0.31635">
        <ele>99</ele>
        <time>2012-06-30T12:49:22Z</time>
      </trkpt>
      <trkpt lat="44.73833" lon="-0.31623">
        <ele>99</ele>
        <time>2012-06-30T12:49:25Z</time>
      </trkpt>
      <trkpt lat="44.73824" lon="-0.31609">
        <ele>99</ele>
        <time>2012-06-30T12:49:28Z</time>
      </trkpt>
      <trkpt lat="44.73818" lon="-0.31598">
        <ele>98</ele>
        <time>2012-06-30T12:49:30Z</time>
      </trkpt>
      <trkpt lat="44.73813" lon="-0.31587">
        <ele>98</ele>
        <time>2012-06-30T12:49:32Z</time>
      </trkpt>
      <trkpt lat="44.73808" lon="-0.31574">
        <ele>97</ele>
        <time>2012-06-30T12:49:34Z</time>
      </trkpt>
      <trkpt lat="44.73804" lon="-0.31561">
        <ele>96</ele>
        <time>2012-06-30T12:49:36Z</time>
      </trkpt>
      <trkpt lat="44.73801" lon="-0.31545">
        <ele>94</ele>
        <time>2012-06-30T12:49:38Z</time>
      </trkpt>
      <trkpt lat="44.73797" lon="-0.31531">
        <ele>93</ele>
        <time>2012-06-30T12:49:40Z</time>
      </trkpt>
      <trkpt lat="44.73795" lon="-0.31516">
        <ele>91</ele>
        <time>2012-06-30T12:49:42Z</time>
      </trkpt>
      <trkpt lat="44.73793" lon="-0.31501">
        <ele>90</ele>
        <time>2012-06-30T12:49:44Z</time>
      </trkpt>
      <trkpt lat="44.73792" lon="-0.31487">
        <ele>88</ele>
        <time>2012-06-30T12:49:46Z</time>
      </trkpt>
      <trkpt lat="44.73791" lon="-0.31472">
        <ele>87</ele>
        <time>2012-06-30T12:49:48Z</time>
      </trkpt>
      <trkpt lat="44.7379" lon="-0.31456">
        <ele>86</ele>
        <time>2012-06-30T12:49:50Z</time>
      </trkpt>
      <trkpt lat="44.7379" lon="-0.31441">
        <ele>85</ele>
        <time>2012-06-30T12:49:52Z</time>
      </trkpt>
      <trkpt lat="44.73788" lon="-0.31424">
        <ele>84</ele>
        <time>2012-06-30T12:49:54Z</time>
      </trkpt>
      <trkpt lat="44.73788" lon="-0.31409">
        <ele>83</ele>
        <time>2012-06-30T12:49:56Z</time>
      </trkpt>
      <trkpt lat="44.73787" lon="-0.31393">
        <ele>82</ele>
        <time>2012-06-30T12:49:58Z</time>
      </trkpt>
      <trkpt lat="44.73787" lon="-0.31379">
        <ele>81</ele>
        <time>2012-06-30T12:50:00Z</time>
      </trkpt>
      <trkpt lat="44.73785" lon="-0.31362">
        <ele>80</ele>
        <time>2012-06-30T12:50:03Z</time>
      </trkpt>
      <trkpt lat="44.73778" lon="-0.31351">
        <ele>79</ele>
        <time>2012-06-30T12:50:06Z</time>
      </trkpt>
      <trkpt lat="44.73769" lon="-0.31344">
        <ele>77</ele>
        <time>2012-06-30T12:50:08Z</time>
      </trkpt>
      <trkpt lat="44.73759" lon="-0.31335">
        <ele>76</ele>
        <time>2012-06-30T12:50:10Z</time>
      </trkpt>
      <trkpt lat="44.73748" lon="-0.31326">
        <ele>74</ele>
        <time>2012-06-30T12:50:12Z</time>
      </trkpt>
      <trkpt lat="44.73737" lon="-0.31317">
        <ele>72</ele>
        <time>2012-06-30T12:50:14Z</time>
      </trkpt>
      <trkpt lat="44.73726" lon="-0.31309">
        <ele>71</ele>
        <time>2012-06-30T12:50:16Z</time>
      </trkpt>
      <trkpt lat="44.73715" lon="-0.313">
        <ele>70</ele>
        <time>2012-06-30T12:50:18Z</time>
      </trkpt>
      <trkpt lat="44.73706" lon="-0.31292">
        <ele>69</ele>
        <time>2012-06-30T12:50:20Z</time>
      </trkpt>
      <trkpt lat="44.73698" lon="-0.31284">
        <ele>68</ele>
        <time>2012-06-30T12:50:22Z</time>
      </trkpt>
      <trkpt lat="44.73693" lon="-0.31271">
        <ele>67</ele>
        <time>2012-06-30T12:50:25Z</time>
      </trkpt>
      <trkpt lat="44.73686" lon="-0.31262">
        <ele>66</ele>
        <time>2012-06-30T12:50:28Z</time>
      </trkpt>
      <trkpt lat="44.73676" lon="-0.31255">
        <ele>65</ele>
        <time>2012-06-30T12:50:32Z</time>
      </trkpt>
      <trkpt lat="44.73669" lon="-0.31247">
        <ele>64</ele>
        <time>2012-06-30T12:50:35Z</time>
      </trkpt>
      <trkpt lat="44.73666" lon="-0.31234">
        <ele>63</ele>
        <time>2012-06-30T12:50:38Z</time>
      </trkpt>
      <trkpt lat="44.73667" lon="-0.31218">
        <ele>63</ele>
        <time>2012-06-30T12:50:41Z</time>
      </trkpt>
      <trkpt lat="44.7367" lon="-0.31205">
        <ele>63</ele>
        <time>2012-06-30T12:50:44Z</time>
      </trkpt>
      <trkpt lat="44.73673" lon="-0.3119">
        <ele>62</ele>
        <time>2012-06-30T12:50:47Z</time>
      </trkpt>
      <trkpt lat="44.73674" lon="-0.31176">
        <ele>62</ele>
        <time>2012-06-30T12:50:50Z</time>
      </trkpt>
      <trkpt lat="44.73671" lon="-0.31163">
        <ele>61</ele>
        <time>2012-06-30T12:50:53Z</time>
      </trkpt>
      <trkpt lat="44.73663" lon="-0.31154">
        <ele>61</ele>
        <time>2012-06-30T12:50:56Z</time>
      </trkpt>
      <trkpt lat="44.73654" lon="-0.31146">
        <ele>60</ele>
        <time>2012-06-30T12:50:59Z</time>
      </trkpt>
      <trkpt lat="44.73644" lon="-0.31137">
        <ele>59</ele>
        <time>2012-06-30T12:51:02Z</time>
      </trkpt>
      <trkpt lat="44.73635" lon="-0.31131">
        <ele>58</ele>
        <time>2012-06-30T12:51:04Z</time>
      </trkpt>
      <trkpt lat="44.73627" lon="-0.31125">
        <ele>58</ele>
        <time>2012-06-30T12:51:06Z</time>
      </trkpt>
      <trkpt lat="44.73616" lon="-0.31116">
        <ele>59</ele>
        <time>2012-06-30T12:51:09Z</time>
      </trkpt>
      <trkpt lat="44.73606" lon="-0.31112">
        <ele>59</ele>
        <time>2012-06-30T12:51:12Z</time>
      </trkpt>
      <trkpt lat="44.73597" lon="-0.31107">
        <ele>59</ele>
        <time>2012-06-30T12:51:15Z</time>
      </trkpt>
      <trkpt lat="44.73587" lon="-0.311">
        <ele>60</ele>
        <time>2012-06-30T12:51:19Z</time>
      </trkpt>
      <trkpt lat="44.73577" lon="-0.31092">
        <ele>60</ele>
        <time>2012-06-30T12:51:23Z</time>
      </trkpt>
      <trkpt lat="44.73566" lon="-0.31083">
        <ele>61</ele>
        <time>2012-06-30T12:51:27Z</time>
      </trkpt>
      <trkpt lat="44.73556" lon="-0.31074">
        <ele>61</ele>
        <time>2012-06-30T12:51:31Z</time>
      </trkpt>
      <trkpt lat="44.73546" lon="-0.31066">
        <ele>60</ele>
        <time>2012-06-30T12:51:35Z</time>
      </trkpt>
      <trkpt lat="44.73536" lon="-0.31058">
        <ele>61</ele>
        <time>2012-06-30T12:51:39Z</time>
      </trkpt>
      <trkpt lat="44.73525" lon="-0.3105">
        <ele>63</ele>
        <time>2012-06-30T12:51:43Z</time>
      </trkpt>
      <trkpt lat="44.73514" lon="-0.31043">
        <ele>64</ele>
        <time>2012-06-30T12:51:47Z</time>
      </trkpt>
      <trkpt lat="44.73505" lon="-0.31035">
        <ele>65</ele>
        <time>2012-06-30T12:51:51Z</time>
      </trkpt>
      <trkpt lat="44.73495" lon="-0.31029">
        <ele>65</ele>
        <time>2012-06-30T12:51:55Z</time>
      </trkpt>
      <trkpt lat="44.73488" lon="-0.31038">
        <ele>66</ele>
        <time>2012-06-30T12:52:00Z</time>
      </trkpt>
      <trkpt lat="44.73485" lon="-0.31051">
        <ele>67</ele>
        <time>2012-06-30T12:52:05Z</time>
      </trkpt>
      <trkpt lat="44.73482" lon="-0.31064">
        <ele>67</ele>
        <time>2012-06-30T12:52:10Z</time>
      </trkpt>
      <trkpt lat="44.73478" lon="-0.31077">
        <ele>69</ele>
        <time>2012-06-30T12:52:15Z</time>
      </trkpt>
      <trkpt lat="44.73474" lon="-0.3109">
        <ele>70</ele>
        <time>2012-06-30T12:52:20Z</time>
      </trkpt>
      <trkpt lat="44.73471" lon="-0.31103">
        <ele>71</ele>
        <time>2012-06-30T12:52:24Z</time>
      </trkpt>
      <trkpt lat="44.73468" lon="-0.31117">
        <ele>72</ele>
        <time>2012-06-30T12:52:29Z</time>
      </trkpt>
      <trkpt lat="44.73464" lon="-0.31131">
        <ele>73</ele>
        <time>2012-06-30T12:52:34Z</time>
      </trkpt>
      <trkpt lat="44.73461" lon="-0.31145">
        <ele>73</ele>
        <time>2012-06-30T12:52:39Z</time>
      </trkpt>
      <trkpt lat="44.73457" lon="-0.31159">
        <ele>73</ele>
        <time>2012-06-30T12:52:44Z</time>
      </trkpt>
      <trkpt lat="44.7345" lon="-0.31171">
        <ele>74</ele>
        <time>2012-06-30T12:52:49Z</time>
      </trkpt>
      <trkpt lat="44.7344" lon="-0.31167">
        <ele>75</ele>
        <time>2012-06-30T12:52:56Z</time>
      </trkpt>
      <trkpt lat="44.73432" lon="-0.31158">
        <ele>76</ele>
        <time>2012-06-30T12:53:02Z</time>
      </trkpt>
      <trkpt lat="44.73423" lon="-0.31151">
        <ele>77</ele>
        <time>2012-06-30T12:53:08Z</time>
      </trkpt>
      <trkpt lat="44.73415" lon="-0.31144">
        <ele>78</ele>
        <time>2012-06-30T12:53:14Z</time>
      </trkpt>
      <trkpt lat="44.73406" lon="-0.31137">
        <ele>79</ele>
        <time>2012-06-30T12:53:21Z</time>
      </trkpt>
      <trkpt lat="44.73395" lon="-0.31132">
        <ele>80</ele>
        <time>2012-06-30T12:53:28Z</time>
      </trkpt>
      <trkpt lat="44.73386" lon="-0.31133">
        <ele>81</ele>
        <time>2012-06-30T12:53:36Z</time>
      </trkpt>
      <trkpt lat="44.73376" lon="-0.31133">
        <ele>82</ele>
        <time>2012-06-30T12:53:44Z</time>
      </trkpt>
      <trkpt lat="44.73367" lon="-0.31133">
        <ele>83</ele>
        <time>2012-06-30T12:53:52Z</time>
      </trkpt>
      <trkpt lat="44.73357" lon="-0.31134">
        <ele>84</ele>
        <time>2012-06-30T12:53:59Z</time>
      </trkpt>
      <trkpt lat="44.73347" lon="-0.31135">
        <ele>84</ele>
        <time>2012-06-30T12:54:06Z</time>
      </trkpt>
      <trkpt lat="44.73336" lon="-0.31136">
        <ele>85</ele>
        <time>2012-06-30T12:54:13Z</time>
      </trkpt>
      <trkpt lat="44.73326" lon="-0.31136">
        <ele>86</ele>
        <time>2012-06-30T12:54:20Z</time>
      </trkpt>
      <trkpt lat="44.73316" lon="-0.31137">
        <ele>87</ele>
        <time>2012-06-30T12:54:26Z</time>
      </trkpt>
      <trkpt lat="44.73306" lon="-0.31137">
        <ele>87</ele>
        <time>2012-06-30T12:54:33Z</time>
      </trkpt>
      <trkpt lat="44.73294" lon="-0.31137">
        <ele>88</ele>
        <time>2012-06-30T12:54:41Z</time>
      </trkpt>
      <trkpt lat="44.73283" lon="-0.31137">
        <ele>89</ele>
        <time>2012-06-30T12:54:48Z</time>
      </trkpt>
      <trkpt lat="44.73273" lon="-0.31138">
        <ele>90</ele>
        <time>2012-06-30T12:54:55Z</time>
      </trkpt>
      <trkpt lat="44.73263" lon="-0.31139">
        <ele>91</ele>
        <time>2012-06-30T12:55:02Z</time>
      </trkpt>
      <trkpt lat="44.73253" lon="-0.3114">
        <ele>92</ele>
        <time>2012-06-30T12:55:09Z</time>
      </trkpt>
      <trkpt lat="44.73243" lon="-0.31141">
        <ele>92</ele>
        <time>2012-06-30T12:55:17Z</time>
      </trkpt>
      <trkpt lat="44.73233" lon="-0.31141">
        <ele>93</ele>
        <time>2012-06-30T12:55:24Z</time>
      </trkpt>
      <trkpt lat="44.73222" lon="-0.31142">
        <ele>94</ele>
        <time>2012-06-30T12:55:32Z</time>
      </trkpt>
      <trkpt lat="44.73213" lon="-0.31142">
        <ele>95</ele>
        <time>2012-06-30T12:55:39Z</time>
      </trkpt>
      <trkpt lat="44.73203" lon="-0.31142">
        <ele>97</ele>
        <time>2012-06-30T12:55:46Z</time>
      </trkpt>
      <trkpt lat="44.73193" lon="-0.31143">
        <ele>98</ele>
        <time>2012-06-30T12:55:53Z</time>
      </trkpt>
      <trkpt lat="44.73183" lon="-0.31143">
        <ele>99</ele>
        <time>2012-06-30T12:56:00Z</time>
      </trkpt>
      <trkpt lat="44.73173" lon="-0.31144">
        <ele>100</ele>
        <time>2012-06-30T12:56:09Z</time>
      </trkpt>
      <trkpt lat="44.73163" lon="-0.31142">
        <ele>101</ele>
        <time>2012-06-30T12:58:20Z</time>
      </trkpt>
      <trkpt lat="44.73153" lon="-0.31146">
        <ele>102</ele>
        <time>2012-06-30T12:58:26Z</time>
      </trkpt>
      <trkpt lat="44.73145" lon="-0.31154">
        <ele>103</ele>
        <time>2012-06-30T12:58:32Z</time>
      </trkpt>
      <trkpt lat="44.73137" lon="-0.31162">
        <ele>103</ele>
        <time>2012-06-30T12:58:37Z</time>
      </trkpt>
      <trkpt lat="44.73128" lon="-0.31169">
        <ele>104</ele>
        <time>2012-06-30T12:58:42Z</time>
      </trkpt>
      <trkpt lat="44.73119" lon="-0.31175">
        <ele>105</ele>
        <time>2012-06-30T12:58:48Z</time>
      </trkpt>
      <trkpt lat="44.7311" lon="-0.31183">
        <ele>105</ele>
        <time>2012-06-30T12:58:54Z</time>
      </trkpt>
      <trkpt lat="44.73101" lon="-0.3119">
        <ele>106</ele>
        <time>2012-06-30T12:59:00Z</time>
      </trkpt>
      <trkpt lat="44.73092" lon="-0.31198">
        <ele>107</ele>
        <time>2012-06-30T12:59:06Z</time>
      </trkpt>
      <trkpt lat="44.73087" lon="-0.31208">
        <ele>106</ele>
        <time>2012-06-30T12:59:11Z</time>
      </trkpt>
      <trkpt lat="44.73089" lon="-0.31225">
        <ele>106</ele>
        <time>2012-06-30T12:59:17Z</time>
      </trkpt>
      <trkpt lat="44.73093" lon="-0.31242">
        <ele>105</ele>
        <time>2012-06-30T12:59:21Z</time>
      </trkpt>
      <trkpt lat="44.73101" lon="-0.31258">
        <ele>104</ele>
        <time>2012-06-30T12:59:24Z</time>
      </trkpt>
      <trkpt lat="44.73108" lon="-0.31273">
        <ele>103</ele>
        <time>2012-06-30T12:59:27Z</time>
      </trkpt>
      <trkpt lat="44.73114" lon="-0.31285">
        <ele>102</ele>
        <time>2012-06-30T12:59:29Z</time>
      </trkpt>
      <trkpt lat="44.7312" lon="-0.313">
        <ele>101</ele>
        <time>2012-06-30T12:59:31Z</time>
      </trkpt>
      <trkpt lat="44.73126" lon="-0.31319">
        <ele>100</ele>
        <time>2012-06-30T12:59:33Z</time>
      </trkpt>
      <trkpt lat="44.73132" lon="-0.31335">
        <ele>100</ele>
        <time>2012-06-30T12:59:35Z</time>
      </trkpt>
      <trkpt lat="44.73137" lon="-0.31352">
        <ele>99</ele>
        <time>2012-06-30T12:59:37Z</time>
      </trkpt>
      <trkpt lat="44.73143" lon="-0.31368">
        <ele>97</ele>
        <time>2012-06-30T12:59:39Z</time>
      </trkpt>
      <trkpt lat="44.73149" lon="-0.31383">
        <ele>96</ele>
        <time>2012-06-30T12:59:41Z</time>
      </trkpt>
      <trkpt lat="44.73153" lon="-0.31398">
        <ele>95</ele>
        <time>2012-06-30T12:59:43Z</time>
      </trkpt>
      <trkpt lat="44.73158" lon="-0.31415">
        <ele>94</ele>
        <time>2012-06-30T12:59:45Z</time>
      </trkpt>
      <trkpt lat="44.73162" lon="-0.31432">
        <ele>93</ele>
        <time>2012-06-30T12:59:47Z</time>
      </trkpt>
      <trkpt lat="44.73165" lon="-0.3145">
        <ele>91</ele>
        <time>2012-06-30T12:59:49Z</time>
      </trkpt>
      <trkpt lat="44.73168" lon="-0.31466">
        <ele>90</ele>
        <time>2012-06-30T12:59:51Z</time>
      </trkpt>
      <trkpt lat="44.73172" lon="-0.31484">
        <ele>89</ele>
        <time>2012-06-30T12:59:53Z</time>
      </trkpt>
      <trkpt lat="44.73178" lon="-0.31499">
        <ele>88</ele>
        <time>2012-06-30T12:59:55Z</time>
      </trkpt>
      <trkpt lat="44.73183" lon="-0.31515">
        <ele>87</ele>
        <time>2012-06-30T12:59:57Z</time>
      </trkpt>
      <trkpt lat="44.73188" lon="-0.31531">
        <ele>86</ele>
        <time>2012-06-30T12:59:59Z</time>
      </trkpt>
      <trkpt lat="44.73196" lon="-0.31543">
        <ele>86</ele>
        <time>2012-06-30T13:00:01Z</time>
      </trkpt>
      <trkpt lat="44.73202" lon="-0.31558">
        <ele>85</ele>
        <time>2012-06-30T13:00:03Z</time>
      </trkpt>
      <trkpt lat="44.73209" lon="-0.31573">
        <ele>84</ele>
        <time>2012-06-30T13:00:05Z</time>
      </trkpt>
      <trkpt lat="44.73214" lon="-0.31593">
        <ele>83</ele>
        <time>2012-06-30T13:00:07Z</time>
      </trkpt>
      <trkpt lat="44.73219" lon="-0.3161">
        <ele>82</ele>
        <time>2012-06-30T13:00:09Z</time>
      </trkpt>
      <trkpt lat="44.73223" lon="-0.3163">
        <ele>80</ele>
        <time>2012-06-30T13:00:11Z</time>
      </trkpt>
      <trkpt lat="44.73226" lon="-0.31649">
        <ele>79</ele>
        <time>2012-06-30T13:00:13Z</time>
      </trkpt>
      <trkpt lat="44.7323" lon="-0.31667">
        <ele>77</ele>
        <time>2012-06-30T13:00:15Z</time>
      </trkpt>
      <trkpt lat="44.73234" lon="-0.31683">
        <ele>76</ele>
        <time>2012-06-30T13:00:17Z</time>
      </trkpt>
      <trkpt lat="44.73238" lon="-0.31695">
        <ele>75</ele>
        <time>2012-06-30T13:00:19Z</time>
      </trkpt>
      <trkpt lat="44.73244" lon="-0.31708">
        <ele>74</ele>
        <time>2012-06-30T13:00:21Z</time>
      </trkpt>
      <trkpt lat="44.73251" lon="-0.31721">
        <ele>73</ele>
        <time>2012-06-30T13:00:23Z</time>
      </trkpt>
      <trkpt lat="44.73258" lon="-0.31734">
        <ele>72</ele>
        <time>2012-06-30T13:00:25Z</time>
      </trkpt>
      <trkpt lat="44.73264" lon="-0.31751">
        <ele>71</ele>
        <time>2012-06-30T13:00:28Z</time>
      </trkpt>
      <trkpt lat="44.7327" lon="-0.31769">
        <ele>70</ele>
        <time>2012-06-30T13:00:30Z</time>
      </trkpt>
      <trkpt lat="44.73276" lon="-0.31782">
        <ele>68</ele>
        <time>2012-06-30T13:00:32Z</time>
      </trkpt>
      <trkpt lat="44.73278" lon="-0.31799">
        <ele>67</ele>
        <time>2012-06-30T13:00:35Z</time>
      </trkpt>
      <trkpt lat="44.73279" lon="-0.31817">
        <ele>66</ele>
        <time>2012-06-30T13:00:38Z</time>
      </trkpt>
      <trkpt lat="44.73285" lon="-0.31828">
        <ele>66</ele>
        <time>2012-06-30T13:00:41Z</time>
      </trkpt>
      <trkpt lat="44.73294" lon="-0.31836">
        <ele>65</ele>
        <time>2012-06-30T13:00:44Z</time>
      </trkpt>
      <trkpt lat="44.73306" lon="-0.31838">
        <ele>65</ele>
        <time>2012-06-30T13:00:48Z</time>
      </trkpt>
      <trkpt lat="44.73318" lon="-0.31836">
        <ele>64</ele>
        <time>2012-06-30T13:00:52Z</time>
      </trkpt>
      <trkpt lat="44.73331" lon="-0.31832">
        <ele>64</ele>
        <time>2012-06-30T13:00:55Z</time>
      </trkpt>
      <trkpt lat="44.7334" lon="-0.31827">
        <ele>63</ele>
        <time>2012-06-30T13:00:57Z</time>
      </trkpt>
      <trkpt lat="44.73349" lon="-0.31823">
        <ele>63</ele>
        <time>2012-06-30T13:00:59Z</time>
      </trkpt>
      <trkpt lat="44.73358" lon="-0.31819">
        <ele>62</ele>
        <time>2012-06-30T13:01:01Z</time>
      </trkpt>
      <trkpt lat="44.7337" lon="-0.31813">
        <ele>60</ele>
        <time>2012-06-30T13:01:04Z</time>
      </trkpt>
      <trkpt lat="44.7338" lon="-0.31806">
        <ele>59</ele>
        <time>2012-06-30T13:01:06Z</time>
      </trkpt>
      <trkpt lat="44.73389" lon="-0.318">
        <ele>58</ele>
        <time>2012-06-30T13:01:08Z</time>
      </trkpt>
      <trkpt lat="44.73399" lon="-0.31794">
        <ele>57</ele>
        <time>2012-06-30T13:01:11Z</time>
      </trkpt>
      <trkpt lat="44.73409" lon="-0.318">
        <ele>56</ele>
        <time>2012-06-30T13:01:15Z</time>
      </trkpt>
      <trkpt lat="44.73418" lon="-0.3181">
        <ele>54</ele>
        <time>2012-06-30T13:01:19Z</time>
      </trkpt>
      <trkpt lat="44.73425" lon="-0.31823">
        <ele>53</ele>
        <time>2012-06-30T13:01:22Z</time>
      </trkpt>
      <trkpt lat="44.73434" lon="-0.31831">
        <ele>52</ele>
        <time>2012-06-30T13:01:25Z</time>
      </trkpt>
      <trkpt lat="44.73443" lon="-0.3184">
        <ele>53</ele>
        <time>2012-06-30T13:01:28Z</time>
      </trkpt>
      <trkpt lat="44.73454" lon="-0.31847">
        <ele>54</ele>
        <time>2012-06-30T13:01:31Z</time>
      </trkpt>
      <trkpt lat="44.73465" lon="-0.31854">
        <ele>55</ele>
        <time>2012-06-30T13:01:34Z</time>
      </trkpt>
      <trkpt lat="44.73474" lon="-0.31861">
        <ele>56</ele>
        <time>2012-06-30T13:01:37Z</time>
      </trkpt>
      <trkpt lat="44.73486" lon="-0.31864">
        <ele>57</ele>
        <time>2012-06-30T13:01:41Z</time>
      </trkpt>
      <trkpt lat="44.73494" lon="-0.3187">
        <ele>59</ele>
        <time>2012-06-30T13:01:45Z</time>
      </trkpt>
      <trkpt lat="44.73501" lon="-0.3188">
        <ele>60</ele>
        <time>2012-06-30T13:01:50Z</time>
      </trkpt>
      <trkpt lat="44.73509" lon="-0.31891">
        <ele>61</ele>
        <time>2012-06-30T13:01:55Z</time>
      </trkpt>
      <trkpt lat="44.73516" lon="-0.319">
        <ele>62</ele>
        <time>2012-06-30T13:01:59Z</time>
      </trkpt>
      <trkpt lat="44.73523" lon="-0.31909">
        <ele>63</ele>
        <time>2012-06-30T13:02:04Z</time>
      </trkpt>
      <trkpt lat="44.7353" lon="-0.31919">
        <ele>64</ele>
        <time>2012-06-30T13:02:09Z</time>
      </trkpt>
      <trkpt lat="44.73539" lon="-0.31927">
        <ele>65</ele>
        <time>2012-06-30T13:02:14Z</time>
      </trkpt>
      <trkpt lat="44.73546" lon="-0.31936">
        <ele>65</ele>
        <time>2012-06-30T13:02:19Z</time>
      </trkpt>
      <trkpt lat="44.73552" lon="-0.31946">
        <ele>66</ele>
        <time>2012-06-30T13:02:25Z</time>
      </trkpt>
      <trkpt lat="44.73561" lon="-0.31958">
        <ele>67</ele>
        <time>2012-06-30T13:03:38Z</time>
      </trkpt>
      <trkpt lat="44.73571" lon="-0.31964">
        <ele>68</ele>
        <time>2012-06-30T13:03:43Z</time>
      </trkpt>
      <trkpt lat="44.7358" lon="-0.31969">
        <ele>69</ele>
        <time>2012-06-30T13:03:48Z</time>
      </trkpt>
      <trkpt lat="44.73583" lon="-0.31984">
        <ele>70</ele>
        <time>2012-06-30T13:03:54Z</time>
      </trkpt>
      <trkpt lat="44.73587" lon="-0.31998">
        <ele>72</ele>
        <time>2012-06-30T13:04:00Z</time>
      </trkpt>
      <trkpt lat="44.73591" lon="-0.32012">
        <ele>73</ele>
        <time>2012-06-30T13:04:06Z</time>
      </trkpt>
      <trkpt lat="44.73594" lon="-0.32026">
        <ele>74</ele>
        <time>2012-06-30T13:04:12Z</time>
      </trkpt>
      <trkpt lat="44.73596" lon="-0.32041">
        <ele>74</ele>
        <time>2012-06-30T13:04:18Z</time>
      </trkpt>
      <trkpt lat="44.73598" lon="-0.32056">
        <ele>75</ele>
        <time>2012-06-30T13:04:24Z</time>
      </trkpt>
      <trkpt lat="44.736" lon="-0.3207">
        <ele>76</ele>
        <time>2012-06-30T13:04:30Z</time>
      </trkpt>
      <trkpt lat="44.73602" lon="-0.32085">
        <ele>76</ele>
        <time>2012-06-30T13:04:36Z</time>
      </trkpt>
      <trkpt lat="44.73599" lon="-0.321">
        <ele>77</ele>
        <time>2012-06-30T13:04:42Z</time>
      </trkpt>
      <trkpt lat="44.73598" lon="-0.32115">
        <ele>77</ele>
        <time>2012-06-30T13:04:48Z</time>
      </trkpt>
      <trkpt lat="44.73595" lon="-0.32127">
        <ele>77</ele>
        <time>2012-06-30T13:04:53Z</time>
      </trkpt>
      <trkpt lat="44.73591" lon="-0.32141">
        <ele>77</ele>
        <time>2012-06-30T13:04:58Z</time>
      </trkpt>
      <trkpt lat="44.73586" lon="-0.32153">
        <ele>78</ele>
        <time>2012-06-30T13:05:03Z</time>
      </trkpt>
      <trkpt lat="44.7358" lon="-0.32166">
        <ele>78</ele>
        <time>2012-06-30T13:05:08Z</time>
      </trkpt>
      <trkpt lat="44.73573" lon="-0.32178">
        <ele>78</ele>
        <time>2012-06-30T13:05:13Z</time>
      </trkpt>
      <trkpt lat="44.73566" lon="-0.32188">
        <ele>78</ele>
        <time>2012-06-30T13:05:17Z</time>
      </trkpt>
      <trkpt lat="44.73557" lon="-0.32198">
        <ele>78</ele>
        <time>2012-06-30T13:05:21Z</time>
      </trkpt>
      <trkpt lat="44.73548" lon="-0.32209">
        <ele>79</ele>
        <time>2012-06-30T13:05:25Z</time>
      </trkpt>
      <trkpt lat="44.73541" lon="-0.32219">
        <ele>80</ele>
        <time>2012-06-30T13:05:29Z</time>
      </trkpt>
      <trkpt lat="44.73534" lon="-0.32228">
        <ele>80</ele>
        <time>2012-06-30T13:05:33Z</time>
      </trkpt>
      <trkpt lat="44.73526" lon="-0.32237">
        <ele>81</ele>
        <time>2012-06-30T13:05:37Z</time>
      </trkpt>
      <trkpt lat="44.73517" lon="-0.32245">
        <ele>82</ele>
        <time>2012-06-30T13:05:41Z</time>
      </trkpt>
      <trkpt lat="44.73511" lon="-0.32256">
        <ele>83</ele>
        <time>2012-06-30T13:05:46Z</time>
      </trkpt>
      <trkpt lat="44.73504" lon="-0.32268">
        <ele>85</ele>
        <time>2012-06-30T13:05:50Z</time>
      </trkpt>
      <trkpt lat="44.73497" lon="-0.32279">
        <ele>86</ele>
        <time>2012-06-30T13:05:53Z</time>
      </trkpt>
      <trkpt lat="44.73488" lon="-0.32289">
        <ele>86</ele>
        <time>2012-06-30T13:05:56Z</time>
      </trkpt>
      <trkpt lat="44.7348" lon="-0.32295">
        <ele>86</ele>
        <time>2012-06-30T13:05:59Z</time>
      </trkpt>
      <trkpt lat="44.73472" lon="-0.32307">
        <ele>87</ele>
        <time>2012-06-30T13:06:03Z</time>
      </trkpt>
      <trkpt lat="44.73464" lon="-0.32318">
        <ele>87</ele>
        <time>2012-06-30T13:06:06Z</time>
      </trkpt>
      <trkpt lat="44.73454" lon="-0.32329">
        <ele>86</ele>
        <time>2012-06-30T13:06:10Z</time>
      </trkpt>
      <trkpt lat="44.73446" lon="-0.32336">
        <ele>85</ele>
        <time>2012-06-30T13:06:12Z</time>
      </trkpt>
      <trkpt lat="44.73434" lon="-0.32346">
        <ele>84</ele>
        <time>2012-06-30T13:06:15Z</time>
      </trkpt>
      <trkpt lat="44.73425" lon="-0.32354">
        <ele>83</ele>
        <time>2012-06-30T13:06:17Z</time>
      </trkpt>
      <trkpt lat="44.73415" lon="-0.32363">
        <ele>82</ele>
        <time>2012-06-30T13:06:19Z</time>
      </trkpt>
      <trkpt lat="44.73409" lon="-0.32374">
        <ele>81</ele>
        <time>2012-06-30T13:06:22Z</time>
      </trkpt>
      <trkpt lat="44.73401" lon="-0.32388">
        <ele>81</ele>
        <time>2012-06-30T13:06:26Z</time>
      </trkpt>
      <trkpt lat="44.73393" lon="-0.32401">
        <ele>81</ele>
        <time>2012-06-30T13:06:30Z</time>
      </trkpt>
      <trkpt lat="44.73387" lon="-0.32413">
        <ele>81</ele>
        <time>2012-06-30T13:06:33Z</time>
      </trkpt>
      <trkpt lat="44.7338" lon="-0.32424">
        <ele>81</ele>
        <time>2012-06-30T13:06:36Z</time>
      </trkpt>
      <trkpt lat="44.73373" lon="-0.32435">
        <ele>81</ele>
        <time>2012-06-30T13:06:40Z</time>
      </trkpt>
      <trkpt lat="44.73364" lon="-0.32443">
        <ele>81</ele>
        <time>2012-06-30T13:06:44Z</time>
      </trkpt>
      <trkpt lat="44.73355" lon="-0.32448">
        <ele>80</ele>
        <time>2012-06-30T13:06:59Z</time>
      </trkpt>
      <trkpt lat="44.73345" lon="-0.32451">
        <ele>78</ele>
        <time>2012-06-30T13:07:21Z</time>
      </trkpt>
      <trkpt lat="44.73347" lon="-0.32466">
        <ele>79</ele>
        <time>2012-06-30T13:07:46Z</time>
      </trkpt>
      <trkpt lat="44.73354" lon="-0.32477">
        <ele>81</ele>
        <time>2012-06-30T13:07:51Z</time>
      </trkpt>
      <trkpt lat="44.73358" lon="-0.32489">
        <ele>83</ele>
        <time>2012-06-30T13:07:56Z</time>
      </trkpt>
      <trkpt lat="44.73365" lon="-0.32501">
        <ele>84</ele>
        <time>2012-06-30T13:08:01Z</time>
      </trkpt>
      <trkpt lat="44.7337" lon="-0.32512">
        <ele>86</ele>
        <time>2012-06-30T13:08:05Z</time>
      </trkpt>
      <trkpt lat="44.73378" lon="-0.32525">
        <ele>86</ele>
        <time>2012-06-30T13:08:11Z</time>
      </trkpt>
      <trkpt lat="44.73384" lon="-0.32537">
        <ele>86</ele>
        <time>2012-06-30T13:08:13Z</time>
      </trkpt>
      <trkpt lat="44.73391" lon="-0.32546">
        <ele>86</ele>
        <time>2012-06-30T13:08:15Z</time>
      </trkpt>
      <trkpt lat="44.73397" lon="-0.32561">
        <ele>86</ele>
        <time>2012-06-30T13:08:17Z</time>
      </trkpt>
      <trkpt lat="44.73402" lon="-0.32573">
        <ele>85</ele>
        <time>2012-06-30T13:08:19Z</time>
      </trkpt>
      <trkpt lat="44.73408" lon="-0.32583">
        <ele>85</ele>
        <time>2012-06-30T13:08:21Z</time>
      </trkpt>
      <trkpt lat="44.73415" lon="-0.32594">
        <ele>84</ele>
        <time>2012-06-30T13:08:24Z</time>
      </trkpt>
      <trkpt lat="44.73418" lon="-0.32607">
        <ele>82</ele>
        <time>2012-06-30T13:08:27Z</time>
      </trkpt>
      <trkpt lat="44.73419" lon="-0.32622">
        <ele>80</ele>
        <time>2012-06-30T13:08:30Z</time>
      </trkpt>
      <trkpt lat="44.73416" lon="-0.32636">
        <ele>79</ele>
        <time>2012-06-30T13:08:32Z</time>
      </trkpt>
      <trkpt lat="44.73413" lon="-0.32648">
        <ele>77</ele>
        <time>2012-06-30T13:08:34Z</time>
      </trkpt>
      <trkpt lat="44.73408" lon="-0.32665">
        <ele>75</ele>
        <time>2012-06-30T13:08:36Z</time>
      </trkpt>
      <trkpt lat="44.73402" lon="-0.32701">
        <ele>71</ele>
        <time>2012-06-30T13:08:40Z</time>
      </trkpt>
      <trkpt lat="44.734" lon="-0.32713">
        <ele>70</ele>
        <time>2012-06-30T13:08:41Z</time>
      </trkpt>
      <trkpt lat="44.73395" lon="-0.3273">
        <ele>67</ele>
        <time>2012-06-30T13:08:43Z</time>
      </trkpt>
      <trkpt lat="44.73391" lon="-0.32745">
        <ele>65</ele>
        <time>2012-06-30T13:08:45Z</time>
      </trkpt>
      <trkpt lat="44.73388" lon="-0.32759">
        <ele>63</ele>
        <time>2012-06-30T13:08:47Z</time>
      </trkpt>
      <trkpt lat="44.73389" lon="-0.32772">
        <ele>62</ele>
        <time>2012-06-30T13:08:49Z</time>
      </trkpt>
      <trkpt lat="44.73389" lon="-0.32789">
        <ele>60</ele>
        <time>2012-06-30T13:08:51Z</time>
      </trkpt>
      <trkpt lat="44.73391" lon="-0.32805">
        <ele>57</ele>
        <time>2012-06-30T13:08:54Z</time>
      </trkpt>
      <trkpt lat="44.73386" lon="-0.32818">
        <ele>56</ele>
        <time>2012-06-30T13:08:57Z</time>
      </trkpt>
      <trkpt lat="44.73384" lon="-0.32831">
        <ele>54</ele>
        <time>2012-06-30T13:08:59Z</time>
      </trkpt>
      <trkpt lat="44.73384" lon="-0.32845">
        <ele>52</ele>
        <time>2012-06-30T13:09:02Z</time>
      </trkpt>
      <trkpt lat="44.73393" lon="-0.32851">
        <ele>51</ele>
        <time>2012-06-30T13:09:08Z</time>
      </trkpt>
      <trkpt lat="44.73405" lon="-0.32851">
        <ele>51</ele>
        <time>2012-06-30T13:09:12Z</time>
      </trkpt>
      <trkpt lat="44.73415" lon="-0.32851">
        <ele>52</ele>
        <time>2012-06-30T13:09:16Z</time>
      </trkpt>
      <trkpt lat="44.73425" lon="-0.32853">
        <ele>51</ele>
        <time>2012-06-30T13:09:53Z</time>
      </trkpt>
      <trkpt lat="44.73435" lon="-0.32844">
        <ele>52</ele>
        <time>2012-06-30T13:09:57Z</time>
      </trkpt>
      <trkpt lat="44.73442" lon="-0.32835">
        <ele>53</ele>
        <time>2012-06-30T13:10:02Z</time>
      </trkpt>
      <trkpt lat="44.73452" lon="-0.32826">
        <ele>54</ele>
        <time>2012-06-30T13:10:07Z</time>
      </trkpt>
      <trkpt lat="44.7346" lon="-0.32817">
        <ele>55</ele>
        <time>2012-06-30T13:10:11Z</time>
      </trkpt>
      <trkpt lat="44.73467" lon="-0.32807">
        <ele>56</ele>
        <time>2012-06-30T13:10:16Z</time>
      </trkpt>
      <trkpt lat="44.73476" lon="-0.32798">
        <ele>58</ele>
        <time>2012-06-30T13:10:21Z</time>
      </trkpt>
      <trkpt lat="44.73482" lon="-0.32787">
        <ele>59</ele>
        <time>2012-06-30T13:10:27Z</time>
      </trkpt>
      <trkpt lat="44.73488" lon="-0.32776">
        <ele>60</ele>
        <time>2012-06-30T13:10:33Z</time>
      </trkpt>
      <trkpt lat="44.73496" lon="-0.32767">
        <ele>61</ele>
        <time>2012-06-30T13:10:42Z</time>
      </trkpt>
      <trkpt lat="44.73506" lon="-0.32764">
        <ele>61</ele>
        <time>2012-06-30T13:10:46Z</time>
      </trkpt>
      <trkpt lat="44.73515" lon="-0.32761">
        <ele>60</ele>
        <time>2012-06-30T13:10:50Z</time>
      </trkpt>
      <trkpt lat="44.73524" lon="-0.32757">
        <ele>60</ele>
        <time>2012-06-30T13:10:55Z</time>
      </trkpt>
      <trkpt lat="44.73533" lon="-0.3275">
        <ele>60</ele>
        <time>2012-06-30T13:11:01Z</time>
      </trkpt>
      <trkpt lat="44.73541" lon="-0.32741">
        <ele>61</ele>
        <time>2012-06-30T13:11:07Z</time>
      </trkpt>
      <trkpt lat="44.73548" lon="-0.32732">
        <ele>62</ele>
        <time>2012-06-30T13:11:12Z</time>
      </trkpt>
      <trkpt lat="44.73556" lon="-0.32723">
        <ele>62</ele>
        <time>2012-06-30T13:11:18Z</time>
      </trkpt>
      <trkpt lat="44.73564" lon="-0.32714">
        <ele>63</ele>
        <time>2012-06-30T13:11:24Z</time>
      </trkpt>
      <trkpt lat="44.73575" lon="-0.32709">
        <ele>63</ele>
        <time>2012-06-30T13:11:29Z</time>
      </trkpt>
      <trkpt lat="44.73584" lon="-0.32703">
        <ele>63</ele>
        <time>2012-06-30T13:11:33Z</time>
      </trkpt>
      <trkpt lat="44.73591" lon="-0.32692">
        <ele>63</ele>
        <time>2012-06-30T13:11:37Z</time>
      </trkpt>
      <trkpt lat="44.73598" lon="-0.32683">
        <ele>64</ele>
        <time>2012-06-30T13:11:42Z</time>
      </trkpt>
      <trkpt lat="44.73607" lon="-0.32676">
        <ele>65</ele>
        <time>2012-06-30T13:11:46Z</time>
      </trkpt>
      <trkpt lat="44.73614" lon="-0.32667">
        <ele>65</ele>
        <time>2012-06-30T13:11:50Z</time>
      </trkpt>
      <trkpt lat="44.73623" lon="-0.32657">
        <ele>66</ele>
        <time>2012-06-30T13:11:55Z</time>
      </trkpt>
      <trkpt lat="44.7363" lon="-0.32646">
        <ele>68</ele>
        <time>2012-06-30T13:12:00Z</time>
      </trkpt>
      <trkpt lat="44.73637" lon="-0.32636">
        <ele>68</ele>
        <time>2012-06-30T13:12:04Z</time>
      </trkpt>
      <trkpt lat="44.73644" lon="-0.32626">
        <ele>69</ele>
        <time>2012-06-30T13:12:08Z</time>
      </trkpt>
      <trkpt lat="44.7365" lon="-0.32612">
        <ele>71</ele>
        <time>2012-06-30T13:12:12Z</time>
      </trkpt>
      <trkpt lat="44.73651" lon="-0.32597">
        <ele>72</ele>
        <time>2012-06-30T13:12:17Z</time>
      </trkpt>
      <trkpt lat="44.73653" lon="-0.32583">
        <ele>74</ele>
        <time>2012-06-30T13:12:22Z</time>
      </trkpt>
      <trkpt lat="44.73654" lon="-0.32568">
        <ele>75</ele>
        <time>2012-06-30T13:12:27Z</time>
      </trkpt>
      <trkpt lat="44.73656" lon="-0.32555">
        <ele>75</ele>
        <time>2012-06-30T13:12:33Z</time>
      </trkpt>
      <trkpt lat="44.7366" lon="-0.32542">
        <ele>76</ele>
        <time>2012-06-30T13:12:42Z</time>
      </trkpt>
      <trkpt lat="44.73667" lon="-0.32533">
        <ele>76</ele>
        <time>2012-06-30T13:12:47Z</time>
      </trkpt>
      <trkpt lat="44.73676" lon="-0.32527">
        <ele>75</ele>
        <time>2012-06-30T13:12:51Z</time>
      </trkpt>
      <trkpt lat="44.73685" lon="-0.32521">
        <ele>75</ele>
        <time>2012-06-30T13:12:56Z</time>
      </trkpt>
      <trkpt lat="44.73696" lon="-0.32511">
        <ele>74</ele>
        <time>2012-06-30T13:13:01Z</time>
      </trkpt>
      <trkpt lat="44.73705" lon="-0.32503">
        <ele>74</ele>
        <time>2012-06-30T13:13:04Z</time>
      </trkpt>
      <trkpt lat="44.73714" lon="-0.32497">
        <ele>73</ele>
        <time>2012-06-30T13:13:08Z</time>
      </trkpt>
      <trkpt lat="44.73721" lon="-0.32487">
        <ele>73</ele>
        <time>2012-06-30T13:13:12Z</time>
      </trkpt>
      <trkpt lat="44.73723" lon="-0.32472">
        <ele>74</ele>
        <time>2012-06-30T13:13:22Z</time>
      </trkpt>
      <trkpt lat="44.73727" lon="-0.32461">
        <ele>75</ele>
        <time>2012-06-30T13:13:29Z</time>
      </trkpt>
      <trkpt lat="44.73733" lon="-0.32448">
        <ele>75</ele>
        <time>2012-06-30T13:13:46Z</time>
      </trkpt>
      <trkpt lat="44.73737" lon="-0.32436">
        <ele>76</ele>
        <time>2012-06-30T13:13:59Z</time>
      </trkpt>
      <trkpt lat="44.73744" lon="-0.32427">
        <ele>76</ele>
        <time>2012-06-30T13:14:11Z</time>
      </trkpt>
      <trkpt lat="44.73744" lon="-0.32413">
        <ele>77</ele>
        <time>2012-06-30T13:14:21Z</time>
      </trkpt>
      <trkpt lat="44.73738" lon="-0.32402">
        <ele>79</ele>
        <time>2012-06-30T13:14:29Z</time>
      </trkpt>
      <trkpt lat="44.73739" lon="-0.32389">
        <ele>80</ele>
        <time>2012-06-30T13:14:42Z</time>
      </trkpt>
      <trkpt lat="44.73747" lon="-0.3238">
        <ele>80</ele>
        <time>2012-06-30T13:19:58Z</time>
      </trkpt>
      <trkpt lat="44.73756" lon="-0.32368">
        <ele>80</ele>
        <time>2012-06-30T13:20:02Z</time>
      </trkpt>
      <trkpt lat="44.73763" lon="-0.32358">
        <ele>79</ele>
        <time>2012-06-30T13:20:05Z</time>
      </trkpt>
      <trkpt lat="44.7377" lon="-0.32347">
        <ele>79</ele>
        <time>2012-06-30T13:20:08Z</time>
      </trkpt>
      <trkpt lat="44.7378" lon="-0.32335">
        <ele>78</ele>
        <time>2012-06-30T13:20:11Z</time>
      </trkpt>
      <trkpt lat="44.73787" lon="-0.32323">
        <ele>78</ele>
        <time>2012-06-30T13:20:14Z</time>
      </trkpt>
      <trkpt lat="44.73794" lon="-0.32312">
        <ele>78</ele>
        <time>2012-06-30T13:20:18Z</time>
      </trkpt>
      <trkpt lat="44.73801" lon="-0.32301">
        <ele>79</ele>
        <time>2012-06-30T13:20:22Z</time>
      </trkpt>
      <trkpt lat="44.73808" lon="-0.32291">
        <ele>79</ele>
        <time>2012-06-30T13:20:26Z</time>
      </trkpt>
      <trkpt lat="44.73816" lon="-0.32283">
        <ele>79</ele>
        <time>2012-06-30T13:20:31Z</time>
      </trkpt>
      <trkpt lat="44.73824" lon="-0.32289">
        <ele>78</ele>
        <time>2012-06-30T13:20:36Z</time>
      </trkpt>
      <trkpt lat="44.7383" lon="-0.32302">
        <ele>77</ele>
        <time>2012-06-30T13:20:41Z</time>
      </trkpt>
      <trkpt lat="44.73836" lon="-0.32313">
        <ele>76</ele>
        <time>2012-06-30T13:20:45Z</time>
      </trkpt>
      <trkpt lat="44.73843" lon="-0.32329">
        <ele>75</ele>
        <time>2012-06-30T13:20:49Z</time>
      </trkpt>
      <trkpt lat="44.73849" lon="-0.32342">
        <ele>74</ele>
        <time>2012-06-30T13:20:52Z</time>
      </trkpt>
      <trkpt lat="44.73854" lon="-0.32354">
        <ele>73</ele>
        <time>2012-06-30T13:20:54Z</time>
      </trkpt>
      <trkpt lat="44.73861" lon="-0.32368">
        <ele>72</ele>
        <time>2012-06-30T13:20:56Z</time>
      </trkpt>
      <trkpt lat="44.73868" lon="-0.32384">
        <ele>70</ele>
        <time>2012-06-30T13:20:58Z</time>
      </trkpt>
      <trkpt lat="44.73877" lon="-0.32402">
        <ele>69</ele>
        <time>2012-06-30T13:21:00Z</time>
      </trkpt>
      <trkpt lat="44.73885" lon="-0.32419">
        <ele>67</ele>
        <time>2012-06-30T13:21:02Z</time>
      </trkpt>
      <trkpt lat="44.73893" lon="-0.32437">
        <ele>66</ele>
        <time>2012-06-30T13:21:04Z</time>
      </trkpt>
      <trkpt lat="44.73901" lon="-0.32454">
        <ele>65</ele>
        <time>2012-06-30T13:21:06Z</time>
      </trkpt>
      <trkpt lat="44.73909" lon="-0.32473">
        <ele>64</ele>
        <time>2012-06-30T13:21:08Z</time>
      </trkpt>
      <trkpt lat="44.73917" lon="-0.32491">
        <ele>63</ele>
        <time>2012-06-30T13:21:10Z</time>
      </trkpt>
      <trkpt lat="44.73924" lon="-0.32506">
        <ele>61</ele>
        <time>2012-06-30T13:21:12Z</time>
      </trkpt>
      <trkpt lat="44.74046" lon="-0.32391">
        <ele>62</ele>
        <time>2012-06-30T13:21:14Z</time>
      </trkpt>
      <trkpt lat="44.74054" lon="-0.32382">
        <ele>62</ele>
        <time>2012-06-30T13:26:53Z</time>
      </trkpt>
      <trkpt lat="44.74062" lon="-0.32374">
        <ele>62</ele>
        <time>2012-06-30T13:26:58Z</time>
      </trkpt>
      <trkpt lat="44.74074" lon="-0.32366">
        <ele>62</ele>
        <time>2012-06-30T13:27:01Z</time>
      </trkpt>
      <trkpt lat="44.74083" lon="-0.32359">
        <ele>62</ele>
        <time>2012-06-30T13:27:03Z</time>
      </trkpt>
      <trkpt lat="44.74092" lon="-0.32352">
        <ele>61</ele>
        <time>2012-06-30T13:27:05Z</time>
      </trkpt>
      <trkpt lat="44.74102" lon="-0.32344">
        <ele>61</ele>
        <time>2012-06-30T13:27:07Z</time>
      </trkpt>
      <trkpt lat="44.74111" lon="-0.32338">
        <ele>62</ele>
        <time>2012-06-30T13:27:09Z</time>
      </trkpt>
      <trkpt lat="44.7412" lon="-0.3233">
        <ele>62</ele>
        <time>2012-06-30T13:27:12Z</time>
      </trkpt>
      <trkpt lat="44.74128" lon="-0.32324">
        <ele>63</ele>
        <time>2012-06-30T13:27:15Z</time>
      </trkpt>
      <trkpt lat="44.74138" lon="-0.32316">
        <ele>64</ele>
        <time>2012-06-30T13:27:20Z</time>
      </trkpt>
      <trkpt lat="44.74147" lon="-0.32309">
        <ele>64</ele>
        <time>2012-06-30T13:27:25Z</time>
      </trkpt>
      <trkpt lat="44.74156" lon="-0.32302">
        <ele>65</ele>
        <time>2012-06-30T13:27:29Z</time>
      </trkpt>
      <trkpt lat="44.74165" lon="-0.32295">
        <ele>65</ele>
        <time>2012-06-30T13:27:33Z</time>
      </trkpt>
      <trkpt lat="44.74175" lon="-0.32288">
        <ele>65</ele>
        <time>2012-06-30T13:27:37Z</time>
      </trkpt>
      <trkpt lat="44.74185" lon="-0.3228">
        <ele>65</ele>
        <time>2012-06-30T13:27:41Z</time>
      </trkpt>
      <trkpt lat="44.74193" lon="-0.32273">
        <ele>65</ele>
        <time>2012-06-30T13:27:44Z</time>
      </trkpt>
      <trkpt lat="44.74203" lon="-0.32265">
        <ele>65</ele>
        <time>2012-06-30T13:27:48Z</time>
      </trkpt>
      <trkpt lat="44.74212" lon="-0.32259">
        <ele>64</ele>
        <time>2012-06-30T13:27:51Z</time>
      </trkpt>
      <trkpt lat="44.74221" lon="-0.32251">
        <ele>64</ele>
        <time>2012-06-30T13:27:54Z</time>
      </trkpt>
      <trkpt lat="44.7423" lon="-0.32244">
        <ele>64</ele>
        <time>2012-06-30T13:27:57Z</time>
      </trkpt>
      <trkpt lat="44.7424" lon="-0.32237">
        <ele>64</ele>
        <time>2012-06-30T13:28:00Z</time>
      </trkpt>
      <trkpt lat="44.74249" lon="-0.3223">
        <ele>64</ele>
        <time>2012-06-30T13:28:05Z</time>
      </trkpt>
      <trkpt lat="44.74258" lon="-0.32235">
        <ele>63</ele>
        <time>2012-06-30T13:28:34Z</time>
      </trkpt>
      <trkpt lat="44.74264" lon="-0.32247">
        <ele>62</ele>
        <time>2012-06-30T13:28:37Z</time>
      </trkpt>
      <trkpt lat="44.74269" lon="-0.32259">
        <ele>62</ele>
        <time>2012-06-30T13:28:40Z</time>
      </trkpt>
      <trkpt lat="44.74273" lon="-0.32272">
        <ele>61</ele>
        <time>2012-06-30T13:28:43Z</time>
      </trkpt>
      <trkpt lat="44.74278" lon="-0.32286">
        <ele>60</ele>
        <time>2012-06-30T13:28:46Z</time>
      </trkpt>
      <trkpt lat="44.74285" lon="-0.32298">
        <ele>60</ele>
        <time>2012-06-30T13:28:51Z</time>
      </trkpt>
      <trkpt lat="44.74294" lon="-0.32299">
        <ele>60</ele>
        <time>2012-06-30T13:28:59Z</time>
      </trkpt>
      <trkpt lat="44.74305" lon="-0.32299">
        <ele>59</ele>
        <time>2012-06-30T13:29:05Z</time>
      </trkpt>
      <trkpt lat="44.74312" lon="-0.32308">
        <ele>59</ele>
        <time>2012-06-30T13:29:09Z</time>
      </trkpt>
      <trkpt lat="44.74318" lon="-0.3232">
        <ele>60</ele>
        <time>2012-06-30T13:29:35Z</time>
      </trkpt>
      <trkpt lat="44.74328" lon="-0.32321">
        <ele>60</ele>
        <time>2012-06-30T13:29:56Z</time>
      </trkpt>
      <trkpt lat="44.74337" lon="-0.32327">
        <ele>60</ele>
        <time>2012-06-30T13:30:56Z</time>
      </trkpt>
      <trkpt lat="44.74342" lon="-0.32341">
        <ele>61</ele>
        <time>2012-06-30T13:31:02Z</time>
      </trkpt>
      <trkpt lat="44.74347" lon="-0.32356">
        <ele>61</ele>
        <time>2012-06-30T13:31:09Z</time>
      </trkpt>
      <trkpt lat="44.74351" lon="-0.3237">
        <ele>62</ele>
        <time>2012-06-30T13:31:13Z</time>
      </trkpt>
      <trkpt lat="44.74361" lon="-0.32403">
        <ele>63</ele>
        <time>2012-06-30T13:34:12Z</time>
      </trkpt>
      <trkpt lat="44.74365" lon="-0.32416">
        <ele>64</ele>
        <time>2012-06-30T13:34:16Z</time>
      </trkpt>
      <trkpt lat="44.74368" lon="-0.3243">
        <ele>64</ele>
        <time>2012-06-30T13:34:22Z</time>
      </trkpt>
      <trkpt lat="44.74361" lon="-0.32442">
        <ele>65</ele>
        <time>2012-06-30T13:34:29Z</time>
      </trkpt>
      <trkpt lat="44.74353" lon="-0.3245">
        <ele>65</ele>
        <time>2012-06-30T13:34:37Z</time>
      </trkpt>
      <trkpt lat="44.74346" lon="-0.3246">
        <ele>66</ele>
        <time>2012-06-30T13:34:45Z</time>
      </trkpt>
      <trkpt lat="44.74338" lon="-0.32471">
        <ele>67</ele>
        <time>2012-06-30T13:34:51Z</time>
      </trkpt>
      <trkpt lat="44.74331" lon="-0.32482">
        <ele>67</ele>
        <time>2012-06-30T13:34:59Z</time>
      </trkpt>
      <trkpt lat="44.74321" lon="-0.32484">
        <ele>68</ele>
        <time>2012-06-30T13:35:04Z</time>
      </trkpt>
      <trkpt lat="44.74311" lon="-0.32488">
        <ele>66</ele>
        <time>2012-06-30T13:35:10Z</time>
      </trkpt>
      <trkpt lat="44.74305" lon="-0.32498">
        <ele>65</ele>
        <time>2012-06-30T13:35:17Z</time>
      </trkpt>
      <trkpt lat="44.74297" lon="-0.3251">
        <ele>64</ele>
        <time>2012-06-30T13:35:22Z</time>
      </trkpt>
      <trkpt lat="44.74292" lon="-0.32524">
        <ele>63</ele>
        <time>2012-06-30T13:35:29Z</time>
      </trkpt>
      <trkpt lat="44.74282" lon="-0.32524">
        <ele>61</ele>
        <time>2012-06-30T13:35:35Z</time>
      </trkpt>
      <trkpt lat="44.74272" lon="-0.32524">
        <ele>60</ele>
        <time>2012-06-30T13:35:38Z</time>
      </trkpt>
      <trkpt lat="44.74265" lon="-0.32536">
        <ele>60</ele>
        <time>2012-06-30T13:35:43Z</time>
      </trkpt>
      <trkpt lat="44.74256" lon="-0.32544">
        <ele>60</ele>
        <time>2012-06-30T13:35:46Z</time>
      </trkpt>
      <trkpt lat="44.74246" lon="-0.32551">
        <ele>60</ele>
        <time>2012-06-30T13:35:50Z</time>
      </trkpt>
      <trkpt lat="44.74236" lon="-0.32546">
        <ele>60</ele>
        <time>2012-06-30T13:35:53Z</time>
      </trkpt>
      <trkpt lat="44.74228" lon="-0.32538">
        <ele>60</ele>
        <time>2012-06-30T13:35:57Z</time>
      </trkpt>
      <trkpt lat="44.74217" lon="-0.32542">
        <ele>60</ele>
        <time>2012-06-30T13:36:05Z</time>
      </trkpt>
      <trkpt lat="44.74206" lon="-0.32543">
        <ele>60</ele>
        <time>2012-06-30T13:36:09Z</time>
      </trkpt>
      <trkpt lat="44.74196" lon="-0.32549">
        <ele>61</ele>
        <time>2012-06-30T13:36:15Z</time>
      </trkpt>
      <trkpt lat="44.74186" lon="-0.3255">
        <ele>61</ele>
        <time>2012-06-30T13:36:20Z</time>
      </trkpt>
      <trkpt lat="44.74182" lon="-0.32562">
        <ele>63</ele>
        <time>2012-06-30T13:36:26Z</time>
      </trkpt>
      <trkpt lat="44.74174" lon="-0.32571">
        <ele>63</ele>
        <time>2012-06-30T13:36:33Z</time>
      </trkpt>
      <trkpt lat="44.74173" lon="-0.32585">
        <ele>65</ele>
        <time>2012-06-30T13:36:41Z</time>
      </trkpt>
      <trkpt lat="44.74164" lon="-0.32592">
        <ele>65</ele>
        <time>2012-06-30T13:36:47Z</time>
      </trkpt>
      <trkpt lat="44.7416" lon="-0.32604">
        <ele>67</ele>
        <time>2012-06-30T13:36:50Z</time>
      </trkpt>
      <trkpt lat="44.74152" lon="-0.32616">
        <ele>68</ele>
        <time>2012-06-30T13:36:57Z</time>
      </trkpt>
      <trkpt lat="44.74143" lon="-0.32623">
        <ele>69</ele>
        <time>2012-06-30T13:37:05Z</time>
      </trkpt>
      <trkpt lat="44.74132" lon="-0.32621">
        <ele>69</ele>
        <time>2012-06-30T13:37:13Z</time>
      </trkpt>
      <trkpt lat="44.74127" lon="-0.3261">
        <ele>67</ele>
        <time>2012-06-30T13:37:42Z</time>
      </trkpt>
      <trkpt lat="44.74131" lon="-0.32597">
        <ele>66</ele>
        <time>2012-06-30T13:38:01Z</time>
      </trkpt>
      <trkpt lat="44.74128" lon="-0.32585">
        <ele>64</ele>
        <time>2012-06-30T13:38:29Z</time>
      </trkpt>
      <trkpt lat="44.74128" lon="-0.32571">
        <ele>62</ele>
        <time>2012-06-30T13:38:36Z</time>
      </trkpt>
      <trkpt lat="44.74125" lon="-0.32557">
        <ele>60</ele>
        <time>2012-06-30T13:38:39Z</time>
      </trkpt>
      <trkpt lat="44.7412" lon="-0.32545">
        <ele>58</ele>
        <time>2012-06-30T13:38:42Z</time>
      </trkpt>
      <trkpt lat="44.74116" lon="-0.32533">
        <ele>57</ele>
        <time>2012-06-30T13:38:45Z</time>
      </trkpt>
      <trkpt lat="44.74106" lon="-0.32532">
        <ele>56</ele>
        <time>2012-06-30T13:39:05Z</time>
      </trkpt>
      <trkpt lat="44.74099" lon="-0.32541">
        <ele>56</ele>
        <time>2012-06-30T13:39:18Z</time>
      </trkpt>
      <trkpt lat="44.74094" lon="-0.32553">
        <ele>58</ele>
        <time>2012-06-30T13:39:24Z</time>
      </trkpt>
      <trkpt lat="44.74084" lon="-0.32565">
        <ele>59</ele>
        <time>2012-06-30T13:39:31Z</time>
      </trkpt>
      <trkpt lat="44.74076" lon="-0.32574">
        <ele>60</ele>
        <time>2012-06-30T13:40:00Z</time>
      </trkpt>
      <trkpt lat="44.74063" lon="-0.32573">
        <ele>59</ele>
        <time>2012-06-30T13:40:10Z</time>
      </trkpt>
      <trkpt lat="44.74054" lon="-0.32577">
        <ele>59</ele>
        <time>2012-06-30T13:40:26Z</time>
      </trkpt>
      <trkpt lat="44.74045" lon="-0.32584">
        <ele>60</ele>
        <time>2012-06-30T13:40:32Z</time>
      </trkpt>
      <trkpt lat="44.74044" lon="-0.326">
        <ele>62</ele>
        <time>2012-06-30T13:40:37Z</time>
      </trkpt>
      <trkpt lat="44.7404" lon="-0.32615">
        <ele>63</ele>
        <time>2012-06-30T13:40:45Z</time>
      </trkpt>
      <trkpt lat="44.74027" lon="-0.32621">
        <ele>63</ele>
        <time>2012-06-30T13:40:50Z</time>
      </trkpt>
      <trkpt lat="44.74018" lon="-0.32614">
        <ele>62</ele>
        <time>2012-06-30T13:40:57Z</time>
      </trkpt>
      <trkpt lat="44.74008" lon="-0.32613">
        <ele>61</ele>
        <time>2012-06-30T13:41:01Z</time>
      </trkpt>
      <trkpt lat="44.73999" lon="-0.32605">
        <ele>59</ele>
        <time>2012-06-30T13:41:05Z</time>
      </trkpt>
      <trkpt lat="44.73986" lon="-0.32599">
        <ele>58</ele>
        <time>2012-06-30T13:41:10Z</time>
      </trkpt>
      <trkpt lat="44.73975" lon="-0.32603">
        <ele>58</ele>
        <time>2012-06-30T13:41:14Z</time>
      </trkpt>
      <trkpt lat="44.73965" lon="-0.32612">
        <ele>58</ele>
        <time>2012-06-30T13:41:18Z</time>
      </trkpt>
      <trkpt lat="44.73954" lon="-0.32621">
        <ele>58</ele>
        <time>2012-06-30T13:41:23Z</time>
      </trkpt>
      <trkpt lat="44.73943" lon="-0.32626">
        <ele>58</ele>
        <time>2012-06-30T13:41:26Z</time>
      </trkpt>
      <trkpt lat="44.73934" lon="-0.32633">
        <ele>57</ele>
        <time>2012-06-30T13:41:29Z</time>
      </trkpt>
      <trkpt lat="44.73923" lon="-0.32639">
        <ele>56</ele>
        <time>2012-06-30T13:41:32Z</time>
      </trkpt>
      <trkpt lat="44.73916" lon="-0.32648">
        <ele>56</ele>
        <time>2012-06-30T13:41:35Z</time>
      </trkpt>
      <trkpt lat="44.73904" lon="-0.32662">
        <ele>55</ele>
        <time>2012-06-30T13:41:39Z</time>
      </trkpt>
      <trkpt lat="44.73897" lon="-0.32674">
        <ele>55</ele>
        <time>2012-06-30T13:41:42Z</time>
      </trkpt>
      <trkpt lat="44.73891" lon="-0.32685">
        <ele>56</ele>
        <time>2012-06-30T13:41:46Z</time>
      </trkpt>
      <trkpt lat="44.73894" lon="-0.327">
        <ele>57</ele>
        <time>2012-06-30T13:41:50Z</time>
      </trkpt>
      <trkpt lat="44.73895" lon="-0.32714">
        <ele>58</ele>
        <time>2012-06-30T13:41:56Z</time>
      </trkpt>
      <trkpt lat="44.73897" lon="-0.32728">
        <ele>58</ele>
        <time>2012-06-30T13:42:23Z</time>
      </trkpt>
      <trkpt lat="44.73903" lon="-0.32741">
        <ele>59</ele>
        <time>2012-06-30T13:43:45Z</time>
      </trkpt>
      <trkpt lat="44.73913" lon="-0.32745">
        <ele>60</ele>
        <time>2012-06-30T13:43:50Z</time>
      </trkpt>
      <trkpt lat="44.73922" lon="-0.32752">
        <ele>60</ele>
        <time>2012-06-30T13:43:56Z</time>
      </trkpt>
      <trkpt lat="44.73932" lon="-0.32754">
        <ele>60</ele>
        <time>2012-06-30T13:44:02Z</time>
      </trkpt>
      <trkpt lat="44.73942" lon="-0.32755">
        <ele>61</ele>
        <time>2012-06-30T13:44:06Z</time>
      </trkpt>
      <trkpt lat="44.73954" lon="-0.32754">
        <ele>61</ele>
        <time>2012-06-30T13:44:09Z</time>
      </trkpt>
      <trkpt lat="44.73962" lon="-0.32745">
        <ele>62</ele>
        <time>2012-06-30T13:44:14Z</time>
      </trkpt>
      <trkpt lat="44.7397" lon="-0.32736">
        <ele>63</ele>
        <time>2012-06-30T13:44:19Z</time>
      </trkpt>
      <trkpt lat="44.73979" lon="-0.32727">
        <ele>65</ele>
        <time>2012-06-30T13:44:24Z</time>
      </trkpt>
      <trkpt lat="44.73988" lon="-0.3272">
        <ele>66</ele>
        <time>2012-06-30T13:44:30Z</time>
      </trkpt>
      <trkpt lat="44.73997" lon="-0.32712">
        <ele>66</ele>
        <time>2012-06-30T13:44:34Z</time>
      </trkpt>
      <trkpt lat="44.74006" lon="-0.32707">
        <ele>67</ele>
        <time>2012-06-30T13:44:38Z</time>
      </trkpt>
      <trkpt lat="44.74016" lon="-0.32703">
        <ele>68</ele>
        <time>2012-06-30T13:44:42Z</time>
      </trkpt>
      <trkpt lat="44.74025" lon="-0.32701">
        <ele>69</ele>
        <time>2012-06-30T13:44:47Z</time>
      </trkpt>
      <trkpt lat="44.74036" lon="-0.32701">
        <ele>70</ele>
        <time>2012-06-30T13:44:52Z</time>
      </trkpt>
      <trkpt lat="44.74046" lon="-0.32703">
        <ele>71</ele>
        <time>2012-06-30T13:44:56Z</time>
      </trkpt>
      <trkpt lat="44.74055" lon="-0.32709">
        <ele>72</ele>
        <time>2012-06-30T13:45:01Z</time>
      </trkpt>
      <trkpt lat="44.74062" lon="-0.32719">
        <ele>73</ele>
        <time>2012-06-30T13:45:06Z</time>
      </trkpt>
      <trkpt lat="44.74068" lon="-0.32734">
        <ele>74</ele>
        <time>2012-06-30T13:45:10Z</time>
      </trkpt>
      <trkpt lat="44.74074" lon="-0.32745">
        <ele>74</ele>
        <time>2012-06-30T13:45:15Z</time>
      </trkpt>
      <trkpt lat="44.7408" lon="-0.32758">
        <ele>75</ele>
        <time>2012-06-30T13:45:20Z</time>
      </trkpt>
      <trkpt lat="44.74087" lon="-0.32769">
        <ele>76</ele>
        <time>2012-06-30T13:45:24Z</time>
      </trkpt>
      <trkpt lat="44.74095" lon="-0.3278">
        <ele>77</ele>
        <time>2012-06-30T13:45:29Z</time>
      </trkpt>
      <trkpt lat="44.74104" lon="-0.32787">
        <ele>78</ele>
        <time>2012-06-30T13:45:34Z</time>
      </trkpt>
      <trkpt lat="44.74114" lon="-0.32785">
        <ele>79</ele>
        <time>2012-06-30T13:45:40Z</time>
      </trkpt>
      <trkpt lat="44.74123" lon="-0.3278">
        <ele>79</ele>
        <time>2012-06-30T13:45:44Z</time>
      </trkpt>
      <trkpt lat="44.74133" lon="-0.32774">
        <ele>80</ele>
        <time>2012-06-30T13:45:49Z</time>
      </trkpt>
      <trkpt lat="44.74143" lon="-0.32767">
        <ele>80</ele>
        <time>2012-06-30T13:45:54Z</time>
      </trkpt>
      <trkpt lat="44.74151" lon="-0.32763">
        <ele>80</ele>
        <time>2012-06-30T13:45:58Z</time>
      </trkpt>
      <trkpt lat="44.74163" lon="-0.32757">
        <ele>80</ele>
        <time>2012-06-30T13:46:03Z</time>
      </trkpt>
      <trkpt lat="44.74173" lon="-0.32758">
        <ele>81</ele>
        <time>2012-06-30T13:46:08Z</time>
      </trkpt>
      <trkpt lat="44.7418" lon="-0.32769">
        <ele>82</ele>
        <time>2012-06-30T13:46:13Z</time>
      </trkpt>
      <trkpt lat="44.74184" lon="-0.32783">
        <ele>83</ele>
        <time>2012-06-30T13:46:19Z</time>
      </trkpt>
      <trkpt lat="44.74187" lon="-0.32796">
        <ele>84</ele>
        <time>2012-06-30T13:46:24Z</time>
      </trkpt>
      <trkpt lat="44.7419" lon="-0.32811">
        <ele>85</ele>
        <time>2012-06-30T13:46:29Z</time>
      </trkpt>
      <trkpt lat="44.74194" lon="-0.32823">
        <ele>86</ele>
        <time>2012-06-30T13:46:33Z</time>
      </trkpt>
      <trkpt lat="44.74197" lon="-0.32836">
        <ele>87</ele>
        <time>2012-06-30T13:46:38Z</time>
      </trkpt>
      <trkpt lat="44.74201" lon="-0.32851">
        <ele>88</ele>
        <time>2012-06-30T13:46:44Z</time>
      </trkpt>
      <trkpt lat="44.74205" lon="-0.32864">
        <ele>89</ele>
        <time>2012-06-30T13:46:50Z</time>
      </trkpt>
      <trkpt lat="44.74208" lon="-0.32878">
        <ele>90</ele>
        <time>2012-06-30T13:46:56Z</time>
      </trkpt>
      <trkpt lat="44.74212" lon="-0.32892">
        <ele>90</ele>
        <time>2012-06-30T13:47:01Z</time>
      </trkpt>
      <trkpt lat="44.74214" lon="-0.32906">
        <ele>91</ele>
        <time>2012-06-30T13:47:07Z</time>
      </trkpt>
      <trkpt lat="44.74218" lon="-0.32921">
        <ele>92</ele>
        <time>2012-06-30T13:47:13Z</time>
      </trkpt>
      <trkpt lat="44.74223" lon="-0.32934">
        <ele>93</ele>
        <time>2012-06-30T13:47:18Z</time>
      </trkpt>
      <trkpt lat="44.74226" lon="-0.32947">
        <ele>93</ele>
        <time>2012-06-30T13:47:23Z</time>
      </trkpt>
      <trkpt lat="44.74232" lon="-0.3296">
        <ele>93</ele>
        <time>2012-06-30T13:47:29Z</time>
      </trkpt>
      <trkpt lat="44.74235" lon="-0.32973">
        <ele>93</ele>
        <time>2012-06-30T13:47:34Z</time>
      </trkpt>
      <trkpt lat="44.74239" lon="-0.32987">
        <ele>93</ele>
        <time>2012-06-30T13:47:39Z</time>
      </trkpt>
      <trkpt lat="44.74244" lon="-0.33001">
        <ele>93</ele>
        <time>2012-06-30T13:47:44Z</time>
      </trkpt>
      <trkpt lat="44.74249" lon="-0.33013">
        <ele>94</ele>
        <time>2012-06-30T13:47:49Z</time>
      </trkpt>
      <trkpt lat="44.74255" lon="-0.33027">
        <ele>94</ele>
        <time>2012-06-30T13:47:54Z</time>
      </trkpt>
      <trkpt lat="44.74258" lon="-0.33041">
        <ele>94</ele>
        <time>2012-06-30T13:47:59Z</time>
      </trkpt>
      <trkpt lat="44.74261" lon="-0.33054">
        <ele>94</ele>
        <time>2012-06-30T13:48:03Z</time>
      </trkpt>
      <trkpt lat="44.74264" lon="-0.33066">
        <ele>94</ele>
        <time>2012-06-30T13:48:07Z</time>
      </trkpt>
      <trkpt lat="44.74265" lon="-0.33081">
        <ele>94</ele>
        <time>2012-06-30T13:48:11Z</time>
      </trkpt>
      <trkpt lat="44.74268" lon="-0.33098">
        <ele>94</ele>
        <time>2012-06-30T13:48:15Z</time>
      </trkpt>
      <trkpt lat="44.74271" lon="-0.33113">
        <ele>94</ele>
        <time>2012-06-30T13:48:19Z</time>
      </trkpt>
      <trkpt lat="44.74273" lon="-0.33127">
        <ele>95</ele>
        <time>2012-06-30T13:48:23Z</time>
      </trkpt>
      <trkpt lat="44.74274" lon="-0.33144">
        <ele>95</ele>
        <time>2012-06-30T13:48:27Z</time>
      </trkpt>
      <trkpt lat="44.74276" lon="-0.33158">
        <ele>96</ele>
        <time>2012-06-30T13:48:30Z</time>
      </trkpt>
      <trkpt lat="44.74278" lon="-0.33171">
        <ele>96</ele>
        <time>2012-06-30T13:48:33Z</time>
      </trkpt>
      <trkpt lat="44.74281" lon="-0.33184">
        <ele>97</ele>
        <time>2012-06-30T13:48:36Z</time>
      </trkpt>
      <trkpt lat="44.74283" lon="-0.33197">
        <ele>97</ele>
        <time>2012-06-30T13:48:40Z</time>
      </trkpt>
      <trkpt lat="44.74285" lon="-0.33211">
        <ele>98</ele>
        <time>2012-06-30T13:48:43Z</time>
      </trkpt>
      <trkpt lat="44.74288" lon="-0.33226">
        <ele>99</ele>
        <time>2012-06-30T13:48:46Z</time>
      </trkpt>
      <trkpt lat="44.7429" lon="-0.33241">
        <ele>99</ele>
        <time>2012-06-30T13:48:49Z</time>
      </trkpt>
      <trkpt lat="44.74293" lon="-0.33257">
        <ele>100</ele>
        <time>2012-06-30T13:48:52Z</time>
      </trkpt>
      <trkpt lat="44.74297" lon="-0.33272">
        <ele>101</ele>
        <time>2012-06-30T13:48:55Z</time>
      </trkpt>
      <trkpt lat="44.74301" lon="-0.33285">
        <ele>102</ele>
        <time>2012-06-30T13:48:58Z</time>
      </trkpt>
      <trkpt lat="44.74306" lon="-0.33297">
        <ele>103</ele>
        <time>2012-06-30T13:49:01Z</time>
      </trkpt>
      <trkpt lat="44.74312" lon="-0.3331">
        <ele>103</ele>
        <time>2012-06-30T13:49:05Z</time>
      </trkpt>
      <trkpt lat="44.74319" lon="-0.33322">
        <ele>104</ele>
        <time>2012-06-30T13:49:11Z</time>
      </trkpt>
      <trkpt lat="44.74327" lon="-0.33335">
        <ele>104</ele>
        <time>2012-06-30T13:49:16Z</time>
      </trkpt>
      <trkpt lat="44.74335" lon="-0.33347">
        <ele>105</ele>
        <time>2012-06-30T13:49:20Z</time>
      </trkpt>
      <trkpt lat="44.7434" lon="-0.33358">
        <ele>105</ele>
        <time>2012-06-30T13:49:24Z</time>
      </trkpt>
      <trkpt lat="44.74346" lon="-0.33372">
        <ele>106</ele>
        <time>2012-06-30T13:49:30Z</time>
      </trkpt>
      <trkpt lat="44.74349" lon="-0.33384">
        <ele>106</ele>
        <time>2012-06-30T13:49:54Z</time>
      </trkpt>
      <trkpt lat="44.74338" lon="-0.33386">
        <ele>106</ele>
        <time>2012-06-30T13:50:09Z</time>
      </trkpt>
      <trkpt lat="44.74327" lon="-0.3339">
        <ele>106</ele>
        <time>2012-06-30T13:50:14Z</time>
      </trkpt>
      <trkpt lat="44.74317" lon="-0.33392">
        <ele>106</ele>
        <time>2012-06-30T13:50:18Z</time>
      </trkpt>
      <trkpt lat="44.74308" lon="-0.33397">
        <ele>106</ele>
        <time>2012-06-30T13:50:22Z</time>
      </trkpt>
      <trkpt lat="44.74297" lon="-0.334">
        <ele>106</ele>
        <time>2012-06-30T13:50:26Z</time>
      </trkpt>
      <trkpt lat="44.74288" lon="-0.33404">
        <ele>106</ele>
        <time>2012-06-30T13:50:30Z</time>
      </trkpt>
      <trkpt lat="44.74278" lon="-0.33407">
        <ele>105</ele>
        <time>2012-06-30T13:50:36Z</time>
      </trkpt>
      <trkpt lat="44.74268" lon="-0.33409">
        <ele>105</ele>
        <time>2012-06-30T13:50:51Z</time>
      </trkpt>
      <trkpt lat="44.74258" lon="-0.33416">
        <ele>105</ele>
        <time>2012-06-30T13:51:00Z</time>
      </trkpt>
      <trkpt lat="44.74249" lon="-0.33418">
        <ele>105</ele>
        <time>2012-06-30T13:51:04Z</time>
      </trkpt>
      <trkpt lat="44.74239" lon="-0.33424">
        <ele>104</ele>
        <time>2012-06-30T13:51:08Z</time>
      </trkpt>
      <trkpt lat="44.74229" lon="-0.33421">
        <ele>104</ele>
        <time>2012-06-30T13:51:12Z</time>
      </trkpt>
      <trkpt lat="44.74223" lon="-0.33409">
        <ele>103</ele>
        <time>2012-06-30T13:51:15Z</time>
      </trkpt>
      <trkpt lat="44.74215" lon="-0.33394">
        <ele>103</ele>
        <time>2012-06-30T13:51:18Z</time>
      </trkpt>
      <trkpt lat="44.74207" lon="-0.33384">
        <ele>102</ele>
        <time>2012-06-30T13:51:20Z</time>
      </trkpt>
      <trkpt lat="44.74197" lon="-0.33375">
        <ele>101</ele>
        <time>2012-06-30T13:51:22Z</time>
      </trkpt>
      <trkpt lat="44.74187" lon="-0.33368">
        <ele>100</ele>
        <time>2012-06-30T13:51:24Z</time>
      </trkpt>
      <trkpt lat="44.74176" lon="-0.33361">
        <ele>100</ele>
        <time>2012-06-30T13:51:26Z</time>
      </trkpt>
      <trkpt lat="44.74166" lon="-0.33353">
        <ele>99</ele>
        <time>2012-06-30T13:51:28Z</time>
      </trkpt>
      <trkpt lat="44.74157" lon="-0.33346">
        <ele>98</ele>
        <time>2012-06-30T13:51:30Z</time>
      </trkpt>
      <trkpt lat="44.74148" lon="-0.33339">
        <ele>98</ele>
        <time>2012-06-30T13:51:32Z</time>
      </trkpt>
      <trkpt lat="44.74137" lon="-0.33329">
        <ele>98</ele>
        <time>2012-06-30T13:51:34Z</time>
      </trkpt>
      <trkpt lat="44.74127" lon="-0.3332">
        <ele>97</ele>
        <time>2012-06-30T13:51:36Z</time>
      </trkpt>
      <trkpt lat="44.74116" lon="-0.3331">
        <ele>97</ele>
        <time>2012-06-30T13:51:38Z</time>
      </trkpt>
      <trkpt lat="44.74105" lon="-0.33301">
        <ele>97</ele>
        <time>2012-06-30T13:51:40Z</time>
      </trkpt>
      <trkpt lat="44.74096" lon="-0.33291">
        <ele>96</ele>
        <time>2012-06-30T13:51:42Z</time>
      </trkpt>
      <trkpt lat="44.74087" lon="-0.33282">
        <ele>95</ele>
        <time>2012-06-30T13:51:44Z</time>
      </trkpt>
      <trkpt lat="44.7408" lon="-0.33273">
        <ele>94</ele>
        <time>2012-06-30T13:51:46Z</time>
      </trkpt>
      <trkpt lat="44.74071" lon="-0.33264">
        <ele>93</ele>
        <time>2012-06-30T13:51:48Z</time>
      </trkpt>
      <trkpt lat="44.74062" lon="-0.33254">
        <ele>93</ele>
        <time>2012-06-30T13:51:50Z</time>
      </trkpt>
      <trkpt lat="44.74052" lon="-0.33244">
        <ele>92</ele>
        <time>2012-06-30T13:51:52Z</time>
      </trkpt>
      <trkpt lat="44.74041" lon="-0.33232">
        <ele>92</ele>
        <time>2012-06-30T13:51:54Z</time>
      </trkpt>
      <trkpt lat="44.7403" lon="-0.33221">
        <ele>91</ele>
        <time>2012-06-30T13:51:56Z</time>
      </trkpt>
      <trkpt lat="44.74018" lon="-0.33208">
        <ele>91</ele>
        <time>2012-06-30T13:51:58Z</time>
      </trkpt>
      <trkpt lat="44.74008" lon="-0.33196">
        <ele>90</ele>
        <time>2012-06-30T13:52:00Z</time>
      </trkpt>
      <trkpt lat="44.73999" lon="-0.33186">
        <ele>90</ele>
        <time>2012-06-30T13:52:02Z</time>
      </trkpt>
      <trkpt lat="44.73991" lon="-0.33175">
        <ele>90</ele>
        <time>2012-06-30T13:52:04Z</time>
      </trkpt>
      <trkpt lat="44.73982" lon="-0.33164">
        <ele>90</ele>
        <time>2012-06-30T13:52:06Z</time>
      </trkpt>
      <trkpt lat="44.73975" lon="-0.33153">
        <ele>89</ele>
        <time>2012-06-30T13:52:08Z</time>
      </trkpt>
      <trkpt lat="44.73968" lon="-0.33143">
        <ele>88</ele>
        <time>2012-06-30T13:52:10Z</time>
      </trkpt>
      <trkpt lat="44.73959" lon="-0.33128">
        <ele>87</ele>
        <time>2012-06-30T13:52:13Z</time>
      </trkpt>
      <trkpt lat="44.73952" lon="-0.33116">
        <ele>87</ele>
        <time>2012-06-30T13:52:15Z</time>
      </trkpt>
      <trkpt lat="44.73945" lon="-0.33105">
        <ele>86</ele>
        <time>2012-06-30T13:52:17Z</time>
      </trkpt>
      <trkpt lat="44.73938" lon="-0.33091">
        <ele>85</ele>
        <time>2012-06-30T13:52:19Z</time>
      </trkpt>
      <trkpt lat="44.73929" lon="-0.33079">
        <ele>83</ele>
        <time>2012-06-30T13:52:21Z</time>
      </trkpt>
      <trkpt lat="44.73922" lon="-0.33068">
        <ele>82</ele>
        <time>2012-06-30T13:52:23Z</time>
      </trkpt>
      <trkpt lat="44.73913" lon="-0.33057">
        <ele>81</ele>
        <time>2012-06-30T13:52:26Z</time>
      </trkpt>
      <trkpt lat="44.73902" lon="-0.33049">
        <ele>80</ele>
        <time>2012-06-30T13:52:29Z</time>
      </trkpt>
      <trkpt lat="44.73891" lon="-0.33041">
        <ele>79</ele>
        <time>2012-06-30T13:52:33Z</time>
      </trkpt>
      <trkpt lat="44.73883" lon="-0.33027">
        <ele>78</ele>
        <time>2012-06-30T13:52:36Z</time>
      </trkpt>
      <trkpt lat="44.73876" lon="-0.33015">
        <ele>77</ele>
        <time>2012-06-30T13:52:38Z</time>
      </trkpt>
      <trkpt lat="44.73868" lon="-0.33004">
        <ele>76</ele>
        <time>2012-06-30T13:52:40Z</time>
      </trkpt>
      <trkpt lat="44.73861" lon="-0.32992">
        <ele>75</ele>
        <time>2012-06-30T13:52:42Z</time>
      </trkpt>
      <trkpt lat="44.73854" lon="-0.32981">
        <ele>74</ele>
        <time>2012-06-30T13:52:44Z</time>
      </trkpt>
      <trkpt lat="44.73849" lon="-0.32969">
        <ele>73</ele>
        <time>2012-06-30T13:52:46Z</time>
      </trkpt>
      <trkpt lat="44.73844" lon="-0.32954">
        <ele>72</ele>
        <time>2012-06-30T13:52:49Z</time>
      </trkpt>
      <trkpt lat="44.73835" lon="-0.32946">
        <ele>71</ele>
        <time>2012-06-30T13:52:52Z</time>
      </trkpt>
      <trkpt lat="44.73825" lon="-0.32947">
        <ele>70</ele>
        <time>2012-06-30T13:52:54Z</time>
      </trkpt>
      <trkpt lat="44.73812" lon="-0.32948">
        <ele>70</ele>
        <time>2012-06-30T13:52:56Z</time>
      </trkpt>
      <trkpt lat="44.73797" lon="-0.32948">
        <ele>69</ele>
        <time>2012-06-30T13:52:58Z</time>
      </trkpt>
      <trkpt lat="44.73784" lon="-0.3295">
        <ele>68</ele>
        <time>2012-06-30T13:53:00Z</time>
      </trkpt>
      <trkpt lat="44.73771" lon="-0.32957">
        <ele>68</ele>
        <time>2012-06-30T13:53:02Z</time>
      </trkpt>
      <trkpt lat="44.73758" lon="-0.32961">
        <ele>66</ele>
        <time>2012-06-30T13:53:04Z</time>
      </trkpt>
      <trkpt lat="44.73746" lon="-0.32967">
        <ele>65</ele>
        <time>2012-06-30T13:53:06Z</time>
      </trkpt>
      <trkpt lat="44.73734" lon="-0.32974">
        <ele>63</ele>
        <time>2012-06-30T13:53:08Z</time>
      </trkpt>
      <trkpt lat="44.73723" lon="-0.3298">
        <ele>62</ele>
        <time>2012-06-30T13:53:10Z</time>
      </trkpt>
      <trkpt lat="44.73712" lon="-0.32985">
        <ele>60</ele>
        <time>2012-06-30T13:53:12Z</time>
      </trkpt>
      <trkpt lat="44.73702" lon="-0.3299">
        <ele>59</ele>
        <time>2012-06-30T13:53:14Z</time>
      </trkpt>
      <trkpt lat="44.73691" lon="-0.32994">
        <ele>57</ele>
        <time>2012-06-30T13:53:16Z</time>
      </trkpt>
      <trkpt lat="44.7368" lon="-0.32997">
        <ele>56</ele>
        <time>2012-06-30T13:53:18Z</time>
      </trkpt>
      <trkpt lat="44.7367" lon="-0.32994">
        <ele>55</ele>
        <time>2012-06-30T13:53:20Z</time>
      </trkpt>
      <trkpt lat="44.73658" lon="-0.32987">
        <ele>55</ele>
        <time>2012-06-30T13:53:22Z</time>
      </trkpt>
      <trkpt lat="44.73649" lon="-0.3298">
        <ele>55</ele>
        <time>2012-06-30T13:53:24Z</time>
      </trkpt>
      <trkpt lat="44.73638" lon="-0.32975">
        <ele>54</ele>
        <time>2012-06-30T13:53:26Z</time>
      </trkpt>
      <trkpt lat="44.73625" lon="-0.32972">
        <ele>54</ele>
        <time>2012-06-30T13:53:29Z</time>
      </trkpt>
      <trkpt lat="44.73611" lon="-0.32967">
        <ele>54</ele>
        <time>2012-06-30T13:53:32Z</time>
      </trkpt>
      <trkpt lat="44.73601" lon="-0.32965">
        <ele>54</ele>
        <time>2012-06-30T13:53:34Z</time>
      </trkpt>
      <trkpt lat="44.73591" lon="-0.32964">
        <ele>55</ele>
        <time>2012-06-30T13:53:36Z</time>
      </trkpt>
      <trkpt lat="44.73579" lon="-0.32966">
        <ele>55</ele>
        <time>2012-06-30T13:53:39Z</time>
      </trkpt>
      <trkpt lat="44.73567" lon="-0.3297">
        <ele>55</ele>
        <time>2012-06-30T13:53:42Z</time>
      </trkpt>
      <trkpt lat="44.73555" lon="-0.32975">
        <ele>55</ele>
        <time>2012-06-30T13:53:45Z</time>
      </trkpt>
      <trkpt lat="44.73545" lon="-0.32978">
        <ele>55</ele>
        <time>2012-06-30T13:53:49Z</time>
      </trkpt>
      <trkpt lat="44.73533" lon="-0.32981">
        <ele>55</ele>
        <time>2012-06-30T13:53:52Z</time>
      </trkpt>
      <trkpt lat="44.7352" lon="-0.3298">
        <ele>54</ele>
        <time>2012-06-30T13:53:55Z</time>
      </trkpt>
      <trkpt lat="44.73511" lon="-0.32981">
        <ele>54</ele>
        <time>2012-06-30T13:53:57Z</time>
      </trkpt>
      <trkpt lat="44.73496" lon="-0.32983">
        <ele>54</ele>
        <time>2012-06-30T13:54:00Z</time>
      </trkpt>
      <trkpt lat="44.73486" lon="-0.32985">
        <ele>54</ele>
        <time>2012-06-30T13:54:02Z</time>
      </trkpt>
      <trkpt lat="44.73473" lon="-0.32987">
        <ele>54</ele>
        <time>2012-06-30T13:54:05Z</time>
      </trkpt>
      <trkpt lat="44.73462" lon="-0.3299">
        <ele>54</ele>
        <time>2012-06-30T13:54:07Z</time>
      </trkpt>
      <trkpt lat="44.73452" lon="-0.32992">
        <ele>55</ele>
        <time>2012-06-30T13:54:09Z</time>
      </trkpt>
      <trkpt lat="44.73442" lon="-0.32999">
        <ele>55</ele>
        <time>2012-06-30T13:54:11Z</time>
      </trkpt>
      <trkpt lat="44.73432" lon="-0.33004">
        <ele>56</ele>
        <time>2012-06-30T13:54:13Z</time>
      </trkpt>
      <trkpt lat="44.73422" lon="-0.3301">
        <ele>56</ele>
        <time>2012-06-30T13:54:15Z</time>
      </trkpt>
      <trkpt lat="44.73413" lon="-0.33013">
        <ele>56</ele>
        <time>2012-06-30T13:54:17Z</time>
      </trkpt>
      <trkpt lat="44.73403" lon="-0.3302">
        <ele>57</ele>
        <time>2012-06-30T13:54:21Z</time>
      </trkpt>
      <trkpt lat="44.73394" lon="-0.33027">
        <ele>57</ele>
        <time>2012-06-30T13:54:26Z</time>
      </trkpt>
      <trkpt lat="44.73384" lon="-0.33034">
        <ele>58</ele>
        <time>2012-06-30T13:54:31Z</time>
      </trkpt>
      <trkpt lat="44.73374" lon="-0.33036">
        <ele>58</ele>
        <time>2012-06-30T13:54:36Z</time>
      </trkpt>
      <trkpt lat="44.73365" lon="-0.33037">
        <ele>59</ele>
        <time>2012-06-30T13:54:41Z</time>
      </trkpt>
      <trkpt lat="44.73355" lon="-0.33043">
        <ele>59</ele>
        <time>2012-06-30T13:54:46Z</time>
      </trkpt>
      <trkpt lat="44.7335" lon="-0.33054">
        <ele>59</ele>
        <time>2012-06-30T13:54:55Z</time>
      </trkpt>
      <trkpt lat="44.73351" lon="-0.33069">
        <ele>60</ele>
        <time>2012-06-30T13:55:03Z</time>
      </trkpt>
      <trkpt lat="44.7335" lon="-0.33084">
        <ele>61</ele>
        <time>2012-06-30T13:55:10Z</time>
      </trkpt>
      <trkpt lat="44.73346" lon="-0.33098">
        <ele>62</ele>
        <time>2012-06-30T13:55:15Z</time>
      </trkpt>
      <trkpt lat="44.73343" lon="-0.33112">
        <ele>63</ele>
        <time>2012-06-30T13:55:20Z</time>
      </trkpt>
      <trkpt lat="44.73342" lon="-0.33127">
        <ele>64</ele>
        <time>2012-06-30T13:55:26Z</time>
      </trkpt>
      <trkpt lat="44.73352" lon="-0.33133">
        <ele>64</ele>
        <time>2012-06-30T13:55:32Z</time>
      </trkpt>
      <trkpt lat="44.73363" lon="-0.33135">
        <ele>64</ele>
        <time>2012-06-30T13:55:37Z</time>
      </trkpt>
      <trkpt lat="44.73374" lon="-0.33138">
        <ele>64</ele>
        <time>2012-06-30T13:55:41Z</time>
      </trkpt>
      <trkpt lat="44.73384" lon="-0.33142">
        <ele>64</ele>
        <time>2012-06-30T13:55:45Z</time>
      </trkpt>
      <trkpt lat="44.73393" lon="-0.33145">
        <ele>64</ele>
        <time>2012-06-30T13:55:49Z</time>
      </trkpt>
      <trkpt lat="44.73403" lon="-0.3315">
        <ele>64</ele>
        <time>2012-06-30T13:55:54Z</time>
      </trkpt>
      <trkpt lat="44.73413" lon="-0.33154">
        <ele>65</ele>
        <time>2012-06-30T13:55:59Z</time>
      </trkpt>
      <trkpt lat="44.73422" lon="-0.3316">
        <ele>67</ele>
        <time>2012-06-30T13:56:05Z</time>
      </trkpt>
      <trkpt lat="44.73432" lon="-0.33168">
        <ele>69</ele>
        <time>2012-06-30T13:56:11Z</time>
      </trkpt>
      <trkpt lat="44.73441" lon="-0.33171">
        <ele>70</ele>
        <time>2012-06-30T13:56:15Z</time>
      </trkpt>
      <trkpt lat="44.73452" lon="-0.33177">
        <ele>72</ele>
        <time>2012-06-30T13:56:20Z</time>
      </trkpt>
      <trkpt lat="44.73462" lon="-0.33183">
        <ele>72</ele>
        <time>2012-06-30T13:56:25Z</time>
      </trkpt>
      <trkpt lat="44.73466" lon="-0.33195">
        <ele>73</ele>
        <time>2012-06-30T13:56:30Z</time>
      </trkpt>
      <trkpt lat="44.73468" lon="-0.33211">
        <ele>74</ele>
        <time>2012-06-30T13:56:35Z</time>
      </trkpt>
      <trkpt lat="44.73468" lon="-0.33224">
        <ele>75</ele>
        <time>2012-06-30T13:56:40Z</time>
      </trkpt>
      <trkpt lat="44.73468" lon="-0.33238">
        <ele>76</ele>
        <time>2012-06-30T13:56:45Z</time>
      </trkpt>
      <trkpt lat="44.7347" lon="-0.33252">
        <ele>77</ele>
        <time>2012-06-30T13:56:50Z</time>
      </trkpt>
      <trkpt lat="44.73472" lon="-0.33267">
        <ele>78</ele>
        <time>2012-06-30T13:56:56Z</time>
      </trkpt>
      <trkpt lat="44.73472" lon="-0.33283">
        <ele>79</ele>
        <time>2012-06-30T13:57:02Z</time>
      </trkpt>
      <trkpt lat="44.73473" lon="-0.33298">
        <ele>81</ele>
        <time>2012-06-30T13:57:08Z</time>
      </trkpt>
      <trkpt lat="44.73474" lon="-0.33311">
        <ele>82</ele>
        <time>2012-06-30T13:57:13Z</time>
      </trkpt>
      <trkpt lat="44.73475" lon="-0.33327">
        <ele>83</ele>
        <time>2012-06-30T13:57:19Z</time>
      </trkpt>
      <trkpt lat="44.73476" lon="-0.3334">
        <ele>84</ele>
        <time>2012-06-30T13:57:24Z</time>
      </trkpt>
      <trkpt lat="44.73477" lon="-0.33355">
        <ele>85</ele>
        <time>2012-06-30T13:57:30Z</time>
      </trkpt>
      <trkpt lat="44.73476" lon="-0.33369">
        <ele>86</ele>
        <time>2012-06-30T13:57:36Z</time>
      </trkpt>
      <trkpt lat="44.73474" lon="-0.33382">
        <ele>87</ele>
        <time>2012-06-30T13:57:42Z</time>
      </trkpt>
      <trkpt lat="44.7347" lon="-0.33395">
        <ele>88</ele>
        <time>2012-06-30T13:57:48Z</time>
      </trkpt>
      <trkpt lat="44.73465" lon="-0.33408">
        <ele>88</ele>
        <time>2012-06-30T13:57:54Z</time>
      </trkpt>
      <trkpt lat="44.73459" lon="-0.33419">
        <ele>89</ele>
        <time>2012-06-30T13:58:00Z</time>
      </trkpt>
      <trkpt lat="44.73452" lon="-0.33431">
        <ele>90</ele>
        <time>2012-06-30T13:58:06Z</time>
      </trkpt>
      <trkpt lat="44.73446" lon="-0.33442">
        <ele>91</ele>
        <time>2012-06-30T13:58:11Z</time>
      </trkpt>
      <trkpt lat="44.7344" lon="-0.33452">
        <ele>91</ele>
        <time>2012-06-30T13:58:15Z</time>
      </trkpt>
      <trkpt lat="44.73433" lon="-0.33463">
        <ele>91</ele>
        <time>2012-06-30T13:58:20Z</time>
      </trkpt>
      <trkpt lat="44.73425" lon="-0.33475">
        <ele>91</ele>
        <time>2012-06-30T13:58:25Z</time>
      </trkpt>
      <trkpt lat="44.73419" lon="-0.33485">
        <ele>91</ele>
        <time>2012-06-30T13:58:29Z</time>
      </trkpt>
      <trkpt lat="44.7341" lon="-0.33495">
        <ele>92</ele>
        <time>2012-06-30T13:58:35Z</time>
      </trkpt>
      <trkpt lat="44.73402" lon="-0.33504">
        <ele>93</ele>
        <time>2012-06-30T13:58:41Z</time>
      </trkpt>
      <trkpt lat="44.73397" lon="-0.33515">
        <ele>93</ele>
        <time>2012-06-30T13:58:47Z</time>
      </trkpt>
      <trkpt lat="44.73389" lon="-0.33526">
        <ele>94</ele>
        <time>2012-06-30T13:58:53Z</time>
      </trkpt>
      <trkpt lat="44.73383" lon="-0.33539">
        <ele>94</ele>
        <time>2012-06-30T13:58:59Z</time>
      </trkpt>
      <trkpt lat="44.73379" lon="-0.3355">
        <ele>95</ele>
        <time>2012-06-30T13:59:12Z</time>
      </trkpt>
      <trkpt lat="44.73386" lon="-0.33564">
        <ele>94</ele>
        <time>2012-06-30T13:59:45Z</time>
      </trkpt>
      <trkpt lat="44.73393" lon="-0.33574">
        <ele>94</ele>
        <time>2012-06-30T13:59:49Z</time>
      </trkpt>
      <trkpt lat="44.734" lon="-0.33587">
        <ele>94</ele>
        <time>2012-06-30T13:59:53Z</time>
      </trkpt>
      <trkpt lat="44.73393" lon="-0.33601">
        <ele>95</ele>
        <time>2012-06-30T13:59:57Z</time>
      </trkpt>
      <trkpt lat="44.73386" lon="-0.3361">
        <ele>96</ele>
        <time>2012-06-30T14:00:01Z</time>
      </trkpt>
      <trkpt lat="44.73377" lon="-0.33619">
        <ele>97</ele>
        <time>2012-06-30T14:00:05Z</time>
      </trkpt>
      <trkpt lat="44.73371" lon="-0.33631">
        <ele>97</ele>
        <time>2012-06-30T14:00:10Z</time>
      </trkpt>
      <trkpt lat="44.73367" lon="-0.33644">
        <ele>98</ele>
        <time>2012-06-30T14:00:15Z</time>
      </trkpt>
      <trkpt lat="44.73367" lon="-0.33659">
        <ele>97</ele>
        <time>2012-06-30T14:00:20Z</time>
      </trkpt>
      <trkpt lat="44.73368" lon="-0.33675">
        <ele>97</ele>
        <time>2012-06-30T14:00:24Z</time>
      </trkpt>
      <trkpt lat="44.73372" lon="-0.33689">
        <ele>97</ele>
        <time>2012-06-30T14:00:27Z</time>
      </trkpt>
      <trkpt lat="44.73374" lon="-0.33704">
        <ele>97</ele>
        <time>2012-06-30T14:00:30Z</time>
      </trkpt>
      <trkpt lat="44.73375" lon="-0.33721">
        <ele>96</ele>
        <time>2012-06-30T14:00:33Z</time>
      </trkpt>
      <trkpt lat="44.73377" lon="-0.33736">
        <ele>95</ele>
        <time>2012-06-30T14:00:36Z</time>
      </trkpt>
      <trkpt lat="44.73377" lon="-0.33752">
        <ele>94</ele>
        <time>2012-06-30T14:00:41Z</time>
      </trkpt>
      <trkpt lat="44.73367" lon="-0.33757">
        <ele>94</ele>
        <time>2012-06-30T14:00:47Z</time>
      </trkpt>
      <trkpt lat="44.73356" lon="-0.33759">
        <ele>93</ele>
        <time>2012-06-30T14:00:51Z</time>
      </trkpt>
      <trkpt lat="44.73346" lon="-0.33759">
        <ele>93</ele>
        <time>2012-06-30T14:00:55Z</time>
      </trkpt>
      <trkpt lat="44.73335" lon="-0.33757">
        <ele>93</ele>
        <time>2012-06-30T14:00:59Z</time>
      </trkpt>
      <trkpt lat="44.73324" lon="-0.33756">
        <ele>93</ele>
        <time>2012-06-30T14:01:03Z</time>
      </trkpt>
      <trkpt lat="44.73312" lon="-0.33757">
        <ele>93</ele>
        <time>2012-06-30T14:01:06Z</time>
      </trkpt>
      <trkpt lat="44.73302" lon="-0.3376">
        <ele>93</ele>
        <time>2012-06-30T14:01:09Z</time>
      </trkpt>
      <trkpt lat="44.73287" lon="-0.3377">
        <ele>93</ele>
        <time>2012-06-30T14:01:13Z</time>
      </trkpt>
      <trkpt lat="44.73278" lon="-0.33777">
        <ele>92</ele>
        <time>2012-06-30T14:01:16Z</time>
      </trkpt>
      <trkpt lat="44.73269" lon="-0.33784">
        <ele>92</ele>
        <time>2012-06-30T14:01:19Z</time>
      </trkpt>
      <trkpt lat="44.73259" lon="-0.3379">
        <ele>92</ele>
        <time>2012-06-30T14:01:22Z</time>
      </trkpt>
      <trkpt lat="44.73251" lon="-0.33796">
        <ele>91</ele>
        <time>2012-06-30T14:01:25Z</time>
      </trkpt>
      <trkpt lat="44.73239" lon="-0.33805">
        <ele>91</ele>
        <time>2012-06-30T14:01:29Z</time>
      </trkpt>
      <trkpt lat="44.73229" lon="-0.33812">
        <ele>91</ele>
        <time>2012-06-30T14:01:32Z</time>
      </trkpt>
      <trkpt lat="44.73221" lon="-0.33818">
        <ele>91</ele>
        <time>2012-06-30T14:01:34Z</time>
      </trkpt>
      <trkpt lat="44.7321" lon="-0.33826">
        <ele>92</ele>
        <time>2012-06-30T14:01:37Z</time>
      </trkpt>
      <trkpt lat="44.73201" lon="-0.33832">
        <ele>91</ele>
        <time>2012-06-30T14:01:39Z</time>
      </trkpt>
      <trkpt lat="44.73191" lon="-0.3384">
        <ele>91</ele>
        <time>2012-06-30T14:01:41Z</time>
      </trkpt>
      <trkpt lat="44.73182" lon="-0.33846">
        <ele>91</ele>
        <time>2012-06-30T14:01:43Z</time>
      </trkpt>
      <trkpt lat="44.73172" lon="-0.33853">
        <ele>91</ele>
        <time>2012-06-30T14:01:45Z</time>
      </trkpt>
      <trkpt lat="44.73164" lon="-0.33859">
        <ele>91</ele>
        <time>2012-06-30T14:01:47Z</time>
      </trkpt>
      <trkpt lat="44.73154" lon="-0.33866">
        <ele>90</ele>
        <time>2012-06-30T14:01:49Z</time>
      </trkpt>
      <trkpt lat="44.73145" lon="-0.33873">
        <ele>90</ele>
        <time>2012-06-30T14:01:51Z</time>
      </trkpt>
      <trkpt lat="44.73134" lon="-0.33884">
        <ele>90</ele>
        <time>2012-06-30T14:01:54Z</time>
      </trkpt>
      <trkpt lat="44.73126" lon="-0.3389">
        <ele>90</ele>
        <time>2012-06-30T14:01:56Z</time>
      </trkpt>
      <trkpt lat="44.73117" lon="-0.33896">
        <ele>90</ele>
        <time>2012-06-30T14:01:58Z</time>
      </trkpt>
      <trkpt lat="44.73109" lon="-0.33902">
        <ele>89</ele>
        <time>2012-06-30T14:02:00Z</time>
      </trkpt>
      <trkpt lat="44.73098" lon="-0.33912">
        <ele>89</ele>
        <time>2012-06-30T14:02:03Z</time>
      </trkpt>
      <trkpt lat="44.73085" lon="-0.33921">
        <ele>89</ele>
        <time>2012-06-30T14:02:06Z</time>
      </trkpt>
      <trkpt lat="44.73077" lon="-0.33928">
        <ele>89</ele>
        <time>2012-06-30T14:02:08Z</time>
      </trkpt>
      <trkpt lat="44.73069" lon="-0.33934">
        <ele>89</ele>
        <time>2012-06-30T14:02:10Z</time>
      </trkpt>
      <trkpt lat="44.73057" lon="-0.33944">
        <ele>89</ele>
        <time>2012-06-30T14:02:13Z</time>
      </trkpt>
      <trkpt lat="44.73047" lon="-0.33953">
        <ele>89</ele>
        <time>2012-06-30T14:02:16Z</time>
      </trkpt>
      <trkpt lat="44.73043" lon="-0.33968">
        <ele>87</ele>
        <time>2012-06-30T14:02:20Z</time>
      </trkpt>
      <trkpt lat="44.73045" lon="-0.33983">
        <ele>86</ele>
        <time>2012-06-30T14:02:23Z</time>
      </trkpt>
      <trkpt lat="44.73049" lon="-0.33999">
        <ele>84</ele>
        <time>2012-06-30T14:02:26Z</time>
      </trkpt>
      <trkpt lat="44.73055" lon="-0.34011">
        <ele>82</ele>
        <time>2012-06-30T14:02:29Z</time>
      </trkpt>
      <trkpt lat="44.73064" lon="-0.34027">
        <ele>80</ele>
        <time>2012-06-30T14:02:32Z</time>
      </trkpt>
      <trkpt lat="44.73073" lon="-0.34044">
        <ele>78</ele>
        <time>2012-06-30T14:02:34Z</time>
      </trkpt>
      <trkpt lat="44.7308" lon="-0.34061">
        <ele>75</ele>
        <time>2012-06-30T14:02:36Z</time>
      </trkpt>
      <trkpt lat="44.73083" lon="-0.34081">
        <ele>73</ele>
        <time>2012-06-30T14:02:38Z</time>
      </trkpt>
      <trkpt lat="44.73089" lon="-0.34101">
        <ele>71</ele>
        <time>2012-06-30T14:02:40Z</time>
      </trkpt>
      <trkpt lat="44.73094" lon="-0.3412">
        <ele>69</ele>
        <time>2012-06-30T14:02:42Z</time>
      </trkpt>
      <trkpt lat="44.73098" lon="-0.34139">
        <ele>67</ele>
        <time>2012-06-30T14:02:44Z</time>
      </trkpt>
      <trkpt lat="44.731" lon="-0.34155">
        <ele>66</ele>
        <time>2012-06-30T14:02:46Z</time>
      </trkpt>
      <trkpt lat="44.73103" lon="-0.34172">
        <ele>65</ele>
        <time>2012-06-30T14:02:48Z</time>
      </trkpt>
      <trkpt lat="44.73105" lon="-0.34189">
        <ele>64</ele>
        <time>2012-06-30T14:02:50Z</time>
      </trkpt>
      <trkpt lat="44.73106" lon="-0.34207">
        <ele>62</ele>
        <time>2012-06-30T14:02:52Z</time>
      </trkpt>
      <trkpt lat="44.73105" lon="-0.34225">
        <ele>61</ele>
        <time>2012-06-30T14:02:54Z</time>
      </trkpt>
      <trkpt lat="44.73105" lon="-0.3424">
        <ele>60</ele>
        <time>2012-06-30T14:02:56Z</time>
      </trkpt>
      <trkpt lat="44.73103" lon="-0.34254">
        <ele>59</ele>
        <time>2012-06-30T14:02:58Z</time>
      </trkpt>
      <trkpt lat="44.73101" lon="-0.34269">
        <ele>59</ele>
        <time>2012-06-30T14:03:01Z</time>
      </trkpt>
      <trkpt lat="44.73097" lon="-0.34281">
        <ele>58</ele>
        <time>2012-06-30T14:03:06Z</time>
      </trkpt>
      <trkpt lat="44.73094" lon="-0.34294">
        <ele>58</ele>
        <time>2012-06-30T14:03:21Z</time>
      </trkpt>
      <trkpt lat="44.73099" lon="-0.34308">
        <ele>57</ele>
        <time>2012-06-30T14:03:25Z</time>
      </trkpt>
      <trkpt lat="44.73108" lon="-0.34317">
        <ele>56</ele>
        <time>2012-06-30T14:03:28Z</time>
      </trkpt>
      <trkpt lat="44.73115" lon="-0.34331">
        <ele>56</ele>
        <time>2012-06-30T14:03:31Z</time>
      </trkpt>
      <trkpt lat="44.73122" lon="-0.34342">
        <ele>57</ele>
        <time>2012-06-30T14:03:33Z</time>
      </trkpt>
      <trkpt lat="44.73128" lon="-0.34354">
        <ele>57</ele>
        <time>2012-06-30T14:03:35Z</time>
      </trkpt>
      <trkpt lat="44.73132" lon="-0.34367">
        <ele>58</ele>
        <time>2012-06-30T14:03:37Z</time>
      </trkpt>
      <trkpt lat="44.73137" lon="-0.34383">
        <ele>58</ele>
        <time>2012-06-30T14:03:40Z</time>
      </trkpt>
      <trkpt lat="44.73142" lon="-0.34399">
        <ele>59</ele>
        <time>2012-06-30T14:03:44Z</time>
      </trkpt>
      <trkpt lat="44.73144" lon="-0.34413">
        <ele>59</ele>
        <time>2012-06-30T14:03:47Z</time>
      </trkpt>
      <trkpt lat="44.73148" lon="-0.34427">
        <ele>60</ele>
        <time>2012-06-30T14:03:51Z</time>
      </trkpt>
      <trkpt lat="44.7315" lon="-0.34444">
        <ele>60</ele>
        <time>2012-06-30T14:03:55Z</time>
      </trkpt>
      <trkpt lat="44.7315" lon="-0.34458">
        <ele>60</ele>
        <time>2012-06-30T14:03:58Z</time>
      </trkpt>
      <trkpt lat="44.73151" lon="-0.34474">
        <ele>59</ele>
        <time>2012-06-30T14:04:02Z</time>
      </trkpt>
      <trkpt lat="44.73151" lon="-0.34487">
        <ele>59</ele>
        <time>2012-06-30T14:04:05Z</time>
      </trkpt>
      <trkpt lat="44.73152" lon="-0.34504">
        <ele>58</ele>
        <time>2012-06-30T14:04:08Z</time>
      </trkpt>
      <trkpt lat="44.73153" lon="-0.34523">
        <ele>57</ele>
        <time>2012-06-30T14:04:11Z</time>
      </trkpt>
      <trkpt lat="44.73155" lon="-0.34542">
        <ele>56</ele>
        <time>2012-06-30T14:04:14Z</time>
      </trkpt>
      <trkpt lat="44.73156" lon="-0.34556">
        <ele>56</ele>
        <time>2012-06-30T14:04:16Z</time>
      </trkpt>
      <trkpt lat="44.73156" lon="-0.34575">
        <ele>55</ele>
        <time>2012-06-30T14:04:19Z</time>
      </trkpt>
      <trkpt lat="44.73156" lon="-0.34591">
        <ele>55</ele>
        <time>2012-06-30T14:04:23Z</time>
      </trkpt>
      <trkpt lat="44.73156" lon="-0.34607">
        <ele>55</ele>
        <time>2012-06-30T14:04:27Z</time>
      </trkpt>
      <trkpt lat="44.73155" lon="-0.34621">
        <ele>55</ele>
        <time>2012-06-30T14:04:30Z</time>
      </trkpt>
      <trkpt lat="44.73155" lon="-0.34638">
        <ele>54</ele>
        <time>2012-06-30T14:04:33Z</time>
      </trkpt>
      <trkpt lat="44.73154" lon="-0.34652">
        <ele>54</ele>
        <time>2012-06-30T14:04:35Z</time>
      </trkpt>
      <trkpt lat="44.73154" lon="-0.34665">
        <ele>54</ele>
        <time>2012-06-30T14:04:37Z</time>
      </trkpt>
      <trkpt lat="44.73153" lon="-0.34684">
        <ele>53</ele>
        <time>2012-06-30T14:04:40Z</time>
      </trkpt>
      <trkpt lat="44.73152" lon="-0.34704">
        <ele>52</ele>
        <time>2012-06-30T14:04:43Z</time>
      </trkpt>
      <trkpt lat="44.73151" lon="-0.34718">
        <ele>52</ele>
        <time>2012-06-30T14:04:45Z</time>
      </trkpt>
      <trkpt lat="44.73149" lon="-0.34733">
        <ele>52</ele>
        <time>2012-06-30T14:04:47Z</time>
      </trkpt>
      <trkpt lat="44.73149" lon="-0.34748">
        <ele>52</ele>
        <time>2012-06-30T14:04:49Z</time>
      </trkpt>
      <trkpt lat="44.73149" lon="-0.34765">
        <ele>52</ele>
        <time>2012-06-30T14:04:52Z</time>
      </trkpt>
      <trkpt lat="44.7315" lon="-0.34778">
        <ele>52</ele>
        <time>2012-06-30T14:04:55Z</time>
      </trkpt>
      <trkpt lat="44.7315" lon="-0.34792">
        <ele>52</ele>
        <time>2012-06-30T14:05:00Z</time>
      </trkpt>
      <trkpt lat="44.73144" lon="-0.34805">
        <ele>51</ele>
        <time>2012-06-30T14:05:06Z</time>
      </trkpt>
      <trkpt lat="44.73138" lon="-0.34818">
        <ele>51</ele>
        <time>2012-06-30T14:05:11Z</time>
      </trkpt>
      <trkpt lat="44.73136" lon="-0.34831">
        <ele>50</ele>
        <time>2012-06-30T14:05:29Z</time>
      </trkpt>
      <trkpt lat="44.73136" lon="-0.34846">
        <ele>49</ele>
        <time>2012-06-30T14:05:40Z</time>
      </trkpt>
      <trkpt lat="44.73139" lon="-0.3486">
        <ele>47</ele>
        <time>2012-06-30T14:05:44Z</time>
      </trkpt>
      <trkpt lat="44.73142" lon="-0.34873">
        <ele>46</ele>
        <time>2012-06-30T14:05:50Z</time>
      </trkpt>
      <trkpt lat="44.73144" lon="-0.34887">
        <ele>44</ele>
        <time>2012-06-30T14:05:54Z</time>
      </trkpt>
      <trkpt lat="44.73153" lon="-0.34893">
        <ele>43</ele>
        <time>2012-06-30T14:05:58Z</time>
      </trkpt>
      <trkpt lat="44.73162" lon="-0.34899">
        <ele>43</ele>
        <time>2012-06-30T14:06:04Z</time>
      </trkpt>
      <trkpt lat="44.73172" lon="-0.34904">
        <ele>43</ele>
        <time>2012-06-30T14:06:08Z</time>
      </trkpt>
      <trkpt lat="44.7318" lon="-0.34911">
        <ele>43</ele>
        <time>2012-06-30T14:06:11Z</time>
      </trkpt>
      <trkpt lat="44.7319" lon="-0.34916">
        <ele>43</ele>
        <time>2012-06-30T14:06:14Z</time>
      </trkpt>
      <trkpt lat="44.73199" lon="-0.3492">
        <ele>43</ele>
        <time>2012-06-30T14:06:17Z</time>
      </trkpt>
      <trkpt lat="44.73208" lon="-0.34927">
        <ele>43</ele>
        <time>2012-06-30T14:06:21Z</time>
      </trkpt>
      <trkpt lat="44.73217" lon="-0.34932">
        <ele>43</ele>
        <time>2012-06-30T14:06:25Z</time>
      </trkpt>
      <trkpt lat="44.73227" lon="-0.34933">
        <ele>43</ele>
        <time>2012-06-30T14:06:28Z</time>
      </trkpt>
      <trkpt lat="44.73237" lon="-0.34939">
        <ele>43</ele>
        <time>2012-06-30T14:06:32Z</time>
      </trkpt>
      <trkpt lat="44.73246" lon="-0.34942">
        <ele>43</ele>
        <time>2012-06-30T14:06:35Z</time>
      </trkpt>
      <trkpt lat="44.73256" lon="-0.34946">
        <ele>43</ele>
        <time>2012-06-30T14:06:38Z</time>
      </trkpt>
      <trkpt lat="44.73267" lon="-0.34947">
        <ele>43</ele>
        <time>2012-06-30T14:06:41Z</time>
      </trkpt>
      <trkpt lat="44.73279" lon="-0.34949">
        <ele>43</ele>
        <time>2012-06-30T14:06:44Z</time>
      </trkpt>
      <trkpt lat="44.73289" lon="-0.34949">
        <ele>44</ele>
        <time>2012-06-30T14:06:46Z</time>
      </trkpt>
      <trkpt lat="44.73303" lon="-0.34951">
        <ele>44</ele>
        <time>2012-06-30T14:06:49Z</time>
      </trkpt>
      <trkpt lat="44.73316" lon="-0.34948">
        <ele>45</ele>
        <time>2012-06-30T14:06:52Z</time>
      </trkpt>
      <trkpt lat="44.73326" lon="-0.34944">
        <ele>46</ele>
        <time>2012-06-30T14:06:55Z</time>
      </trkpt>
      <trkpt lat="44.73336" lon="-0.34935">
        <ele>48</ele>
        <time>2012-06-30T14:07:01Z</time>
      </trkpt>
      <trkpt lat="44.73346" lon="-0.3493">
        <ele>48</ele>
        <time>2012-06-30T14:07:04Z</time>
      </trkpt>
      <trkpt lat="44.73358" lon="-0.3493">
        <ele>48</ele>
        <time>2012-06-30T14:07:07Z</time>
      </trkpt>
      <trkpt lat="44.73371" lon="-0.34929">
        <ele>48</ele>
        <time>2012-06-30T14:07:10Z</time>
      </trkpt>
      <trkpt lat="44.73383" lon="-0.34931">
        <ele>48</ele>
        <time>2012-06-30T14:07:14Z</time>
      </trkpt>
      <trkpt lat="44.73393" lon="-0.34932">
        <ele>48</ele>
        <time>2012-06-30T14:07:18Z</time>
      </trkpt>
      <trkpt lat="44.73405" lon="-0.34933">
        <ele>48</ele>
        <time>2012-06-30T14:07:21Z</time>
      </trkpt>
      <trkpt lat="44.73415" lon="-0.34932">
        <ele>47</ele>
        <time>2012-06-30T14:07:23Z</time>
      </trkpt>
      <trkpt lat="44.73427" lon="-0.34931">
        <ele>47</ele>
        <time>2012-06-30T14:07:25Z</time>
      </trkpt>
      <trkpt lat="44.7344" lon="-0.34932">
        <ele>47</ele>
        <time>2012-06-30T14:07:27Z</time>
      </trkpt>
      <trkpt lat="44.73449" lon="-0.34934">
        <ele>47</ele>
        <time>2012-06-30T14:07:29Z</time>
      </trkpt>
      <trkpt lat="44.73461" lon="-0.34939">
        <ele>47</ele>
        <time>2012-06-30T14:07:32Z</time>
      </trkpt>
      <trkpt lat="44.73473" lon="-0.34941">
        <ele>48</ele>
        <time>2012-06-30T14:07:35Z</time>
      </trkpt>
      <trkpt lat="44.73477" lon="-0.34952">
        <ele>48</ele>
        <time>2012-06-30T14:09:29Z</time>
      </trkpt>
      <trkpt lat="44.73484" lon="-0.3496">
        <ele>49</ele>
        <time>2012-06-30T14:10:00Z</time>
      </trkpt>
      <trkpt lat="44.73494" lon="-0.34962">
        <ele>49</ele>
        <time>2012-06-30T14:10:14Z</time>
      </trkpt>
      <trkpt lat="44.73504" lon="-0.34952">
        <ele>49</ele>
        <time>2012-06-30T14:10:28Z</time>
      </trkpt>
      <trkpt lat="44.73512" lon="-0.34946">
        <ele>49</ele>
        <time>2012-06-30T14:10:51Z</time>
      </trkpt>
      <trkpt lat="44.73521" lon="-0.34951">
        <ele>49</ele>
        <time>2012-06-30T14:11:08Z</time>
      </trkpt>
      <trkpt lat="44.73531" lon="-0.34953">
        <ele>49</ele>
        <time>2012-06-30T14:11:55Z</time>
      </trkpt>
      <trkpt lat="44.73535" lon="-0.34966">
        <ele>50</ele>
        <time>2012-06-30T14:12:19Z</time>
      </trkpt>
      <trkpt lat="44.73526" lon="-0.3497">
        <ele>50</ele>
        <time>2012-06-30T14:12:24Z</time>
      </trkpt>
      <trkpt lat="44.73516" lon="-0.34971">
        <ele>50</ele>
        <time>2012-06-30T14:12:30Z</time>
      </trkpt>
      <trkpt lat="44.73505" lon="-0.34975">
        <ele>50</ele>
        <time>2012-06-30T14:12:36Z</time>
      </trkpt>
      <trkpt lat="44.73496" lon="-0.34974">
        <ele>50</ele>
        <time>2012-06-30T14:12:45Z</time>
      </trkpt>
      <trkpt lat="44.73488" lon="-0.34984">
        <ele>51</ele>
        <time>2012-06-30T14:12:57Z</time>
      </trkpt>
      <trkpt lat="44.73489" lon="-0.34998">
        <ele>53</ele>
        <time>2012-06-30T14:13:08Z</time>
      </trkpt>
      <trkpt lat="44.73496" lon="-0.35007">
        <ele>54</ele>
        <time>2012-06-30T14:13:30Z</time>
      </trkpt>
      <trkpt lat="44.73503" lon="-0.35018">
        <ele>56</ele>
        <time>2012-06-30T14:13:49Z</time>
      </trkpt>
      <trkpt lat="44.73513" lon="-0.35022">
        <ele>56</ele>
        <time>2012-06-30T14:14:02Z</time>
      </trkpt>
      <trkpt lat="44.73523" lon="-0.35024">
        <ele>56</ele>
        <time>2012-06-30T14:14:09Z</time>
      </trkpt>
      <trkpt lat="44.73534" lon="-0.35019">
        <ele>56</ele>
        <time>2012-06-30T14:14:14Z</time>
      </trkpt>
      <trkpt lat="44.73545" lon="-0.35018">
        <ele>56</ele>
        <time>2012-06-30T14:14:17Z</time>
      </trkpt>
      <trkpt lat="44.73555" lon="-0.35015">
        <ele>56</ele>
        <time>2012-06-30T14:14:23Z</time>
      </trkpt>
      <trkpt lat="44.73559" lon="-0.35027">
        <ele>57</ele>
        <time>2012-06-30T14:14:40Z</time>
      </trkpt>
      <trkpt lat="44.73566" lon="-0.35015">
        <ele>56</ele>
        <time>2012-06-30T14:14:47Z</time>
      </trkpt>
      <trkpt lat="44.73577" lon="-0.35013">
        <ele>56</ele>
        <time>2012-06-30T14:14:51Z</time>
      </trkpt>
      <trkpt lat="44.73587" lon="-0.35012">
        <ele>56</ele>
        <time>2012-06-30T14:14:56Z</time>
      </trkpt>
      <trkpt lat="44.73596" lon="-0.35015">
        <ele>56</ele>
        <time>2012-06-30T14:15:04Z</time>
      </trkpt>
      <trkpt lat="44.73594" lon="-0.35027">
        <ele>57</ele>
        <time>2012-06-30T14:15:12Z</time>
      </trkpt>
      <trkpt lat="44.73586" lon="-0.35037">
        <ele>59</ele>
        <time>2012-06-30T14:15:18Z</time>
      </trkpt>
      <trkpt lat="44.73582" lon="-0.3505">
        <ele>60</ele>
        <time>2012-06-30T14:15:22Z</time>
      </trkpt>
      <trkpt lat="44.73581" lon="-0.35064">
        <ele>61</ele>
        <time>2012-06-30T14:15:29Z</time>
      </trkpt>
      <trkpt lat="44.73582" lon="-0.35078">
        <ele>62</ele>
        <time>2012-06-30T14:15:44Z</time>
      </trkpt>
      <trkpt lat="44.73579" lon="-0.35091">
        <ele>63</ele>
        <time>2012-06-30T14:15:51Z</time>
      </trkpt>
      <trkpt lat="44.73578" lon="-0.35105">
        <ele>64</ele>
        <time>2012-06-30T14:15:58Z</time>
      </trkpt>
      <trkpt lat="44.7358" lon="-0.35119">
        <ele>65</ele>
        <time>2012-06-30T14:16:28Z</time>
      </trkpt>
      <trkpt lat="44.73589" lon="-0.35125">
        <ele>66</ele>
        <time>2012-06-30T14:16:48Z</time>
      </trkpt>
      <trkpt lat="44.73586" lon="-0.35112">
        <ele>65</ele>
        <time>2012-06-30T14:17:21Z</time>
      </trkpt>
      <trkpt lat="44.73586" lon="-0.35098">
        <ele>64</ele>
        <time>2012-06-30T14:18:03Z</time>
      </trkpt>
      <trkpt lat="44.73594" lon="-0.35088">
        <ele>63</ele>
        <time>2012-06-30T14:18:14Z</time>
      </trkpt>
      <trkpt lat="44.73603" lon="-0.35087">
        <ele>63</ele>
        <time>2012-06-30T14:18:19Z</time>
      </trkpt>
      <trkpt lat="44.73613" lon="-0.35086">
        <ele>62</ele>
        <time>2012-06-30T14:18:27Z</time>
      </trkpt>
      <trkpt lat="44.73619" lon="-0.35076">
        <ele>62</ele>
        <time>2012-06-30T14:18:39Z</time>
      </trkpt>
      <trkpt lat="44.73621" lon="-0.35061">
        <ele>60</ele>
        <time>2012-06-30T14:18:44Z</time>
      </trkpt>
      <trkpt lat="44.73627" lon="-0.35048">
        <ele>59</ele>
        <time>2012-06-30T14:18:49Z</time>
      </trkpt>
      <trkpt lat="44.73632" lon="-0.35033">
        <ele>58</ele>
        <time>2012-06-30T14:18:55Z</time>
      </trkpt>
      <trkpt lat="44.73637" lon="-0.35021">
        <ele>57</ele>
        <time>2012-06-30T14:19:01Z</time>
      </trkpt>
      <trkpt lat="44.73644" lon="-0.35008">
        <ele>56</ele>
        <time>2012-06-30T14:19:06Z</time>
      </trkpt>
      <trkpt lat="44.7365" lon="-0.34994">
        <ele>54</ele>
        <time>2012-06-30T14:19:11Z</time>
      </trkpt>
      <trkpt lat="44.73659" lon="-0.34989">
        <ele>54</ele>
        <time>2012-06-30T14:19:18Z</time>
      </trkpt>
      <trkpt lat="44.73666" lon="-0.34979">
        <ele>53</ele>
        <time>2012-06-30T14:19:22Z</time>
      </trkpt>
      <trkpt lat="44.73671" lon="-0.34968">
        <ele>52</ele>
        <time>2012-06-30T14:19:27Z</time>
      </trkpt>
      <trkpt lat="44.73675" lon="-0.34955">
        <ele>52</ele>
        <time>2012-06-30T14:19:31Z</time>
      </trkpt>
      <trkpt lat="44.73674" lon="-0.34942">
        <ele>52</ele>
        <time>2012-06-30T14:19:35Z</time>
      </trkpt>
      <trkpt lat="44.73676" lon="-0.34955">
        <ele>52</ele>
        <time>2012-06-30T14:20:41Z</time>
      </trkpt>
      <trkpt lat="44.73678" lon="-0.34941">
        <ele>52</ele>
        <time>2012-06-30T14:21:30Z</time>
      </trkpt>
      <trkpt lat="44.73674" lon="-0.34929">
        <ele>51</ele>
        <time>2012-06-30T14:21:56Z</time>
      </trkpt>
      <trkpt lat="44.73674" lon="-0.34916">
        <ele>51</ele>
        <time>2012-06-30T14:22:00Z</time>
      </trkpt>
      <trkpt lat="44.7368" lon="-0.34902">
        <ele>51</ele>
        <time>2012-06-30T14:22:06Z</time>
      </trkpt>
      <trkpt lat="44.73685" lon="-0.3489">
        <ele>51</ele>
        <time>2012-06-30T14:22:11Z</time>
      </trkpt>
      <trkpt lat="44.73689" lon="-0.34877">
        <ele>51</ele>
        <time>2012-06-30T14:22:16Z</time>
      </trkpt>
      <trkpt lat="44.73691" lon="-0.34864">
        <ele>50</ele>
        <time>2012-06-30T14:22:35Z</time>
      </trkpt>
      <trkpt lat="44.73695" lon="-0.34851">
        <ele>50</ele>
        <time>2012-06-30T14:22:41Z</time>
      </trkpt>
      <trkpt lat="44.73701" lon="-0.3484">
        <ele>51</ele>
        <time>2012-06-30T14:22:46Z</time>
      </trkpt>
      <trkpt lat="44.73711" lon="-0.3484">
        <ele>51</ele>
        <time>2012-06-30T14:22:55Z</time>
      </trkpt>
      <trkpt lat="44.73721" lon="-0.34839">
        <ele>51</ele>
        <time>2012-06-30T14:23:00Z</time>
      </trkpt>
      <trkpt lat="44.73731" lon="-0.34835">
        <ele>51</ele>
        <time>2012-06-30T14:23:06Z</time>
      </trkpt>
      <trkpt lat="44.7374" lon="-0.34834">
        <ele>52</ele>
        <time>2012-06-30T14:23:12Z</time>
      </trkpt>
      <trkpt lat="44.73749" lon="-0.34828">
        <ele>52</ele>
        <time>2012-06-30T14:23:17Z</time>
      </trkpt>
      <trkpt lat="44.73758" lon="-0.34824">
        <ele>51</ele>
        <time>2012-06-30T14:23:23Z</time>
      </trkpt>
      <trkpt lat="44.73765" lon="-0.34813">
        <ele>51</ele>
        <time>2012-06-30T14:23:28Z</time>
      </trkpt>
      <trkpt lat="44.73773" lon="-0.34805">
        <ele>50</ele>
        <time>2012-06-30T14:23:35Z</time>
      </trkpt>
      <trkpt lat="44.73783" lon="-0.34805">
        <ele>50</ele>
        <time>2012-06-30T14:23:39Z</time>
      </trkpt>
      <trkpt lat="44.73791" lon="-0.34819">
        <ele>51</ele>
        <time>2012-06-30T14:23:45Z</time>
      </trkpt>
      <trkpt lat="44.73794" lon="-0.34833">
        <ele>53</ele>
        <time>2012-06-30T14:23:50Z</time>
      </trkpt>
      <trkpt lat="44.73796" lon="-0.34847">
        <ele>54</ele>
        <time>2012-06-30T14:23:55Z</time>
      </trkpt>
      <trkpt lat="44.73794" lon="-0.34861">
        <ele>55</ele>
        <time>2012-06-30T14:24:02Z</time>
      </trkpt>
      <trkpt lat="44.73799" lon="-0.34872">
        <ele>57</ele>
        <time>2012-06-30T14:24:08Z</time>
      </trkpt>
      <trkpt lat="44.73797" lon="-0.34884">
        <ele>58</ele>
        <time>2012-06-30T14:24:16Z</time>
      </trkpt>
      <trkpt lat="44.73799" lon="-0.34898">
        <ele>60</ele>
        <time>2012-06-30T14:24:22Z</time>
      </trkpt>
      <trkpt lat="44.73803" lon="-0.34912">
        <ele>61</ele>
        <time>2012-06-30T14:24:28Z</time>
      </trkpt>
      <trkpt lat="44.73807" lon="-0.34927">
        <ele>63</ele>
        <time>2012-06-30T14:24:37Z</time>
      </trkpt>
      <trkpt lat="44.73815" lon="-0.34933">
        <ele>63</ele>
        <time>2012-06-30T14:24:48Z</time>
      </trkpt>
      <trkpt lat="44.73826" lon="-0.3493">
        <ele>62</ele>
        <time>2012-06-30T14:24:55Z</time>
      </trkpt>
      <trkpt lat="44.73836" lon="-0.34931">
        <ele>62</ele>
        <time>2012-06-30T14:25:05Z</time>
      </trkpt>
      <trkpt lat="44.73844" lon="-0.34923">
        <ele>61</ele>
        <time>2012-06-30T14:25:12Z</time>
      </trkpt>
      <trkpt lat="44.73855" lon="-0.34923">
        <ele>60</ele>
        <time>2012-06-30T14:25:18Z</time>
      </trkpt>
      <trkpt lat="44.73864" lon="-0.34927">
        <ele>60</ele>
        <time>2012-06-30T14:25:22Z</time>
      </trkpt>
      <trkpt lat="44.73874" lon="-0.34924">
        <ele>60</ele>
        <time>2012-06-30T14:25:27Z</time>
      </trkpt>
      <trkpt lat="44.73879" lon="-0.34912">
        <ele>58</ele>
        <time>2012-06-30T14:25:31Z</time>
      </trkpt>
      <trkpt lat="44.73879" lon="-0.34896">
        <ele>56</ele>
        <time>2012-06-30T14:25:37Z</time>
      </trkpt>
      <trkpt lat="44.73874" lon="-0.34883">
        <ele>54</ele>
        <time>2012-06-30T14:25:40Z</time>
      </trkpt>
      <trkpt lat="44.73874" lon="-0.34867">
        <ele>53</ele>
        <time>2012-06-30T14:25:45Z</time>
      </trkpt>
      <trkpt lat="44.73884" lon="-0.3487">
        <ele>52</ele>
        <time>2012-06-30T14:25:51Z</time>
      </trkpt>
      <trkpt lat="44.73892" lon="-0.34878">
        <ele>53</ele>
        <time>2012-06-30T14:25:57Z</time>
      </trkpt>
      <trkpt lat="44.739" lon="-0.34888">
        <ele>54</ele>
        <time>2012-06-30T14:26:02Z</time>
      </trkpt>
      <trkpt lat="44.73908" lon="-0.34896">
        <ele>55</ele>
        <time>2012-06-30T14:26:05Z</time>
      </trkpt>
      <trkpt lat="44.73911" lon="-0.34909">
        <ele>56</ele>
        <time>2012-06-30T14:26:10Z</time>
      </trkpt>
      <trkpt lat="44.73918" lon="-0.34919">
        <ele>58</ele>
        <time>2012-06-30T14:26:22Z</time>
      </trkpt>
      <trkpt lat="44.73927" lon="-0.3492">
        <ele>58</ele>
        <time>2012-06-30T14:26:30Z</time>
      </trkpt>
      <trkpt lat="44.73938" lon="-0.34923">
        <ele>58</ele>
        <time>2012-06-30T14:26:36Z</time>
      </trkpt>
      <trkpt lat="44.7395" lon="-0.34921">
        <ele>58</ele>
        <time>2012-06-30T14:26:41Z</time>
      </trkpt>
      <trkpt lat="44.73954" lon="-0.34906">
        <ele>56</ele>
        <time>2012-06-30T14:26:45Z</time>
      </trkpt>
      <trkpt lat="44.73954" lon="-0.3489">
        <ele>55</ele>
        <time>2012-06-30T14:26:48Z</time>
      </trkpt>
      <trkpt lat="44.73959" lon="-0.34877">
        <ele>54</ele>
        <time>2012-06-30T14:26:54Z</time>
      </trkpt>
      <trkpt lat="44.73968" lon="-0.34872">
        <ele>53</ele>
        <time>2012-06-30T14:26:59Z</time>
      </trkpt>
      <trkpt lat="44.73979" lon="-0.34869">
        <ele>52</ele>
        <time>2012-06-30T14:27:05Z</time>
      </trkpt>
      <trkpt lat="44.73989" lon="-0.34865">
        <ele>53</ele>
        <time>2012-06-30T14:27:11Z</time>
      </trkpt>
      <trkpt lat="44.73998" lon="-0.34861">
        <ele>53</ele>
        <time>2012-06-30T14:27:17Z</time>
      </trkpt>
      <trkpt lat="44.74008" lon="-0.34857">
        <ele>54</ele>
        <time>2012-06-30T14:27:23Z</time>
      </trkpt>
      <trkpt lat="44.74019" lon="-0.34853">
        <ele>55</ele>
        <time>2012-06-30T14:27:29Z</time>
      </trkpt>
      <trkpt lat="44.74029" lon="-0.34852">
        <ele>56</ele>
        <time>2012-06-30T14:27:34Z</time>
      </trkpt>
      <trkpt lat="44.74038" lon="-0.34849">
        <ele>56</ele>
        <time>2012-06-30T14:27:38Z</time>
      </trkpt>
      <trkpt lat="44.74048" lon="-0.34845">
        <ele>57</ele>
        <time>2012-06-30T14:27:42Z</time>
      </trkpt>
      <trkpt lat="44.74057" lon="-0.3484">
        <ele>57</ele>
        <time>2012-06-30T14:27:46Z</time>
      </trkpt>
      <trkpt lat="44.74066" lon="-0.34836">
        <ele>57</ele>
        <time>2012-06-30T14:27:50Z</time>
      </trkpt>
      <trkpt lat="44.74076" lon="-0.34832">
        <ele>57</ele>
        <time>2012-06-30T14:27:55Z</time>
      </trkpt>
      <trkpt lat="44.74085" lon="-0.34827">
        <ele>56</ele>
        <time>2012-06-30T14:27:59Z</time>
      </trkpt>
      <trkpt lat="44.74093" lon="-0.34819">
        <ele>56</ele>
        <time>2012-06-30T14:28:03Z</time>
      </trkpt>
      <trkpt lat="44.74099" lon="-0.34808">
        <ele>56</ele>
        <time>2012-06-30T14:28:10Z</time>
      </trkpt>
      <trkpt lat="44.74101" lon="-0.34794">
        <ele>57</ele>
        <time>2012-06-30T14:28:21Z</time>
      </trkpt>
      <trkpt lat="44.74109" lon="-0.34786">
        <ele>58</ele>
        <time>2012-06-30T14:28:31Z</time>
      </trkpt>
      <trkpt lat="44.74117" lon="-0.34779">
        <ele>58</ele>
        <time>2012-06-30T14:28:39Z</time>
      </trkpt>
      <trkpt lat="44.74125" lon="-0.34773">
        <ele>58</ele>
        <time>2012-06-30T14:28:44Z</time>
      </trkpt>
      <trkpt lat="44.74135" lon="-0.34765">
        <ele>58</ele>
        <time>2012-06-30T14:28:49Z</time>
      </trkpt>
      <trkpt lat="44.74142" lon="-0.34756">
        <ele>58</ele>
        <time>2012-06-30T14:28:52Z</time>
      </trkpt>
      <trkpt lat="44.74148" lon="-0.34746">
        <ele>59</ele>
        <time>2012-06-30T14:28:58Z</time>
      </trkpt>
      <trkpt lat="44.74154" lon="-0.34732">
        <ele>60</ele>
        <time>2012-06-30T14:29:02Z</time>
      </trkpt>
      <trkpt lat="44.74159" lon="-0.34718">
        <ele>60</ele>
        <time>2012-06-30T14:29:06Z</time>
      </trkpt>
      <trkpt lat="44.74161" lon="-0.34704">
        <ele>61</ele>
        <time>2012-06-30T14:29:10Z</time>
      </trkpt>
      <trkpt lat="44.74166" lon="-0.34692">
        <ele>61</ele>
        <time>2012-06-30T14:29:15Z</time>
      </trkpt>
      <trkpt lat="44.74172" lon="-0.34681">
        <ele>61</ele>
        <time>2012-06-30T14:29:18Z</time>
      </trkpt>
      <trkpt lat="44.7418" lon="-0.3467">
        <ele>62</ele>
        <time>2012-06-30T14:29:22Z</time>
      </trkpt>
      <trkpt lat="44.74186" lon="-0.34658">
        <ele>62</ele>
        <time>2012-06-30T14:29:26Z</time>
      </trkpt>
      <trkpt lat="44.74194" lon="-0.34648">
        <ele>63</ele>
        <time>2012-06-30T14:29:31Z</time>
      </trkpt>
      <trkpt lat="44.74203" lon="-0.34637">
        <ele>63</ele>
        <time>2012-06-30T14:29:34Z</time>
      </trkpt>
      <trkpt lat="44.74211" lon="-0.34627">
        <ele>62</ele>
        <time>2012-06-30T14:29:38Z</time>
      </trkpt>
      <trkpt lat="44.74219" lon="-0.34616">
        <ele>62</ele>
        <time>2012-06-30T14:29:43Z</time>
      </trkpt>
      <trkpt lat="44.74226" lon="-0.34605">
        <ele>63</ele>
        <time>2012-06-30T14:29:50Z</time>
      </trkpt>
      <trkpt lat="44.74237" lon="-0.34603">
        <ele>63</ele>
        <time>2012-06-30T14:29:55Z</time>
      </trkpt>
      <trkpt lat="44.74247" lon="-0.346">
        <ele>63</ele>
        <time>2012-06-30T14:29:59Z</time>
      </trkpt>
      <trkpt lat="44.74258" lon="-0.34596">
        <ele>63</ele>
        <time>2012-06-30T14:30:05Z</time>
      </trkpt>
      <trkpt lat="44.74267" lon="-0.34599">
        <ele>63</ele>
        <time>2012-06-30T14:30:09Z</time>
      </trkpt>
      <trkpt lat="44.74277" lon="-0.346">
        <ele>63</ele>
        <time>2012-06-30T14:30:18Z</time>
      </trkpt>
      <trkpt lat="44.74287" lon="-0.346">
        <ele>63</ele>
        <time>2012-06-30T14:30:24Z</time>
      </trkpt>
      <trkpt lat="44.74297" lon="-0.346">
        <ele>63</ele>
        <time>2012-06-30T14:30:30Z</time>
      </trkpt>
      <trkpt lat="44.74307" lon="-0.34606">
        <ele>64</ele>
        <time>2012-06-30T14:30:34Z</time>
      </trkpt>
      <trkpt lat="44.74315" lon="-0.34613">
        <ele>64</ele>
        <time>2012-06-30T14:30:37Z</time>
      </trkpt>
      <trkpt lat="44.74324" lon="-0.34623">
        <ele>65</ele>
        <time>2012-06-30T14:30:42Z</time>
      </trkpt>
      <trkpt lat="44.74333" lon="-0.34629">
        <ele>66</ele>
        <time>2012-06-30T14:30:48Z</time>
      </trkpt>
      <trkpt lat="44.74342" lon="-0.34633">
        <ele>67</ele>
        <time>2012-06-30T14:30:54Z</time>
      </trkpt>
      <trkpt lat="44.74351" lon="-0.34628">
        <ele>67</ele>
        <time>2012-06-30T14:31:01Z</time>
      </trkpt>
      <trkpt lat="44.74361" lon="-0.34631">
        <ele>68</ele>
        <time>2012-06-30T14:31:05Z</time>
      </trkpt>
      <trkpt lat="44.7437" lon="-0.34636">
        <ele>70</ele>
        <time>2012-06-30T14:31:09Z</time>
      </trkpt>
      <trkpt lat="44.74381" lon="-0.34639">
        <ele>72</ele>
        <time>2012-06-30T14:31:15Z</time>
      </trkpt>
      <trkpt lat="44.74379" lon="-0.34626">
        <ele>71</ele>
        <time>2012-06-30T14:31:31Z</time>
      </trkpt>
      <trkpt lat="44.7437" lon="-0.34615">
        <ele>70</ele>
        <time>2012-06-30T14:31:41Z</time>
      </trkpt>
      <trkpt lat="44.74365" lon="-0.346">
        <ele>68</ele>
        <time>2012-06-30T14:31:48Z</time>
      </trkpt>
      <trkpt lat="44.74355" lon="-0.34593">
        <ele>67</ele>
        <time>2012-06-30T14:31:53Z</time>
      </trkpt>
      <trkpt lat="44.74339" lon="-0.34579">
        <ele>65</ele>
        <time>2012-06-30T14:32:00Z</time>
      </trkpt>
      <trkpt lat="44.74329" lon="-0.34565">
        <ele>64</ele>
        <time>2012-06-30T14:32:02Z</time>
      </trkpt>
      <trkpt lat="44.74326" lon="-0.34552">
        <ele>64</ele>
        <time>2012-06-30T14:32:08Z</time>
      </trkpt>
      <trkpt lat="44.74331" lon="-0.34538">
        <ele>65</ele>
        <time>2012-06-30T14:32:17Z</time>
      </trkpt>
      <trkpt lat="44.74333" lon="-0.34523">
        <ele>65</ele>
        <time>2012-06-30T14:32:23Z</time>
      </trkpt>
      <trkpt lat="44.7434" lon="-0.34514">
        <ele>65</ele>
        <time>2012-06-30T14:32:27Z</time>
      </trkpt>
      <trkpt lat="44.74348" lon="-0.34504">
        <ele>66</ele>
        <time>2012-06-30T14:32:32Z</time>
      </trkpt>
      <trkpt lat="44.74356" lon="-0.34492">
        <ele>66</ele>
        <time>2012-06-30T14:32:40Z</time>
      </trkpt>
      <trkpt lat="44.74361" lon="-0.34481">
        <ele>66</ele>
        <time>2012-06-30T14:32:44Z</time>
      </trkpt>
      <trkpt lat="44.74371" lon="-0.34472">
        <ele>67</ele>
        <time>2012-06-30T14:32:51Z</time>
      </trkpt>
      <trkpt lat="44.74377" lon="-0.34459">
        <ele>68</ele>
        <time>2012-06-30T14:32:56Z</time>
      </trkpt>
      <trkpt lat="44.74383" lon="-0.34449">
        <ele>69</ele>
        <time>2012-06-30T14:33:00Z</time>
      </trkpt>
      <trkpt lat="44.74388" lon="-0.34437">
        <ele>70</ele>
        <time>2012-06-30T14:33:05Z</time>
      </trkpt>
      <trkpt lat="44.74389" lon="-0.34423">
        <ele>70</ele>
        <time>2012-06-30T14:33:09Z</time>
      </trkpt>
      <trkpt lat="44.74391" lon="-0.34409">
        <ele>69</ele>
        <time>2012-06-30T14:33:13Z</time>
      </trkpt>
      <trkpt lat="44.74399" lon="-0.34397">
        <ele>69</ele>
        <time>2012-06-30T14:33:22Z</time>
      </trkpt>
      <trkpt lat="44.74407" lon="-0.34388">
        <ele>69</ele>
        <time>2012-06-30T14:33:28Z</time>
      </trkpt>
      <trkpt lat="44.74415" lon="-0.34379">
        <ele>70</ele>
        <time>2012-06-30T14:33:36Z</time>
      </trkpt>
      <trkpt lat="44.74422" lon="-0.34368">
        <ele>71</ele>
        <time>2012-06-30T14:33:42Z</time>
      </trkpt>
      <trkpt lat="44.7443" lon="-0.34359">
        <ele>72</ele>
        <time>2012-06-30T14:33:46Z</time>
      </trkpt>
      <trkpt lat="44.7444" lon="-0.34353">
        <ele>74</ele>
        <time>2012-06-30T14:33:51Z</time>
      </trkpt>
      <trkpt lat="44.74448" lon="-0.34344">
        <ele>75</ele>
        <time>2012-06-30T14:33:57Z</time>
      </trkpt>
      <trkpt lat="44.74457" lon="-0.34338">
        <ele>76</ele>
        <time>2012-06-30T14:34:02Z</time>
      </trkpt>
      <trkpt lat="44.74466" lon="-0.34344">
        <ele>77</ele>
        <time>2012-06-30T14:34:08Z</time>
      </trkpt>
      <trkpt lat="44.74472" lon="-0.34353">
        <ele>78</ele>
        <time>2012-06-30T14:34:16Z</time>
      </trkpt>
      <trkpt lat="44.74479" lon="-0.34363">
        <ele>79</ele>
        <time>2012-06-30T14:34:23Z</time>
      </trkpt>
      <trkpt lat="44.74488" lon="-0.3437">
        <ele>80</ele>
        <time>2012-06-30T14:34:32Z</time>
      </trkpt>
      <trkpt lat="44.74494" lon="-0.34385">
        <ele>80</ele>
        <time>2012-06-30T14:34:41Z</time>
      </trkpt>
      <trkpt lat="44.74501" lon="-0.34395">
        <ele>81</ele>
        <time>2012-06-30T14:34:48Z</time>
      </trkpt>
      <trkpt lat="44.74506" lon="-0.34406">
        <ele>83</ele>
        <time>2012-06-30T14:34:57Z</time>
      </trkpt>
      <trkpt lat="44.7451" lon="-0.34419">
        <ele>84</ele>
        <time>2012-06-30T14:35:11Z</time>
      </trkpt>
      <trkpt lat="44.7451" lon="-0.34432">
        <ele>85</ele>
        <time>2012-06-30T14:35:28Z</time>
      </trkpt>
      <trkpt lat="44.74511" lon="-0.34446">
        <ele>86</ele>
        <time>2012-06-30T14:35:43Z</time>
      </trkpt>
      <trkpt lat="44.74517" lon="-0.34458">
        <ele>87</ele>
        <time>2012-06-30T14:35:58Z</time>
      </trkpt>
      <trkpt lat="44.74527" lon="-0.3446">
        <ele>88</ele>
        <time>2012-06-30T14:38:11Z</time>
      </trkpt>
      <trkpt lat="44.74536" lon="-0.34464">
        <ele>89</ele>
        <time>2012-06-30T14:38:17Z</time>
      </trkpt>
      <trkpt lat="44.74546" lon="-0.34468">
        <ele>90</ele>
        <time>2012-06-30T14:38:23Z</time>
      </trkpt>
      <trkpt lat="44.74555" lon="-0.34472">
        <ele>91</ele>
        <time>2012-06-30T14:38:28Z</time>
      </trkpt>
      <trkpt lat="44.74565" lon="-0.34474">
        <ele>92</ele>
        <time>2012-06-30T14:38:33Z</time>
      </trkpt>
      <trkpt lat="44.7457" lon="-0.3446">
        <ele>92</ele>
        <time>2012-06-30T14:38:38Z</time>
      </trkpt>
      <trkpt lat="44.74575" lon="-0.34448">
        <ele>91</ele>
        <time>2012-06-30T14:38:41Z</time>
      </trkpt>
      <trkpt lat="44.7458" lon="-0.34437">
        <ele>91</ele>
        <time>2012-06-30T14:38:44Z</time>
      </trkpt>
      <trkpt lat="44.74591" lon="-0.34432">
        <ele>92</ele>
        <time>2012-06-30T14:38:48Z</time>
      </trkpt>
      <trkpt lat="44.74602" lon="-0.34433">
        <ele>93</ele>
        <time>2012-06-30T14:38:53Z</time>
      </trkpt>
      <trkpt lat="44.74611" lon="-0.34435">
        <ele>94</ele>
        <time>2012-06-30T14:38:58Z</time>
      </trkpt>
      <trkpt lat="44.7462" lon="-0.3444">
        <ele>95</ele>
        <time>2012-06-30T14:39:03Z</time>
      </trkpt>
      <trkpt lat="44.74631" lon="-0.34443">
        <ele>96</ele>
        <time>2012-06-30T14:39:09Z</time>
      </trkpt>
      <trkpt lat="44.7464" lon="-0.34447">
        <ele>97</ele>
        <time>2012-06-30T14:39:13Z</time>
      </trkpt>
      <trkpt lat="44.74649" lon="-0.34451">
        <ele>98</ele>
        <time>2012-06-30T14:39:18Z</time>
      </trkpt>
      <trkpt lat="44.74657" lon="-0.34443">
        <ele>98</ele>
        <time>2012-06-30T14:39:27Z</time>
      </trkpt>
      <trkpt lat="44.7466" lon="-0.34428">
        <ele>98</ele>
        <time>2012-06-30T14:39:33Z</time>
      </trkpt>
      <trkpt lat="44.74663" lon="-0.34414">
        <ele>98</ele>
        <time>2012-06-30T14:39:39Z</time>
      </trkpt>
      <trkpt lat="44.74666" lon="-0.344">
        <ele>98</ele>
        <time>2012-06-30T14:39:44Z</time>
      </trkpt>
      <trkpt lat="44.74668" lon="-0.34387">
        <ele>98</ele>
        <time>2012-06-30T14:39:49Z</time>
      </trkpt>
      <trkpt lat="44.74673" lon="-0.34373">
        <ele>99</ele>
        <time>2012-06-30T14:39:55Z</time>
      </trkpt>
      <trkpt lat="44.74683" lon="-0.34377">
        <ele>99</ele>
        <time>2012-06-30T14:40:01Z</time>
      </trkpt>
      <trkpt lat="44.74694" lon="-0.34381">
        <ele>100</ele>
        <time>2012-06-30T14:40:06Z</time>
      </trkpt>
      <trkpt lat="44.74705" lon="-0.34385">
        <ele>100</ele>
        <time>2012-06-30T14:40:11Z</time>
      </trkpt>
      <trkpt lat="44.74716" lon="-0.34388">
        <ele>101</ele>
        <time>2012-06-30T14:40:16Z</time>
      </trkpt>
      <trkpt lat="44.74726" lon="-0.34393">
        <ele>101</ele>
        <time>2012-06-30T14:40:21Z</time>
      </trkpt>
      <trkpt lat="44.74737" lon="-0.34397">
        <ele>101</ele>
        <time>2012-06-30T14:40:26Z</time>
      </trkpt>
      <trkpt lat="44.74746" lon="-0.344">
        <ele>101</ele>
        <time>2012-06-30T14:40:30Z</time>
      </trkpt>
      <trkpt lat="44.74756" lon="-0.34403">
        <ele>101</ele>
        <time>2012-06-30T14:40:35Z</time>
      </trkpt>
      <trkpt lat="44.74766" lon="-0.34404">
        <ele>101</ele>
        <time>2012-06-30T14:40:40Z</time>
      </trkpt>
      <trkpt lat="44.74772" lon="-0.34391">
        <ele>101</ele>
        <time>2012-06-30T14:40:45Z</time>
      </trkpt>
      <trkpt lat="44.74779" lon="-0.34378">
        <ele>101</ele>
        <time>2012-06-30T14:40:50Z</time>
      </trkpt>
      <trkpt lat="44.74785" lon="-0.34367">
        <ele>102</ele>
        <time>2012-06-30T14:40:54Z</time>
      </trkpt>
      <trkpt lat="44.74791" lon="-0.34355">
        <ele>102</ele>
        <time>2012-06-30T14:40:59Z</time>
      </trkpt>
      <trkpt lat="44.74801" lon="-0.34356">
        <ele>102</ele>
        <time>2012-06-30T14:41:05Z</time>
      </trkpt>
      <trkpt lat="44.74811" lon="-0.34362">
        <ele>102</ele>
        <time>2012-06-30T14:41:11Z</time>
      </trkpt>
      <trkpt lat="44.7482" lon="-0.34369">
        <ele>102</ele>
        <time>2012-06-30T14:41:16Z</time>
      </trkpt>
      <trkpt lat="44.74829" lon="-0.34374">
        <ele>101</ele>
        <time>2012-06-30T14:41:20Z</time>
      </trkpt>
      <trkpt lat="44.74838" lon="-0.3438">
        <ele>101</ele>
        <time>2012-06-30T14:41:24Z</time>
      </trkpt>
      <trkpt lat="44.74849" lon="-0.34387">
        <ele>101</ele>
        <time>2012-06-30T14:41:28Z</time>
      </trkpt>
      <trkpt lat="44.74859" lon="-0.34393">
        <ele>101</ele>
        <time>2012-06-30T14:41:32Z</time>
      </trkpt>
      <trkpt lat="44.7487" lon="-0.34399">
        <ele>101</ele>
        <time>2012-06-30T14:41:36Z</time>
      </trkpt>
      <trkpt lat="44.74881" lon="-0.34406">
        <ele>101</ele>
        <time>2012-06-30T14:41:40Z</time>
      </trkpt>
      <trkpt lat="44.74893" lon="-0.34414">
        <ele>101</ele>
        <time>2012-06-30T14:41:44Z</time>
      </trkpt>
      <trkpt lat="44.74902" lon="-0.34419">
        <ele>101</ele>
        <time>2012-06-30T14:41:47Z</time>
      </trkpt>
      <trkpt lat="44.74913" lon="-0.34426">
        <ele>101</ele>
        <time>2012-06-30T14:41:51Z</time>
      </trkpt>
      <trkpt lat="44.74924" lon="-0.34432">
        <ele>100</ele>
        <time>2012-06-30T14:41:55Z</time>
      </trkpt>
      <trkpt lat="44.74934" lon="-0.34439">
        <ele>100</ele>
        <time>2012-06-30T14:41:59Z</time>
      </trkpt>
      <trkpt lat="44.74945" lon="-0.34437">
        <ele>100</ele>
        <time>2012-06-30T14:42:03Z</time>
      </trkpt>
      <trkpt lat="44.74952" lon="-0.34426">
        <ele>100</ele>
        <time>2012-06-30T14:42:07Z</time>
      </trkpt>
      <trkpt lat="44.74962" lon="-0.34428">
        <ele>99</ele>
        <time>2012-06-30T14:42:11Z</time>
      </trkpt>
      <trkpt lat="44.7497" lon="-0.34437">
        <ele>99</ele>
        <time>2012-06-30T14:42:14Z</time>
      </trkpt>
      <trkpt lat="44.74977" lon="-0.34446">
        <ele>99</ele>
        <time>2012-06-30T14:42:17Z</time>
      </trkpt>
      <trkpt lat="44.74984" lon="-0.34456">
        <ele>98</ele>
        <time>2012-06-30T14:42:20Z</time>
      </trkpt>
      <trkpt lat="44.7499" lon="-0.34468">
        <ele>98</ele>
        <time>2012-06-30T14:42:23Z</time>
      </trkpt>
      <trkpt lat="44.74996" lon="-0.3448">
        <ele>98</ele>
        <time>2012-06-30T14:42:26Z</time>
      </trkpt>
      <trkpt lat="44.75002" lon="-0.34494">
        <ele>97</ele>
        <time>2012-06-30T14:42:30Z</time>
      </trkpt>
      <trkpt lat="44.75011" lon="-0.34502">
        <ele>97</ele>
        <time>2012-06-30T14:42:34Z</time>
      </trkpt>
      <trkpt lat="44.7502" lon="-0.34501">
        <ele>96</ele>
        <time>2012-06-30T14:42:37Z</time>
      </trkpt>
      <trkpt lat="44.75031" lon="-0.34502">
        <ele>96</ele>
        <time>2012-06-30T14:42:40Z</time>
      </trkpt>
      <trkpt lat="44.75043" lon="-0.34502">
        <ele>95</ele>
        <time>2012-06-30T14:42:43Z</time>
      </trkpt>
      <trkpt lat="44.75054" lon="-0.34498">
        <ele>94</ele>
        <time>2012-06-30T14:42:46Z</time>
      </trkpt>
      <trkpt lat="44.75066" lon="-0.34496">
        <ele>93</ele>
        <time>2012-06-30T14:42:49Z</time>
      </trkpt>
      <trkpt lat="44.75076" lon="-0.34495">
        <ele>93</ele>
        <time>2012-06-30T14:42:52Z</time>
      </trkpt>
      <trkpt lat="44.75089" lon="-0.34493">
        <ele>91</ele>
        <time>2012-06-30T14:42:55Z</time>
      </trkpt>
      <trkpt lat="44.75102" lon="-0.3449">
        <ele>90</ele>
        <time>2012-06-30T14:42:58Z</time>
      </trkpt>
      <trkpt lat="44.75113" lon="-0.34487">
        <ele>89</ele>
        <time>2012-06-30T14:43:01Z</time>
      </trkpt>
      <trkpt lat="44.75123" lon="-0.3449">
        <ele>87</ele>
        <time>2012-06-30T14:43:04Z</time>
      </trkpt>
      <trkpt lat="44.75128" lon="-0.34502">
        <ele>87</ele>
        <time>2012-06-30T14:43:07Z</time>
      </trkpt>
      <trkpt lat="44.7513" lon="-0.34514">
        <ele>87</ele>
        <time>2012-06-30T14:43:10Z</time>
      </trkpt>
      <trkpt lat="44.75134" lon="-0.34531">
        <ele>86</ele>
        <time>2012-06-30T14:43:14Z</time>
      </trkpt>
      <trkpt lat="44.75136" lon="-0.34547">
        <ele>86</ele>
        <time>2012-06-30T14:43:17Z</time>
      </trkpt>
      <trkpt lat="44.7514" lon="-0.34559">
        <ele>86</ele>
        <time>2012-06-30T14:43:20Z</time>
      </trkpt>
      <trkpt lat="44.75142" lon="-0.34574">
        <ele>85</ele>
        <time>2012-06-30T14:43:23Z</time>
      </trkpt>
      <trkpt lat="44.75143" lon="-0.34588">
        <ele>85</ele>
        <time>2012-06-30T14:43:26Z</time>
      </trkpt>
      <trkpt lat="44.75146" lon="-0.346">
        <ele>84</ele>
        <time>2012-06-30T14:43:29Z</time>
      </trkpt>
      <trkpt lat="44.7515" lon="-0.34615">
        <ele>84</ele>
        <time>2012-06-30T14:43:32Z</time>
      </trkpt>
      <trkpt lat="44.75153" lon="-0.34631">
        <ele>83</ele>
        <time>2012-06-30T14:43:36Z</time>
      </trkpt>
      <trkpt lat="44.75155" lon="-0.34644">
        <ele>82</ele>
        <time>2012-06-30T14:43:44Z</time>
      </trkpt>
      <trkpt lat="44.7516" lon="-0.34634">
        <ele>82</ele>
        <time>2012-06-30T14:44:10Z</time>
      </trkpt>
      <trkpt lat="44.75166" lon="-0.34622">
        <ele>81</ele>
        <time>2012-06-30T14:44:24Z</time>
      </trkpt>
      <trkpt lat="44.75171" lon="-0.34609">
        <ele>81</ele>
        <time>2012-06-30T14:44:34Z</time>
      </trkpt>
      <trkpt lat="44.75171" lon="-0.34596">
        <ele>82</ele>
        <time>2012-06-30T14:44:51Z</time>
      </trkpt>
      <trkpt lat="44.75169" lon="-0.34582">
        <ele>83</ele>
        <time>2012-06-30T14:44:58Z</time>
      </trkpt>
      <trkpt lat="44.75173" lon="-0.34568">
        <ele>84</ele>
        <time>2012-06-30T14:45:06Z</time>
      </trkpt>
      <trkpt lat="44.7518" lon="-0.34557">
        <ele>86</ele>
        <time>2012-06-30T14:45:16Z</time>
      </trkpt>
      <trkpt lat="44.75181" lon="-0.34542">
        <ele>87</ele>
        <time>2012-06-30T14:45:22Z</time>
      </trkpt>
      <trkpt lat="44.75188" lon="-0.34533">
        <ele>88</ele>
        <time>2012-06-30T14:45:35Z</time>
      </trkpt>
      <trkpt lat="44.75198" lon="-0.34537">
        <ele>90</ele>
        <time>2012-06-30T14:45:45Z</time>
      </trkpt>
      <trkpt lat="44.75207" lon="-0.34533">
        <ele>91</ele>
        <time>2012-06-30T14:45:55Z</time>
      </trkpt>
      <trkpt lat="44.75216" lon="-0.34537">
        <ele>93</ele>
        <time>2012-06-30T14:51:56Z</time>
      </trkpt>
      <trkpt lat="44.75218" lon="-0.3455">
        <ele>92</ele>
        <time>2012-06-30T14:52:05Z</time>
      </trkpt>
      <trkpt lat="44.7522" lon="-0.34564">
        <ele>92</ele>
        <time>2012-06-30T14:52:12Z</time>
      </trkpt>
      <trkpt lat="44.75223" lon="-0.34577">
        <ele>91</ele>
        <time>2012-06-30T14:52:19Z</time>
      </trkpt>
      <trkpt lat="44.75227" lon="-0.34591">
        <ele>91</ele>
        <time>2012-06-30T14:52:24Z</time>
      </trkpt>
      <trkpt lat="44.75231" lon="-0.34602">
        <ele>91</ele>
        <time>2012-06-30T14:52:29Z</time>
      </trkpt>
      <trkpt lat="44.75239" lon="-0.34611">
        <ele>92</ele>
        <time>2012-06-30T14:52:35Z</time>
      </trkpt>
      <trkpt lat="44.75249" lon="-0.34607">
        <ele>94</ele>
        <time>2012-06-30T14:52:41Z</time>
      </trkpt>
      <trkpt lat="44.75258" lon="-0.346">
        <ele>95</ele>
        <time>2012-06-30T14:52:47Z</time>
      </trkpt>
      <trkpt lat="44.75267" lon="-0.34595">
        <ele>95</ele>
        <time>2012-06-30T14:52:54Z</time>
      </trkpt>
      <trkpt lat="44.75277" lon="-0.3459">
        <ele>95</ele>
        <time>2012-06-30T14:53:00Z</time>
      </trkpt>
      <trkpt lat="44.75286" lon="-0.34585">
        <ele>95</ele>
        <time>2012-06-30T14:53:06Z</time>
      </trkpt>
      <trkpt lat="44.75292" lon="-0.34598">
        <ele>95</ele>
        <time>2012-06-30T14:53:13Z</time>
      </trkpt>
      <trkpt lat="44.75293" lon="-0.34612">
        <ele>95</ele>
        <time>2012-06-30T14:53:17Z</time>
      </trkpt>
      <trkpt lat="44.75294" lon="-0.34628">
        <ele>95</ele>
        <time>2012-06-30T14:53:21Z</time>
      </trkpt>
      <trkpt lat="44.75295" lon="-0.34642">
        <ele>95</ele>
        <time>2012-06-30T14:53:24Z</time>
      </trkpt>
      <trkpt lat="44.75296" lon="-0.34655">
        <ele>95</ele>
        <time>2012-06-30T14:53:27Z</time>
      </trkpt>
      <trkpt lat="44.75297" lon="-0.3467">
        <ele>95</ele>
        <time>2012-06-30T14:53:30Z</time>
      </trkpt>
      <trkpt lat="44.75299" lon="-0.34686">
        <ele>95</ele>
        <time>2012-06-30T14:53:33Z</time>
      </trkpt>
      <trkpt lat="44.75301" lon="-0.34701">
        <ele>95</ele>
        <time>2012-06-30T14:53:36Z</time>
      </trkpt>
      <trkpt lat="44.75303" lon="-0.34715">
        <ele>94</ele>
        <time>2012-06-30T14:53:39Z</time>
      </trkpt>
      <trkpt lat="44.75314" lon="-0.34714">
        <ele>94</ele>
        <time>2012-06-30T14:53:44Z</time>
      </trkpt>
      <trkpt lat="44.75323" lon="-0.34706">
        <ele>94</ele>
        <time>2012-06-30T14:53:48Z</time>
      </trkpt>
      <trkpt lat="44.75331" lon="-0.34697">
        <ele>94</ele>
        <time>2012-06-30T14:53:52Z</time>
      </trkpt>
      <trkpt lat="44.75342" lon="-0.34687">
        <ele>93</ele>
        <time>2012-06-30T14:53:56Z</time>
      </trkpt>
      <trkpt lat="44.75351" lon="-0.34679">
        <ele>93</ele>
        <time>2012-06-30T14:53:59Z</time>
      </trkpt>
      <trkpt lat="44.75359" lon="-0.34672">
        <ele>92</ele>
        <time>2012-06-30T14:54:02Z</time>
      </trkpt>
      <trkpt lat="44.75367" lon="-0.34666">
        <ele>92</ele>
        <time>2012-06-30T14:54:08Z</time>
      </trkpt>
      <trkpt lat="44.75376" lon="-0.34662">
        <ele>91</ele>
        <time>2012-06-30T14:54:24Z</time>
      </trkpt>
      <trkpt lat="44.75384" lon="-0.34654">
        <ele>90</ele>
        <time>2012-06-30T14:54:37Z</time>
      </trkpt>
      <trkpt lat="44.75393" lon="-0.34647">
        <ele>89</ele>
        <time>2012-06-30T14:54:54Z</time>
      </trkpt>
      <trkpt lat="44.754" lon="-0.34638">
        <ele>88</ele>
        <time>2012-06-30T14:55:07Z</time>
      </trkpt>
      <trkpt lat="44.75409" lon="-0.34642">
        <ele>88</ele>
        <time>2012-06-30T14:55:35Z</time>
      </trkpt>
      <trkpt lat="44.75418" lon="-0.34634">
        <ele>86</ele>
        <time>2012-06-30T14:55:59Z</time>
      </trkpt>
      <trkpt lat="44.75427" lon="-0.34628">
        <ele>85</ele>
        <time>2012-06-30T14:56:16Z</time>
      </trkpt>
      <trkpt lat="44.75437" lon="-0.34625">
        <ele>84</ele>
        <time>2012-06-30T14:56:23Z</time>
      </trkpt>
      <trkpt lat="44.75447" lon="-0.34622">
        <ele>83</ele>
        <time>2012-06-30T14:56:28Z</time>
      </trkpt>
      <trkpt lat="44.75456" lon="-0.34616">
        <ele>83</ele>
        <time>2012-06-30T14:56:37Z</time>
      </trkpt>
      <trkpt lat="44.75465" lon="-0.34621">
        <ele>83</ele>
        <time>2012-06-30T14:56:48Z</time>
      </trkpt>
      <trkpt lat="44.75476" lon="-0.34624">
        <ele>82</ele>
        <time>2012-06-30T14:56:53Z</time>
      </trkpt>
      <trkpt lat="44.75486" lon="-0.34627">
        <ele>82</ele>
        <time>2012-06-30T14:56:57Z</time>
      </trkpt>
      <trkpt lat="44.75492" lon="-0.34641">
        <ele>83</ele>
        <time>2012-06-30T14:57:02Z</time>
      </trkpt>
      <trkpt lat="44.75502" lon="-0.34644">
        <ele>83</ele>
        <time>2012-06-30T14:57:07Z</time>
      </trkpt>
      <trkpt lat="44.75511" lon="-0.34635">
        <ele>82</ele>
        <time>2012-06-30T14:57:10Z</time>
      </trkpt>
      <trkpt lat="44.75521" lon="-0.34624">
        <ele>81</ele>
        <time>2012-06-30T14:57:13Z</time>
      </trkpt>
      <trkpt lat="44.75528" lon="-0.34615">
        <ele>80</ele>
        <time>2012-06-30T14:57:15Z</time>
      </trkpt>
      <trkpt lat="44.75543" lon="-0.34606">
        <ele>78</ele>
        <time>2012-06-30T14:57:18Z</time>
      </trkpt>
      <trkpt lat="44.75555" lon="-0.34599">
        <ele>77</ele>
        <time>2012-06-30T14:57:20Z</time>
      </trkpt>
      <trkpt lat="44.75568" lon="-0.3459">
        <ele>76</ele>
        <time>2012-06-30T14:57:22Z</time>
      </trkpt>
      <trkpt lat="44.75575" lon="-0.3458">
        <ele>75</ele>
        <time>2012-06-30T14:57:24Z</time>
      </trkpt>
      <trkpt lat="44.75583" lon="-0.34565">
        <ele>74</ele>
        <time>2012-06-30T14:57:27Z</time>
      </trkpt>
      <trkpt lat="44.7559" lon="-0.34551">
        <ele>73</ele>
        <time>2012-06-30T14:57:30Z</time>
      </trkpt>
      <trkpt lat="44.75596" lon="-0.34541">
        <ele>72</ele>
        <time>2012-06-30T14:57:32Z</time>
      </trkpt>
      <trkpt lat="44.75607" lon="-0.34542">
        <ele>72</ele>
        <time>2012-06-30T14:57:37Z</time>
      </trkpt>
      <trkpt lat="44.75618" lon="-0.34544">
        <ele>72</ele>
        <time>2012-06-30T14:57:41Z</time>
      </trkpt>
      <trkpt lat="44.75628" lon="-0.34549">
        <ele>72</ele>
        <time>2012-06-30T14:57:45Z</time>
      </trkpt>
      <trkpt lat="44.75639" lon="-0.34546">
        <ele>71</ele>
        <time>2012-06-30T14:57:49Z</time>
      </trkpt>
      <trkpt lat="44.75649" lon="-0.34538">
        <ele>70</ele>
        <time>2012-06-30T14:57:52Z</time>
      </trkpt>
      <trkpt lat="44.75658" lon="-0.34531">
        <ele>69</ele>
        <time>2012-06-30T14:57:55Z</time>
      </trkpt>
      <trkpt lat="44.75668" lon="-0.34525">
        <ele>69</ele>
        <time>2012-06-30T14:57:58Z</time>
      </trkpt>
      <trkpt lat="44.75676" lon="-0.34516">
        <ele>68</ele>
        <time>2012-06-30T14:58:01Z</time>
      </trkpt>
      <trkpt lat="44.75686" lon="-0.34511">
        <ele>67</ele>
        <time>2012-06-30T14:58:03Z</time>
      </trkpt>
      <trkpt lat="44.75698" lon="-0.34504">
        <ele>66</ele>
        <time>2012-06-30T14:58:06Z</time>
      </trkpt>
      <trkpt lat="44.7571" lon="-0.34501">
        <ele>65</ele>
        <time>2012-06-30T14:58:09Z</time>
      </trkpt>
      <trkpt lat="44.75721" lon="-0.34504">
        <ele>64</ele>
        <time>2012-06-30T14:58:12Z</time>
      </trkpt>
      <trkpt lat="44.75735" lon="-0.34503">
        <ele>63</ele>
        <time>2012-06-30T14:58:15Z</time>
      </trkpt>
      <trkpt lat="44.75747" lon="-0.34507">
        <ele>62</ele>
        <time>2012-06-30T14:58:17Z</time>
      </trkpt>
      <trkpt lat="44.75757" lon="-0.34511">
        <ele>61</ele>
        <time>2012-06-30T14:58:19Z</time>
      </trkpt>
      <trkpt lat="44.75763" lon="-0.34521">
        <ele>61</ele>
        <time>2012-06-30T14:58:21Z</time>
      </trkpt>
      <trkpt lat="44.75765" lon="-0.34541">
        <ele>61</ele>
        <time>2012-06-30T14:58:24Z</time>
      </trkpt>
      <trkpt lat="44.75768" lon="-0.34556">
        <ele>61</ele>
        <time>2012-06-30T14:58:26Z</time>
      </trkpt>
      <trkpt lat="44.75776" lon="-0.3457">
        <ele>61</ele>
        <time>2012-06-30T14:58:28Z</time>
      </trkpt>
      <trkpt lat="44.7578" lon="-0.34584">
        <ele>61</ele>
        <time>2012-06-30T14:58:30Z</time>
      </trkpt>
      <trkpt lat="44.75785" lon="-0.34597">
        <ele>61</ele>
        <time>2012-06-30T14:58:33Z</time>
      </trkpt>
      <trkpt lat="44.75795" lon="-0.34604">
        <ele>60</ele>
        <time>2012-06-30T14:58:59Z</time>
      </trkpt>
      <trkpt lat="44.75798" lon="-0.34591">
        <ele>60</ele>
        <time>2012-06-30T14:59:24Z</time>
      </trkpt>
      <trkpt lat="44.75795" lon="-0.34579">
        <ele>60</ele>
        <time>2012-06-30T15:00:21Z</time>
      </trkpt>
      <trkpt lat="44.75792" lon="-0.34566">
        <ele>61</ele>
        <time>2012-06-30T15:00:28Z</time>
      </trkpt>
      <trkpt lat="44.75786" lon="-0.34556">
        <ele>61</ele>
        <time>2012-06-30T15:00:33Z</time>
      </trkpt>
      <trkpt lat="44.75783" lon="-0.34543">
        <ele>61</ele>
        <time>2012-06-30T15:00:37Z</time>
      </trkpt>
      <trkpt lat="44.75779" lon="-0.34528">
        <ele>61</ele>
        <time>2012-06-30T15:00:42Z</time>
      </trkpt>
      <trkpt lat="44.75778" lon="-0.34512">
        <ele>62</ele>
        <time>2012-06-30T15:00:47Z</time>
      </trkpt>
      <trkpt lat="44.75778" lon="-0.34497">
        <ele>62</ele>
        <time>2012-06-30T15:00:52Z</time>
      </trkpt>
      <trkpt lat="44.75778" lon="-0.34484">
        <ele>62</ele>
        <time>2012-06-30T15:00:56Z</time>
      </trkpt>
      <trkpt lat="44.7578" lon="-0.34469">
        <ele>62</ele>
        <time>2012-06-30T15:01:00Z</time>
      </trkpt>
      <trkpt lat="44.75784" lon="-0.34457">
        <ele>63</ele>
        <time>2012-06-30T15:01:04Z</time>
      </trkpt>
      <trkpt lat="44.75781" lon="-0.34444">
        <ele>63</ele>
        <time>2012-06-30T15:01:09Z</time>
      </trkpt>
      <trkpt lat="44.75779" lon="-0.34431">
        <ele>63</ele>
        <time>2012-06-30T15:01:13Z</time>
      </trkpt>
      <trkpt lat="44.75781" lon="-0.34418">
        <ele>63</ele>
        <time>2012-06-30T15:01:16Z</time>
      </trkpt>
      <trkpt lat="44.75786" lon="-0.34406">
        <ele>64</ele>
        <time>2012-06-30T15:01:19Z</time>
      </trkpt>
      <trkpt lat="44.75788" lon="-0.3439">
        <ele>65</ele>
        <time>2012-06-30T15:01:23Z</time>
      </trkpt>
      <trkpt lat="44.75794" lon="-0.34377">
        <ele>66</ele>
        <time>2012-06-30T15:01:26Z</time>
      </trkpt>
      <trkpt lat="44.75795" lon="-0.34362">
        <ele>67</ele>
        <time>2012-06-30T15:01:29Z</time>
      </trkpt>
      <trkpt lat="44.75798" lon="-0.34347">
        <ele>68</ele>
        <time>2012-06-30T15:01:32Z</time>
      </trkpt>
      <trkpt lat="44.75798" lon="-0.34334">
        <ele>68</ele>
        <time>2012-06-30T15:01:35Z</time>
      </trkpt>
      <trkpt lat="44.75801" lon="-0.34311">
        <ele>68</ele>
        <time>2012-06-30T15:01:40Z</time>
      </trkpt>
      <trkpt lat="44.75808" lon="-0.343">
        <ele>69</ele>
        <time>2012-06-30T15:01:42Z</time>
      </trkpt>
      <trkpt lat="44.75808" lon="-0.34282">
        <ele>68</ele>
        <time>2012-06-30T15:01:46Z</time>
      </trkpt>
      <trkpt lat="44.758" lon="-0.34266">
        <ele>66</ele>
        <time>2012-06-30T15:01:49Z</time>
      </trkpt>
      <trkpt lat="44.75793" lon="-0.34255">
        <ele>65</ele>
        <time>2012-06-30T15:01:51Z</time>
      </trkpt>
      <trkpt lat="44.75788" lon="-0.34243">
        <ele>65</ele>
        <time>2012-06-30T15:01:57Z</time>
      </trkpt>
      <trkpt lat="44.75786" lon="-0.34229">
        <ele>65</ele>
        <time>2012-06-30T15:02:07Z</time>
      </trkpt>
      <trkpt lat="44.75788" lon="-0.34216">
        <ele>65</ele>
        <time>2012-06-30T15:02:12Z</time>
      </trkpt>
      <trkpt lat="44.75791" lon="-0.34202">
        <ele>65</ele>
        <time>2012-06-30T15:02:17Z</time>
      </trkpt>
      <trkpt lat="44.75788" lon="-0.34188">
        <ele>66</ele>
        <time>2012-06-30T15:02:21Z</time>
      </trkpt>
      <trkpt lat="44.75792" lon="-0.34172">
        <ele>66</ele>
        <time>2012-06-30T15:02:25Z</time>
      </trkpt>
      <trkpt lat="44.75788" lon="-0.34157">
        <ele>67</ele>
        <time>2012-06-30T15:02:30Z</time>
      </trkpt>
      <trkpt lat="44.75784" lon="-0.34144">
        <ele>67</ele>
        <time>2012-06-30T15:02:35Z</time>
      </trkpt>
      <trkpt lat="44.75776" lon="-0.34132">
        <ele>66</ele>
        <time>2012-06-30T15:02:38Z</time>
      </trkpt>
      <trkpt lat="44.7577" lon="-0.34122">
        <ele>66</ele>
        <time>2012-06-30T15:02:41Z</time>
      </trkpt>
      <trkpt lat="44.75777" lon="-0.34113">
        <ele>67</ele>
        <time>2012-06-30T15:02:46Z</time>
      </trkpt>
      <trkpt lat="44.75772" lon="-0.34101">
        <ele>67</ele>
        <time>2012-06-30T15:02:54Z</time>
      </trkpt>
      <trkpt lat="44.75771" lon="-0.34086">
        <ele>68</ele>
        <time>2012-06-30T15:03:00Z</time>
      </trkpt>
      <trkpt lat="44.75772" lon="-0.3407">
        <ele>69</ele>
        <time>2012-06-30T15:03:05Z</time>
      </trkpt>
      <trkpt lat="44.75772" lon="-0.34057">
        <ele>69</ele>
        <time>2012-06-30T15:03:09Z</time>
      </trkpt>
      <trkpt lat="44.75776" lon="-0.34044">
        <ele>70</ele>
        <time>2012-06-30T15:03:13Z</time>
      </trkpt>
      <trkpt lat="44.75774" lon="-0.34028">
        <ele>70</ele>
        <time>2012-06-30T15:03:18Z</time>
      </trkpt>
      <trkpt lat="44.7577" lon="-0.34017">
        <ele>70</ele>
        <time>2012-06-30T15:03:22Z</time>
      </trkpt>
      <trkpt lat="44.75763" lon="-0.34006">
        <ele>70</ele>
        <time>2012-06-30T15:03:25Z</time>
      </trkpt>
      <trkpt lat="44.75762" lon="-0.33992">
        <ele>70</ele>
        <time>2012-06-30T15:03:29Z</time>
      </trkpt>
      <trkpt lat="44.75767" lon="-0.33979">
        <ele>70</ele>
        <time>2012-06-30T15:03:33Z</time>
      </trkpt>
      <trkpt lat="44.75771" lon="-0.33964">
        <ele>71</ele>
        <time>2012-06-30T15:03:37Z</time>
      </trkpt>
      <trkpt lat="44.75774" lon="-0.3395">
        <ele>71</ele>
        <time>2012-06-30T15:03:40Z</time>
      </trkpt>
      <trkpt lat="44.75778" lon="-0.33935">
        <ele>72</ele>
        <time>2012-06-30T15:03:44Z</time>
      </trkpt>
      <trkpt lat="44.75781" lon="-0.3392">
        <ele>73</ele>
        <time>2012-06-30T15:03:47Z</time>
      </trkpt>
      <trkpt lat="44.75784" lon="-0.33906">
        <ele>73</ele>
        <time>2012-06-30T15:03:51Z</time>
      </trkpt>
      <trkpt lat="44.75788" lon="-0.33894">
        <ele>74</ele>
        <time>2012-06-30T15:03:54Z</time>
      </trkpt>
      <trkpt lat="44.75792" lon="-0.33879">
        <ele>75</ele>
        <time>2012-06-30T15:03:57Z</time>
      </trkpt>
      <trkpt lat="44.75799" lon="-0.33863">
        <ele>76</ele>
        <time>2012-06-30T15:04:01Z</time>
      </trkpt>
      <trkpt lat="44.75797" lon="-0.33849">
        <ele>76</ele>
        <time>2012-06-30T15:04:05Z</time>
      </trkpt>
      <trkpt lat="44.758" lon="-0.33835">
        <ele>77</ele>
        <time>2012-06-30T15:04:09Z</time>
      </trkpt>
      <trkpt lat="44.75801" lon="-0.33821">
        <ele>77</ele>
        <time>2012-06-30T15:04:14Z</time>
      </trkpt>
      <trkpt lat="44.75804" lon="-0.33808">
        <ele>78</ele>
        <time>2012-06-30T15:04:18Z</time>
      </trkpt>
      <trkpt lat="44.75805" lon="-0.33794">
        <ele>78</ele>
        <time>2012-06-30T15:04:23Z</time>
      </trkpt>
      <trkpt lat="44.75815" lon="-0.33788">
        <ele>79</ele>
        <time>2012-06-30T15:04:29Z</time>
      </trkpt>
      <trkpt lat="44.75824" lon="-0.33785">
        <ele>80</ele>
        <time>2012-06-30T15:04:36Z</time>
      </trkpt>
      <trkpt lat="44.75834" lon="-0.33785">
        <ele>82</ele>
        <time>2012-06-30T15:04:54Z</time>
      </trkpt>
      <trkpt lat="44.75843" lon="-0.33781">
        <ele>84</ele>
        <time>2012-06-30T15:05:05Z</time>
      </trkpt>
      <trkpt lat="44.75852" lon="-0.33775">
        <ele>86</ele>
        <time>2012-06-30T15:05:17Z</time>
      </trkpt>
      <trkpt lat="44.7586" lon="-0.33769">
        <ele>88</ele>
        <time>2012-06-30T15:05:51Z</time>
      </trkpt>
      <trkpt lat="44.7587" lon="-0.33766">
        <ele>90</ele>
        <time>2012-06-30T15:06:01Z</time>
      </trkpt>
      <trkpt lat="44.7588" lon="-0.33762">
        <ele>91</ele>
        <time>2012-06-30T15:06:14Z</time>
      </trkpt>
      <trkpt lat="44.7589" lon="-0.33761">
        <ele>93</ele>
        <time>2012-06-30T15:06:28Z</time>
      </trkpt>
      <trkpt lat="44.759" lon="-0.3376">
        <ele>94</ele>
        <time>2012-06-30T15:06:41Z</time>
      </trkpt>
      <trkpt lat="44.75909" lon="-0.33755">
        <ele>96</ele>
        <time>2012-06-30T15:06:51Z</time>
      </trkpt>
      <trkpt lat="44.75918" lon="-0.33761">
        <ele>96</ele>
        <time>2012-06-30T15:07:01Z</time>
      </trkpt>
      <trkpt lat="44.75923" lon="-0.33771">
        <ele>96</ele>
        <time>2012-06-30T15:07:11Z</time>
      </trkpt>
      <trkpt lat="44.75934" lon="-0.3377">
        <ele>97</ele>
        <time>2012-06-30T15:07:25Z</time>
      </trkpt>
      <trkpt lat="44.75939" lon="-0.33759">
        <ele>97</ele>
        <time>2012-06-30T15:07:43Z</time>
      </trkpt>
      <trkpt lat="44.75937" lon="-0.33746">
        <ele>97</ele>
        <time>2012-06-30T15:09:33Z</time>
      </trkpt>
      <trkpt lat="44.75941" lon="-0.33758">
        <ele>97</ele>
        <time>2012-06-30T15:10:09Z</time>
      </trkpt>
      <trkpt lat="44.75932" lon="-0.33759">
        <ele>97</ele>
        <time>2012-06-30T15:11:09Z</time>
      </trkpt>
      <trkpt lat="44.75939" lon="-0.3375">
        <ele>97</ele>
        <time>2012-06-30T15:12:45Z</time>
      </trkpt>
      <trkpt lat="44.75946" lon="-0.33737">
        <ele>98</ele>
        <time>2012-06-30T15:12:50Z</time>
      </trkpt>
      <trkpt lat="44.75942" lon="-0.33722">
        <ele>98</ele>
        <time>2012-06-30T15:12:54Z</time>
      </trkpt>
      <trkpt lat="44.75936" lon="-0.33708">
        <ele>98</ele>
        <time>2012-06-30T15:12:58Z</time>
      </trkpt>
      <trkpt lat="44.75937" lon="-0.33695">
        <ele>98</ele>
        <time>2012-06-30T15:13:02Z</time>
      </trkpt>
      <trkpt lat="44.75939" lon="-0.3368">
        <ele>99</ele>
        <time>2012-06-30T15:13:06Z</time>
      </trkpt>
      <trkpt lat="44.75941" lon="-0.33666">
        <ele>99</ele>
        <time>2012-06-30T15:13:09Z</time>
      </trkpt>
      <trkpt lat="44.75941" lon="-0.33653">
        <ele>99</ele>
        <time>2012-06-30T15:13:12Z</time>
      </trkpt>
      <trkpt lat="44.75942" lon="-0.33638">
        <ele>100</ele>
        <time>2012-06-30T15:13:15Z</time>
      </trkpt>
      <trkpt lat="44.75943" lon="-0.33623">
        <ele>100</ele>
        <time>2012-06-30T15:13:18Z</time>
      </trkpt>
      <trkpt lat="44.75944" lon="-0.33607">
        <ele>100</ele>
        <time>2012-06-30T15:13:21Z</time>
      </trkpt>
      <trkpt lat="44.75945" lon="-0.33593">
        <ele>100</ele>
        <time>2012-06-30T15:13:24Z</time>
      </trkpt>
      <trkpt lat="44.75945" lon="-0.33579">
        <ele>101</ele>
        <time>2012-06-30T15:13:27Z</time>
      </trkpt>
      <trkpt lat="44.75945" lon="-0.33565">
        <ele>101</ele>
        <time>2012-06-30T15:13:30Z</time>
      </trkpt>
      <trkpt lat="44.75946" lon="-0.33551">
        <ele>101</ele>
        <time>2012-06-30T15:13:33Z</time>
      </trkpt>
      <trkpt lat="44.75948" lon="-0.33534">
        <ele>101</ele>
        <time>2012-06-30T15:13:37Z</time>
      </trkpt>
      <trkpt lat="44.7595" lon="-0.33522">
        <ele>101</ele>
        <time>2012-06-30T15:13:40Z</time>
      </trkpt>
      <trkpt lat="44.75952" lon="-0.33506">
        <ele>101</ele>
        <time>2012-06-30T15:13:44Z</time>
      </trkpt>
      <trkpt lat="44.75953" lon="-0.33492">
        <ele>101</ele>
        <time>2012-06-30T15:13:48Z</time>
      </trkpt>
      <trkpt lat="44.75954" lon="-0.33476">
        <ele>101</ele>
        <time>2012-06-30T15:13:53Z</time>
      </trkpt>
      <trkpt lat="44.75956" lon="-0.3346">
        <ele>102</ele>
        <time>2012-06-30T15:13:58Z</time>
      </trkpt>
      <trkpt lat="44.75957" lon="-0.33445">
        <ele>102</ele>
        <time>2012-06-30T15:14:02Z</time>
      </trkpt>
      <trkpt lat="44.75957" lon="-0.33432">
        <ele>102</ele>
        <time>2012-06-30T15:14:06Z</time>
      </trkpt>
      <trkpt lat="44.75957" lon="-0.33416">
        <ele>103</ele>
        <time>2012-06-30T15:14:11Z</time>
      </trkpt>
      <trkpt lat="44.75957" lon="-0.334">
        <ele>103</ele>
        <time>2012-06-30T15:14:16Z</time>
      </trkpt>
      <trkpt lat="44.75957" lon="-0.33387">
        <ele>104</ele>
        <time>2012-06-30T15:14:20Z</time>
      </trkpt>
      <trkpt lat="44.75957" lon="-0.33372">
        <ele>104</ele>
        <time>2012-06-30T15:14:24Z</time>
      </trkpt>
      <trkpt lat="44.75955" lon="-0.33357">
        <ele>104</ele>
        <time>2012-06-30T15:14:28Z</time>
      </trkpt>
      <trkpt lat="44.75955" lon="-0.33341">
        <ele>104</ele>
        <time>2012-06-30T15:14:32Z</time>
      </trkpt>
      <trkpt lat="44.75955" lon="-0.33324">
        <ele>105</ele>
        <time>2012-06-30T15:14:36Z</time>
      </trkpt>
      <trkpt lat="44.75955" lon="-0.33308">
        <ele>105</ele>
        <time>2012-06-30T15:14:40Z</time>
      </trkpt>
      <trkpt lat="44.75955" lon="-0.33292">
        <ele>105</ele>
        <time>2012-06-30T15:14:44Z</time>
      </trkpt>
      <trkpt lat="44.75955" lon="-0.33275">
        <ele>105</ele>
        <time>2012-06-30T15:14:48Z</time>
      </trkpt>
      <trkpt lat="44.75952" lon="-0.33261">
        <ele>105</ele>
        <time>2012-06-30T15:14:52Z</time>
      </trkpt>
      <trkpt lat="44.75948" lon="-0.33247">
        <ele>105</ele>
        <time>2012-06-30T15:14:56Z</time>
      </trkpt>
      <trkpt lat="44.75943" lon="-0.33232">
        <ele>105</ele>
        <time>2012-06-30T15:15:00Z</time>
      </trkpt>
      <trkpt lat="44.75937" lon="-0.33217">
        <ele>105</ele>
        <time>2012-06-30T15:15:04Z</time>
      </trkpt>
      <trkpt lat="44.75934" lon="-0.33204">
        <ele>105</ele>
        <time>2012-06-30T15:15:08Z</time>
      </trkpt>
      <trkpt lat="44.75931" lon="-0.33192">
        <ele>105</ele>
        <time>2012-06-30T15:15:12Z</time>
      </trkpt>
      <trkpt lat="44.75929" lon="-0.33177">
        <ele>105</ele>
        <time>2012-06-30T15:15:16Z</time>
      </trkpt>
      <trkpt lat="44.75924" lon="-0.33162">
        <ele>106</ele>
        <time>2012-06-30T15:15:20Z</time>
      </trkpt>
      <trkpt lat="44.7592" lon="-0.33147">
        <ele>106</ele>
        <time>2012-06-30T15:15:24Z</time>
      </trkpt>
      <trkpt lat="44.75916" lon="-0.33134">
        <ele>106</ele>
        <time>2012-06-30T15:15:27Z</time>
      </trkpt>
      <trkpt lat="44.75911" lon="-0.33119">
        <ele>106</ele>
        <time>2012-06-30T15:15:31Z</time>
      </trkpt>
      <trkpt lat="44.75904" lon="-0.33106">
        <ele>106</ele>
        <time>2012-06-30T15:15:35Z</time>
      </trkpt>
      <trkpt lat="44.75898" lon="-0.33096">
        <ele>106</ele>
        <time>2012-06-30T15:15:38Z</time>
      </trkpt>
      <trkpt lat="44.75889" lon="-0.33084">
        <ele>106</ele>
        <time>2012-06-30T15:15:42Z</time>
      </trkpt>
      <trkpt lat="44.75881" lon="-0.33072">
        <ele>106</ele>
        <time>2012-06-30T15:15:46Z</time>
      </trkpt>
      <trkpt lat="44.75872" lon="-0.33063">
        <ele>106</ele>
        <time>2012-06-30T15:15:50Z</time>
      </trkpt>
      <trkpt lat="44.75864" lon="-0.33054">
        <ele>106</ele>
        <time>2012-06-30T15:15:54Z</time>
      </trkpt>
      <trkpt lat="44.75855" lon="-0.33045">
        <ele>106</ele>
        <time>2012-06-30T15:15:58Z</time>
      </trkpt>
      <trkpt lat="44.75845" lon="-0.33039">
        <ele>106</ele>
        <time>2012-06-30T15:16:02Z</time>
      </trkpt>
      <trkpt lat="44.75836" lon="-0.33033">
        <ele>106</ele>
        <time>2012-06-30T15:16:05Z</time>
      </trkpt>
      <trkpt lat="44.75833" lon="-0.3302">
        <ele>107</ele>
        <time>2012-06-30T15:16:09Z</time>
      </trkpt>
      <trkpt lat="44.75828" lon="-0.33005">
        <ele>107</ele>
        <time>2012-06-30T15:16:13Z</time>
      </trkpt>
      <trkpt lat="44.75824" lon="-0.32989">
        <ele>107</ele>
        <time>2012-06-30T15:16:17Z</time>
      </trkpt>
      <trkpt lat="44.75821" lon="-0.32974">
        <ele>107</ele>
        <time>2012-06-30T15:16:21Z</time>
      </trkpt>
      <trkpt lat="44.75819" lon="-0.32957">
        <ele>107</ele>
        <time>2012-06-30T15:16:25Z</time>
      </trkpt>
      <trkpt lat="44.75816" lon="-0.32944">
        <ele>107</ele>
        <time>2012-06-30T15:16:28Z</time>
      </trkpt>
      <trkpt lat="44.75811" lon="-0.3293">
        <ele>107</ele>
        <time>2012-06-30T15:16:32Z</time>
      </trkpt>
      <trkpt lat="44.75799" lon="-0.32929">
        <ele>107</ele>
        <time>2012-06-30T15:16:36Z</time>
      </trkpt>
      <trkpt lat="44.75789" lon="-0.32928">
        <ele>107</ele>
        <time>2012-06-30T15:16:39Z</time>
      </trkpt>
      <trkpt lat="44.75778" lon="-0.32927">
        <ele>107</ele>
        <time>2012-06-30T15:16:42Z</time>
      </trkpt>
      <trkpt lat="44.75767" lon="-0.32924">
        <ele>107</ele>
        <time>2012-06-30T15:16:45Z</time>
      </trkpt>
      <trkpt lat="44.75758" lon="-0.32921">
        <ele>107</ele>
        <time>2012-06-30T15:16:48Z</time>
      </trkpt>
      <trkpt lat="44.75747" lon="-0.32913">
        <ele>107</ele>
        <time>2012-06-30T15:16:51Z</time>
      </trkpt>
      <trkpt lat="44.75736" lon="-0.32904">
        <ele>107</ele>
        <time>2012-06-30T15:16:54Z</time>
      </trkpt>
      <trkpt lat="44.75726" lon="-0.32894">
        <ele>107</ele>
        <time>2012-06-30T15:16:57Z</time>
      </trkpt>
      <trkpt lat="44.75717" lon="-0.32882">
        <ele>107</ele>
        <time>2012-06-30T15:17:00Z</time>
      </trkpt>
      <trkpt lat="44.75707" lon="-0.3287">
        <ele>107</ele>
        <time>2012-06-30T15:17:03Z</time>
      </trkpt>
      <trkpt lat="44.75697" lon="-0.3286">
        <ele>107</ele>
        <time>2012-06-30T15:17:06Z</time>
      </trkpt>
      <trkpt lat="44.75686" lon="-0.32851">
        <ele>107</ele>
        <time>2012-06-30T15:17:09Z</time>
      </trkpt>
      <trkpt lat="44.75676" lon="-0.32842">
        <ele>107</ele>
        <time>2012-06-30T15:17:12Z</time>
      </trkpt>
      <trkpt lat="44.75674" lon="-0.32829">
        <ele>107</ele>
        <time>2012-06-30T15:17:15Z</time>
      </trkpt>
      <trkpt lat="44.75682" lon="-0.32821">
        <ele>106</ele>
        <time>2012-06-30T15:17:17Z</time>
      </trkpt>
      <trkpt lat="44.7569" lon="-0.32814">
        <ele>106</ele>
        <time>2012-06-30T15:17:19Z</time>
      </trkpt>
      <trkpt lat="44.757" lon="-0.32807">
        <ele>105</ele>
        <time>2012-06-30T15:17:21Z</time>
      </trkpt>
      <trkpt lat="44.7571" lon="-0.32799">
        <ele>105</ele>
        <time>2012-06-30T15:17:23Z</time>
      </trkpt>
      <trkpt lat="44.7572" lon="-0.32792">
        <ele>104</ele>
        <time>2012-06-30T15:17:25Z</time>
      </trkpt>
      <trkpt lat="44.7573" lon="-0.32783">
        <ele>104</ele>
        <time>2012-06-30T15:17:27Z</time>
      </trkpt>
      <trkpt lat="44.75739" lon="-0.32772">
        <ele>104</ele>
        <time>2012-06-30T15:17:29Z</time>
      </trkpt>
      <trkpt lat="44.75746" lon="-0.32761">
        <ele>103</ele>
        <time>2012-06-30T15:17:31Z</time>
      </trkpt>
      <trkpt lat="44.75752" lon="-0.32748">
        <ele>102</ele>
        <time>2012-06-30T15:17:33Z</time>
      </trkpt>
      <trkpt lat="44.75759" lon="-0.32734">
        <ele>102</ele>
        <time>2012-06-30T15:17:35Z</time>
      </trkpt>
      <trkpt lat="44.75765" lon="-0.3272">
        <ele>102</ele>
        <time>2012-06-30T15:17:37Z</time>
      </trkpt>
      <trkpt lat="44.75769" lon="-0.32706">
        <ele>101</ele>
        <time>2012-06-30T15:17:39Z</time>
      </trkpt>
      <trkpt lat="44.75774" lon="-0.32692">
        <ele>101</ele>
        <time>2012-06-30T15:17:41Z</time>
      </trkpt>
      <trkpt lat="44.75778" lon="-0.32678">
        <ele>101</ele>
        <time>2012-06-30T15:17:43Z</time>
      </trkpt>
      <trkpt lat="44.75783" lon="-0.32663">
        <ele>101</ele>
        <time>2012-06-30T15:17:45Z</time>
      </trkpt>
      <trkpt lat="44.75788" lon="-0.32648">
        <ele>101</ele>
        <time>2012-06-30T15:17:47Z</time>
      </trkpt>
      <trkpt lat="44.75793" lon="-0.32633">
        <ele>101</ele>
        <time>2012-06-30T15:17:49Z</time>
      </trkpt>
      <trkpt lat="44.75797" lon="-0.32619">
        <ele>102</ele>
        <time>2012-06-30T15:17:51Z</time>
      </trkpt>
      <trkpt lat="44.75802" lon="-0.32605">
        <ele>102</ele>
        <time>2012-06-30T15:17:53Z</time>
      </trkpt>
      <trkpt lat="44.75807" lon="-0.32591">
        <ele>103</ele>
        <time>2012-06-30T15:17:55Z</time>
      </trkpt>
      <trkpt lat="44.75812" lon="-0.32577">
        <ele>103</ele>
        <time>2012-06-30T15:17:57Z</time>
      </trkpt>
      <trkpt lat="44.75816" lon="-0.32562">
        <ele>103</ele>
        <time>2012-06-30T15:17:59Z</time>
      </trkpt>
      <trkpt lat="44.75822" lon="-0.32548">
        <ele>104</ele>
        <time>2012-06-30T15:18:01Z</time>
      </trkpt>
      <trkpt lat="44.75827" lon="-0.32534">
        <ele>104</ele>
        <time>2012-06-30T15:18:03Z</time>
      </trkpt>
      <trkpt lat="44.75832" lon="-0.3252">
        <ele>104</ele>
        <time>2012-06-30T15:18:05Z</time>
      </trkpt>
      <trkpt lat="44.75835" lon="-0.32506">
        <ele>104</ele>
        <time>2012-06-30T15:18:07Z</time>
      </trkpt>
      <trkpt lat="44.75839" lon="-0.32493">
        <ele>104</ele>
        <time>2012-06-30T15:18:09Z</time>
      </trkpt>
      <trkpt lat="44.75842" lon="-0.3248">
        <ele>105</ele>
        <time>2012-06-30T15:18:11Z</time>
      </trkpt>
      <trkpt lat="44.75847" lon="-0.32465">
        <ele>105</ele>
        <time>2012-06-30T15:18:13Z</time>
      </trkpt>
      <trkpt lat="44.75849" lon="-0.32451">
        <ele>105</ele>
        <time>2012-06-30T15:18:15Z</time>
      </trkpt>
      <trkpt lat="44.75852" lon="-0.32436">
        <ele>105</ele>
        <time>2012-06-30T15:18:17Z</time>
      </trkpt>
      <trkpt lat="44.75855" lon="-0.32421">
        <ele>105</ele>
        <time>2012-06-30T15:18:19Z</time>
      </trkpt>
      <trkpt lat="44.75859" lon="-0.32405">
        <ele>105</ele>
        <time>2012-06-30T15:18:21Z</time>
      </trkpt>
      <trkpt lat="44.75862" lon="-0.32392">
        <ele>105</ele>
        <time>2012-06-30T15:18:23Z</time>
      </trkpt>
      <trkpt lat="44.75864" lon="-0.32374">
        <ele>104</ele>
        <time>2012-06-30T15:18:26Z</time>
      </trkpt>
      <trkpt lat="44.75868" lon="-0.32356">
        <ele>105</ele>
        <time>2012-06-30T15:18:29Z</time>
      </trkpt>
      <trkpt lat="44.75871" lon="-0.32338">
        <ele>105</ele>
        <time>2012-06-30T15:18:32Z</time>
      </trkpt>
      <trkpt lat="44.75873" lon="-0.32323">
        <ele>106</ele>
        <time>2012-06-30T15:18:34Z</time>
      </trkpt>
      <trkpt lat="44.75876" lon="-0.3231">
        <ele>106</ele>
        <time>2012-06-30T15:18:36Z</time>
      </trkpt>
      <trkpt lat="44.75879" lon="-0.32297">
        <ele>106</ele>
        <time>2012-06-30T15:18:38Z</time>
      </trkpt>
      <trkpt lat="44.75884" lon="-0.32279">
        <ele>106</ele>
        <time>2012-06-30T15:18:41Z</time>
      </trkpt>
      <trkpt lat="44.7589" lon="-0.32261">
        <ele>107</ele>
        <time>2012-06-30T15:18:44Z</time>
      </trkpt>
      <trkpt lat="44.75895" lon="-0.3225">
        <ele>107</ele>
        <time>2012-06-30T15:18:46Z</time>
      </trkpt>
      <trkpt lat="44.75902" lon="-0.32233">
        <ele>107</ele>
        <time>2012-06-30T15:18:49Z</time>
      </trkpt>
      <trkpt lat="44.75909" lon="-0.32216">
        <ele>107</ele>
        <time>2012-06-30T15:18:52Z</time>
      </trkpt>
      <trkpt lat="44.75914" lon="-0.32199">
        <ele>107</ele>
        <time>2012-06-30T15:18:55Z</time>
      </trkpt>
      <trkpt lat="44.75917" lon="-0.32187">
        <ele>107</ele>
        <time>2012-06-30T15:18:57Z</time>
      </trkpt>
      <trkpt lat="44.7592" lon="-0.32169">
        <ele>107</ele>
        <time>2012-06-30T15:19:00Z</time>
      </trkpt>
      <trkpt lat="44.75923" lon="-0.3215">
        <ele>107</ele>
        <time>2012-06-30T15:19:03Z</time>
      </trkpt>
      <trkpt lat="44.75923" lon="-0.32135">
        <ele>107</ele>
        <time>2012-06-30T15:19:05Z</time>
      </trkpt>
      <trkpt lat="44.75925" lon="-0.32121">
        <ele>107</ele>
        <time>2012-06-30T15:19:07Z</time>
      </trkpt>
      <trkpt lat="44.75925" lon="-0.32108">
        <ele>107</ele>
        <time>2012-06-30T15:19:09Z</time>
      </trkpt>
      <trkpt lat="44.75927" lon="-0.32093">
        <ele>107</ele>
        <time>2012-06-30T15:19:11Z</time>
      </trkpt>
      <trkpt lat="44.75927" lon="-0.3208">
        <ele>107</ele>
        <time>2012-06-30T15:19:13Z</time>
      </trkpt>
      <trkpt lat="44.75928" lon="-0.32065">
        <ele>107</ele>
        <time>2012-06-30T15:19:15Z</time>
      </trkpt>
      <trkpt lat="44.75929" lon="-0.32052">
        <ele>107</ele>
        <time>2012-06-30T15:19:17Z</time>
      </trkpt>
      <trkpt lat="44.75929" lon="-0.32038">
        <ele>107</ele>
        <time>2012-06-30T15:19:19Z</time>
      </trkpt>
      <trkpt lat="44.7593" lon="-0.32024">
        <ele>107</ele>
        <time>2012-06-30T15:19:21Z</time>
      </trkpt>
      <trkpt lat="44.7593" lon="-0.3201">
        <ele>107</ele>
        <time>2012-06-30T15:19:23Z</time>
      </trkpt>
      <trkpt lat="44.75931" lon="-0.31994">
        <ele>108</ele>
        <time>2012-06-30T15:19:25Z</time>
      </trkpt>
      <trkpt lat="44.75932" lon="-0.31978">
        <ele>108</ele>
        <time>2012-06-30T15:19:27Z</time>
      </trkpt>
      <trkpt lat="44.75931" lon="-0.31961">
        <ele>108</ele>
        <time>2012-06-30T15:19:29Z</time>
      </trkpt>
      <trkpt lat="44.7593" lon="-0.31943">
        <ele>107</ele>
        <time>2012-06-30T15:19:31Z</time>
      </trkpt>
      <trkpt lat="44.7593" lon="-0.31925">
        <ele>107</ele>
        <time>2012-06-30T15:19:33Z</time>
      </trkpt>
      <trkpt lat="44.75929" lon="-0.31908">
        <ele>107</ele>
        <time>2012-06-30T15:19:35Z</time>
      </trkpt>
      <trkpt lat="44.75929" lon="-0.31891">
        <ele>107</ele>
        <time>2012-06-30T15:19:37Z</time>
      </trkpt>
      <trkpt lat="44.75928" lon="-0.31874">
        <ele>107</ele>
        <time>2012-06-30T15:19:39Z</time>
      </trkpt>
      <trkpt lat="44.75927" lon="-0.31857">
        <ele>107</ele>
        <time>2012-06-30T15:19:41Z</time>
      </trkpt>
      <trkpt lat="44.75927" lon="-0.31841">
        <ele>107</ele>
        <time>2012-06-30T15:19:43Z</time>
      </trkpt>
      <trkpt lat="44.75929" lon="-0.31825">
        <ele>107</ele>
        <time>2012-06-30T15:19:45Z</time>
      </trkpt>
      <trkpt lat="44.7593" lon="-0.31808">
        <ele>107</ele>
        <time>2012-06-30T15:19:47Z</time>
      </trkpt>
      <trkpt lat="44.75933" lon="-0.31793">
        <ele>108</ele>
        <time>2012-06-30T15:19:49Z</time>
      </trkpt>
      <trkpt lat="44.75936" lon="-0.31778">
        <ele>108</ele>
        <time>2012-06-30T15:19:51Z</time>
      </trkpt>
      <trkpt lat="44.75941" lon="-0.31763">
        <ele>108</ele>
        <time>2012-06-30T15:19:53Z</time>
      </trkpt>
      <trkpt lat="44.75943" lon="-0.31747">
        <ele>109</ele>
        <time>2012-06-30T15:19:55Z</time>
      </trkpt>
      <trkpt lat="44.75946" lon="-0.31732">
        <ele>109</ele>
        <time>2012-06-30T15:19:57Z</time>
      </trkpt>
      <trkpt lat="44.7595" lon="-0.31719">
        <ele>109</ele>
        <time>2012-06-30T15:19:59Z</time>
      </trkpt>
      <trkpt lat="44.75955" lon="-0.31705">
        <ele>109</ele>
        <time>2012-06-30T15:20:01Z</time>
      </trkpt>
      <trkpt lat="44.75961" lon="-0.31693">
        <ele>109</ele>
        <time>2012-06-30T15:20:03Z</time>
      </trkpt>
      <trkpt lat="44.75968" lon="-0.31682">
        <ele>109</ele>
        <time>2012-06-30T15:20:05Z</time>
      </trkpt>
      <trkpt lat="44.75975" lon="-0.31672">
        <ele>109</ele>
        <time>2012-06-30T15:20:07Z</time>
      </trkpt>
      <trkpt lat="44.75982" lon="-0.3166">
        <ele>108</ele>
        <time>2012-06-30T15:20:09Z</time>
      </trkpt>
      <trkpt lat="44.75988" lon="-0.31649">
        <ele>108</ele>
        <time>2012-06-30T15:20:11Z</time>
      </trkpt>
      <trkpt lat="44.75993" lon="-0.31634">
        <ele>108</ele>
        <time>2012-06-30T15:20:13Z</time>
      </trkpt>
      <trkpt lat="44.75996" lon="-0.3162">
        <ele>108</ele>
        <time>2012-06-30T15:20:15Z</time>
      </trkpt>
      <trkpt lat="44.75998" lon="-0.31605">
        <ele>108</ele>
        <time>2012-06-30T15:20:17Z</time>
      </trkpt>
      <trkpt lat="44.76" lon="-0.31591">
        <ele>108</ele>
        <time>2012-06-30T15:20:19Z</time>
      </trkpt>
      <trkpt lat="44.76001" lon="-0.31577">
        <ele>108</ele>
        <time>2012-06-30T15:20:21Z</time>
      </trkpt>
      <trkpt lat="44.76002" lon="-0.31561">
        <ele>107</ele>
        <time>2012-06-30T15:20:23Z</time>
      </trkpt>
      <trkpt lat="44.76004" lon="-0.31545">
        <ele>107</ele>
        <time>2012-06-30T15:20:25Z</time>
      </trkpt>
      <trkpt lat="44.76007" lon="-0.31528">
        <ele>107</ele>
        <time>2012-06-30T15:20:27Z</time>
      </trkpt>
      <trkpt lat="44.76009" lon="-0.3151">
        <ele>107</ele>
        <time>2012-06-30T15:20:29Z</time>
      </trkpt>
      <trkpt lat="44.7601" lon="-0.31492">
        <ele>107</ele>
        <time>2012-06-30T15:20:31Z</time>
      </trkpt>
      <trkpt lat="44.76012" lon="-0.31474">
        <ele>107</ele>
        <time>2012-06-30T15:20:33Z</time>
      </trkpt>
      <trkpt lat="44.76014" lon="-0.31457">
        <ele>108</ele>
        <time>2012-06-30T15:20:35Z</time>
      </trkpt>
      <trkpt lat="44.76016" lon="-0.3144">
        <ele>108</ele>
        <time>2012-06-30T15:20:37Z</time>
      </trkpt>
      <trkpt lat="44.76017" lon="-0.31424">
        <ele>108</ele>
        <time>2012-06-30T15:20:39Z</time>
      </trkpt>
      <trkpt lat="44.76019" lon="-0.3141">
        <ele>109</ele>
        <time>2012-06-30T15:20:41Z</time>
      </trkpt>
      <trkpt lat="44.76021" lon="-0.31396">
        <ele>109</ele>
        <time>2012-06-30T15:20:43Z</time>
      </trkpt>
      <trkpt lat="44.76022" lon="-0.31383">
        <ele>109</ele>
        <time>2012-06-30T15:20:45Z</time>
      </trkpt>
      <trkpt lat="44.76015" lon="-0.31367">
        <ele>110</ele>
        <time>2012-06-30T15:20:48Z</time>
      </trkpt>
      <trkpt lat="44.76003" lon="-0.31366">
        <ele>110</ele>
        <time>2012-06-30T15:20:50Z</time>
      </trkpt>
      <trkpt lat="44.75991" lon="-0.31364">
        <ele>110</ele>
        <time>2012-06-30T15:20:52Z</time>
      </trkpt>
      <trkpt lat="44.75977" lon="-0.31362">
        <ele>110</ele>
        <time>2012-06-30T15:20:54Z</time>
      </trkpt>
      <trkpt lat="44.75964" lon="-0.31359">
        <ele>110</ele>
        <time>2012-06-30T15:20:56Z</time>
      </trkpt>
      <trkpt lat="44.75949" lon="-0.31358">
        <ele>110</ele>
        <time>2012-06-30T15:20:58Z</time>
      </trkpt>
      <trkpt lat="44.75934" lon="-0.31355">
        <ele>110</ele>
        <time>2012-06-30T15:21:00Z</time>
      </trkpt>
      <trkpt lat="44.75918" lon="-0.31352">
        <ele>110</ele>
        <time>2012-06-30T15:21:02Z</time>
      </trkpt>
      <trkpt lat="44.75903" lon="-0.3135">
        <ele>110</ele>
        <time>2012-06-30T15:21:04Z</time>
      </trkpt>
      <trkpt lat="44.75888" lon="-0.31349">
        <ele>110</ele>
        <time>2012-06-30T15:21:06Z</time>
      </trkpt>
      <trkpt lat="44.75873" lon="-0.31345">
        <ele>110</ele>
        <time>2012-06-30T15:21:08Z</time>
      </trkpt>
      <trkpt lat="44.75857" lon="-0.31342">
        <ele>110</ele>
        <time>2012-06-30T15:21:10Z</time>
      </trkpt>
      <trkpt lat="44.75841" lon="-0.31338">
        <ele>109</ele>
        <time>2012-06-30T15:21:12Z</time>
      </trkpt>
      <trkpt lat="44.75825" lon="-0.31335">
        <ele>109</ele>
        <time>2012-06-30T15:21:14Z</time>
      </trkpt>
      <trkpt lat="44.7581" lon="-0.31333">
        <ele>108</ele>
        <time>2012-06-30T15:21:16Z</time>
      </trkpt>
      <trkpt lat="44.75794" lon="-0.31331">
        <ele>107</ele>
        <time>2012-06-30T15:21:18Z</time>
      </trkpt>
      <trkpt lat="44.75779" lon="-0.31329">
        <ele>107</ele>
        <time>2012-06-30T15:21:20Z</time>
      </trkpt>
      <trkpt lat="44.75762" lon="-0.31324">
        <ele>106</ele>
        <time>2012-06-30T15:21:22Z</time>
      </trkpt>
      <trkpt lat="44.75744" lon="-0.3132">
        <ele>105</ele>
        <time>2012-06-30T15:21:24Z</time>
      </trkpt>
      <trkpt lat="44.75735" lon="-0.31319">
        <ele>105</ele>
        <time>2012-06-30T15:21:25Z</time>
      </trkpt>
      <trkpt lat="44.75717" lon="-0.31318">
        <ele>104</ele>
        <time>2012-06-30T15:21:27Z</time>
      </trkpt>
      <trkpt lat="44.75706" lon="-0.31316">
        <ele>104</ele>
        <time>2012-06-30T15:21:28Z</time>
      </trkpt>
      <trkpt lat="44.75697" lon="-0.31314">
        <ele>104</ele>
        <time>2012-06-30T15:21:29Z</time>
      </trkpt>
      <trkpt lat="44.75687" lon="-0.31314">
        <ele>103</ele>
        <time>2012-06-30T15:21:30Z</time>
      </trkpt>
      <trkpt lat="44.75669" lon="-0.31313">
        <ele>102</ele>
        <time>2012-06-30T15:21:32Z</time>
      </trkpt>
      <trkpt lat="44.7566" lon="-0.31311">
        <ele>102</ele>
        <time>2012-06-30T15:21:33Z</time>
      </trkpt>
      <trkpt lat="44.75642" lon="-0.31305">
        <ele>102</ele>
        <time>2012-06-30T15:21:35Z</time>
      </trkpt>
      <trkpt lat="44.75633" lon="-0.31302">
        <ele>102</ele>
        <time>2012-06-30T15:21:36Z</time>
      </trkpt>
      <trkpt lat="44.75618" lon="-0.31293">
        <ele>102</ele>
        <time>2012-06-30T15:21:38Z</time>
      </trkpt>
      <trkpt lat="44.75605" lon="-0.31287">
        <ele>102</ele>
        <time>2012-06-30T15:21:40Z</time>
      </trkpt>
      <trkpt lat="44.75592" lon="-0.31282">
        <ele>102</ele>
        <time>2012-06-30T15:21:42Z</time>
      </trkpt>
      <trkpt lat="44.75582" lon="-0.31278">
        <ele>102</ele>
        <time>2012-06-30T15:21:44Z</time>
      </trkpt>
      <trkpt lat="44.75572" lon="-0.31274">
        <ele>102</ele>
        <time>2012-06-30T15:21:46Z</time>
      </trkpt>
      <trkpt lat="44.7556" lon="-0.31267">
        <ele>102</ele>
        <time>2012-06-30T15:21:49Z</time>
      </trkpt>
      <trkpt lat="44.75555" lon="-0.31255">
        <ele>103</ele>
        <time>2012-06-30T15:21:52Z</time>
      </trkpt>
      <trkpt lat="44.7555" lon="-0.31244">
        <ele>103</ele>
        <time>2012-06-30T15:21:56Z</time>
      </trkpt>
      <trkpt lat="44.75537" lon="-0.31247">
        <ele>102</ele>
        <time>2012-06-30T15:22:01Z</time>
      </trkpt>
      <trkpt lat="44.75527" lon="-0.31248">
        <ele>102</ele>
        <time>2012-06-30T15:22:05Z</time>
      </trkpt>
    </trkseg>
  </trk>
</gpx>